[[{"header":{"parameterUnit":"m.s-1","parameterCategory":1,"la1":30.6,"la2":29.2853,"lo1":-89.7004,"lo2":-87.6739,"dy":0.0162,"dx":0.0183,"nx":112,"ny":82,"refTime":"2023-08-03T12:00:00:Z","depth":0,"parameterNumber":2,"parameterNumberName":"U-component_of_WINDS"},"data":[0.0,0.0,0.0,0.0,0.0,0.0,0.0,0.0,0.0,0.0,0.0,0.0,0.0,0.0,0.0,0.0,0.0,0.0,0.0,0.0,0.0,0.0,0.0,0.0,0.0,0.0,0.0,0.0,0.0,0.0,0.0,0.0,0.0,0.0,0.0,0.0,0.0,0.0,0.0,0.0,0.0,0.0,0.0,0.0,0.0,0.0,0.0,0.0,0.0,0.0,0.0,0.0,0.0,0.0,0.0,0.0,0.0,0.0,0.0,0.0,0.0,0.0,0.0,0.0,0.0,0.0,0.0,0.0,0.0,0.0,0.0,0.0,0.0,0.0,0.0,0.0,0.0,0.0,0.0,0.0,0.0,0.0,0.0,0.0,0.0,0.0,0.0,0.0,0.0,0.0,-0.0,-0.0,-0.0,-0.0,-0.0,-0.0,-0.0,-0.0,0.0,0.0,0.0,0.0,0.0,0.0,0.0,0.0,0.0,0.0,0.0,0.0,0.0,0.0,0.0,0.0,0.0,0.0,0.0,0.0,0.0,0.0,0.0,0.0,0.0,0.0,0.0,0.0,0.0,0.0,0.0,0.0,0.0,0.0,0.0,0.0,0.0,0.0,0.0,0.0,0.0,0.0,0.0,0.0,0.0,0.0,0.0,0.0,0.0,0.0,0.0,0.0,0.0,0.0,0.0,0.0,0.0,0.0,0.0,0.0,0.0,0.0,0.0,0.0,0.0,0.0,0.0,0.0,0.0,0.0,0.0,0.0,0.0,0.0,0.0,0.0,0.0,0.0,0.0,0.0,0.0,0.0,0.0,0.0,0.0,0.0,0.0,0.0,0.0,0.0,0.0,0.0,0.0,0.0,0.0,0.0,0.0,0.0,0.0,0.0,0.0,0.0,0.0,0.0,-0.0,-0.0,-0.0,-0.0,-0.0,-0.0,-0.0,-0.0,0.0,0.0,0.0,0.0,0.0,0.0,0.0,0.0,0.0,0.0,0.0,0.0,0.0,0.0,0.0,0.0,0.0,0.0,0.0,0.0,0.0,0.0,0.0,0.0,0.0,0.0,0.0,0.0,0.0,0.0,0.0,0.0,0.0,0.0,0.0,0.0,0.0,0.0,0.0,0.0,0.0,0.0,0.0,0.0,0.0,0.0,0.0,0.0,0.0,0.0,0.0,0.0,0.0,0.0,0.0,0.0,0.0,0.0,0.0,0.0,0.0,0.0,0.0,0.0,0.0,0.0,0.0,0.0,0.0,0.0,0.0,0.0,0.0,0.0,0.0,0.0,0.0,0.0,0.0,0.0,0.0,0.0,0.0,0.0,0.0,0.0,0.0,0.0,0.0,0.0,0.0,0.0,0.0,0.0,0.0,0.0,0.0,0.0,0.0,0.0,0.0,0.0,0.0,-0.0,-0.0,-0.0,-0.0,-0.0,-0.0,-0.0,-0.0,-0.0,-0.0,0.0,0.0,0.0,0.0,0.0,0.0,0.0,0.0,0.0,0.0,0.0,0.0,0.0,0.0,0.0,0.0,0.0,0.0,0.0,0.0,0.0,0.0,0.0,0.0,0.0,0.0,0.0,0.0,0.0,0.0,0.0,0.0,0.0,0.0,0.0,0.0,0.0,0.0,0.0,0.0,0.0,0.0,0.0,0.0,0.0,0.0,0.0,0.0,0.0,0.0,0.0,0.0,0.0,0.0,0.0,0.0,0.0,0.0,0.0,0.0,0.0,0.0,0.0,0.0,0.0,0.0,0.0,0.0,0.0,0.0,0.0,0.0,0.0,0.0,0.0,0.0,0.0,0.0,0.0,0.0,0.0,0.0,0.0,0.0,0.0,0.0,0.0,0.0,0.0,0.0,0.0,0.0,0.0,0.0,0.0,0.0,0.0,0.0,0.0,0.0,0.0,0.0,-0.0,-0.0,-0.0,-0.0,-0.0,-0.0,-0.0,-0.0,-0.0,-0.0,0.0,0.0,0.0,0.0,0.0,0.0,0.0,0.0,0.0,0.0,0.0,0.0,0.0,0.0,0.0,0.0,0.0,0.0,0.0,0.0,0.0,0.0,0.0,0.0,0.0,0.0,0.0,0.0,0.0,0.0,0.0,0.0,0.0,0.0,0.0,0.0,0.0,0.0,0.0,0.0,0.0,0.0,0.0,0.0,0.0,0.0,0.0,0.0,0.0,0.0,0.0,0.0,0.0,0.0,0.0,0.0,0.0,0.0,0.0,0.0,0.0,0.0,0.0,0.0,0.0,0.0,0.0,0.0,0.0,0.0,0.0,0.0,0.0,0.0,0.0,0.0,0.0,0.0,0.0,0.0,0.0,0.0,0.0,0.0,0.0,0.0,0.0,0.0,0.0,0.0,0.0,0.0,0.0,0.0,0.0,0.0,0.0,0.0,0.0,0.0,0.0,0.0,-0.0,-0.0,-0.0,-0.0,-0.0,-0.0,-0.0,-0.0,-0.0,-0.0,0.0,0.0,0.0,0.0,0.0,0.0,0.0,0.0,0.0,0.0,0.0,0.0,0.0,0.0,0.0,0.0,0.0,0.0,0.0,0.0,0.0,0.0,0.0,0.0,0.0,0.0,0.0,0.0,0.0,0.0,0.0,0.0,0.0,0.0,0.0,0.0,0.0,0.0,0.0,0.0,0.0,0.0,0.0,0.0,0.0,0.0,0.0,0.0,0.0,0.0,0.0,0.0,0.0,0.0,0.0,0.0,0.0,0.0,0.0,0.0,0.0,0.0,0.0,0.0,0.0,0.0,0.0,0.0,0.0,0.0,0.0,0.0,0.0,0.0,0.0,0.0,0.0,0.0,0.0,0.0,0.0,0.0,0.0,0.0,0.0,0.0,0.0,0.0,0.0,0.0,0.0,0.0,0.0,0.0,0.0,0.0,0.0,0.0,0.0,0.0,0.0,0.0,-0.0,-0.0,-0.0,-0.0,-0.0,-0.0,-0.0,-0.0,-0.0,0.0,0.0,0.0,0.0,0.0,0.0,0.0,0.0,0.0,0.0,0.0,0.0,0.0,0.0,0.0,0.0,0.0,0.0,0.0,0.0,0.0,0.0,0.0,0.0,0.0,0.0,0.0,0.0,0.0,0.0,0.0,0.0,0.0,0.0,0.0,0.0,0.0,0.0,0.0,0.0,0.0,0.0,0.0,0.0,0.0,0.0,0.0,0.0,0.0,0.0,0.0,0.0,0.0,0.0,0.0,0.0,0.0,0.0,0.0,0.0,0.0,0.0,0.0,0.0,0.0,0.0,0.0,0.0,0.0,0.0,0.0,0.0,0.0,0.0,0.0,0.0,0.0,0.0,0.0,0.0,0.0,0.0,0.0,0.0,0.0,0.0,0.0,0.0,0.0,0.0,0.0,0.0,0.0,0.0,0.0,0.0,0.0,0.0,0.0,0.0,0.0,0.0,-0.0,-0.0,-0.0,-0.0,-0.0,-0.0,-0.0,-0.0,-0.0,-0.0,0.0,0.0,0.0,0.0,0.0,0.0,0.0,0.0,0.0,0.0,0.0,0.0,0.0,0.0,0.0,0.0,0.0,0.0,0.0,0.0,0.0,0.0,0.0,0.0,0.0,0.0,0.0,0.0,0.0,0.0,0.0,0.0,0.0,0.0,0.0,0.0,0.0,0.0,0.0,0.0,0.0,0.0,0.0,0.0,0.0,0.0,0.0,0.0,0.0,0.0,0.0,0.0,0.0,0.0,0.0,0.0,0.0,0.0,0.0,0.0,0.0,0.0,0.0,0.0,0.0,0.0,0.0,0.0,0.0,0.0,0.0,0.0,0.0,0.0,0.0,0.0,0.0,0.0,0.0,0.0,0.0,0.0,0.0,0.0,0.0,0.0,0.0,0.0,0.0,0.0,0.0,0.0,0.0,0.0,0.0,0.0,0.0,0.0,0.0,0.0,0.0,0.0,-0.0,-0.0,-0.0,-0.0,-0.0,-0.0,-0.0,-0.0,-0.0,0.0,0.0,0.0,0.0,0.0,0.0,0.0,0.0,0.0,0.0,0.0,0.0,0.0,0.0,0.0,0.0,0.0,0.0,0.0,0.0,0.0,0.0,0.0,0.0,0.0,0.0,0.0,0.0,0.0,0.0,0.0,0.0,0.0,0.0,0.0,0.0,0.0,0.0,0.0,0.0,0.0,0.0,0.0,0.0,0.0,0.0,0.0,0.0,0.0,0.0,0.0,0.0,0.0,0.0,0.0,0.0,0.0,0.0,0.0,0.0,0.0,0.0,0.0,0.0,0.0,0.0,0.0,0.0,0.0,0.0,0.0,0.0,0.0,0.0,0.0,0.0,0.0,0.0,0.0,0.0,0.0,0.0,0.0,0.0,0.0,0.0,0.0,0.0,0.0,0.0,0.0,0.0,0.0,0.0,0.0,0.0,0.0,0.0,0.0,0.0,0.0,0.0,0.0,-0.0,-0.0,-0.0,-0.0,-0.0,-0.0,-0.0,-0.0,-0.0,-0.0,0.0,0.0,0.0,0.0,0.0,0.0,0.0,0.0,0.0,0.0,0.0,0.0,0.0,0.0,0.0,0.0,0.0,0.0,0.0,0.0,0.0,0.0,0.0,0.0,0.0,0.0,0.0,0.0,0.0,0.0,0.0,0.0,0.0,0.0,0.0,0.0,0.0,0.0,0.0,0.0,0.0,0.0,0.0,0.0,0.0,0.0,0.0,0.0,0.0,0.0,0.0,0.0,0.0,0.0,0.0,0.0,0.0,0.0,0.0,0.0,0.0,0.0,0.0,0.0,0.0,0.0,0.0,0.0,0.0,0.0,0.0,0.0,0.0,0.0,0.0,0.0,0.0,0.0,0.0,0.0,0.0,0.0,0.0,0.0,0.0,0.0,0.0,0.0,0.0,0.0,0.0,0.0,0.0,0.0,0.0,0.0,0.0,0.0,0.0,0.0,0.0,0.0,-0.0,-0.0,-0.0,-0.0,-0.0,-0.0,-0.0,-0.0,-0.0,-0.0,0.0,0.0,0.0,0.0,0.0,0.0,0.0,0.0,0.0,0.0,0.0,0.0,0.0,0.0,0.0,0.0,0.0,0.0,0.0,0.0,0.0,0.0,0.0,0.0,0.0,0.0,0.0,0.0,0.0,0.0,0.0,0.0,0.0,0.0,0.0,0.0,0.0,0.0,0.0,0.0,0.0,0.0,0.0,0.0,0.0,0.0,0.0,0.0,0.0,0.0,0.0,0.0,0.0,0.0,0.0,0.0,0.0,0.0,0.0,0.0,0.0,0.0,0.0,0.0,0.0,0.0,0.0,0.0,0.0,0.0,0.0,0.0,0.0,0.0,0.0,0.0,0.0,0.0,0.0,0.0,0.0,0.0,0.0,0.0,0.0,0.0,0.0,0.0,0.0,0.0,0.0,0.0,0.0,0.0,0.0,0.0,0.0,0.0,0.0,0.0,0.0,0.0,-0.0,-0.0,-0.0,-0.0,-0.0,-0.0,-0.0,-0.0,-0.0,-0.0,0.0,0.0,0.0,0.0,0.0,0.0,0.0,0.0,0.0,0.0,0.0,0.0,0.0,0.0,0.0,0.0,0.0,0.0,0.0,0.0,0.0,0.0,0.0,0.0,0.0,0.0,0.0,0.0,0.0,0.0,0.0,0.0,0.0,0.0,0.0,0.0,0.0,0.0,0.0,0.0,0.0,0.0,0.0,0.0,0.0,0.0,0.0,0.0,0.0,0.0,0.0,0.0,0.0,0.0,0.0,0.0,0.0,0.0,0.0,0.0,-0.0,0.0,0.0,0.0,0.0,0.0,0.0,0.0,0.0,0.0,0.0,0.0,0.0,0.0,0.0,0.0,0.0,0.0,0.0,0.0,0.0,0.0,0.0,0.0,0.0,0.0,0.0,0.0,0.0,0.0,0.0,0.0,0.0,0.0,0.0,0.0,0.0,0.0,0.0,0.0,0.0,0.0,-0.0,-0.0,-0.0,-0.0,-0.0,-0.0,-0.0,-0.0,-0.0,-0.0,-0.0,0.0,0.0,0.0,0.0,0.0,0.0,0.0,0.0,0.0,0.0,0.0,0.0,0.0,0.0,0.0,0.0,0.0,0.0,0.0,0.0,0.0,0.0,0.0,0.0,0.0,0.0,0.0,0.0,0.0,0.0,0.0,0.0,0.0,0.0,0.0,0.0,0.0,0.0,0.0,0.0,0.0,0.0,0.0,0.0,0.0,0.0,0.0,0.0,0.0,0.0,0.0,0.0,0.0,0.0,0.0,0.0,0.0,0.0,0.0,0.0,-0.0,0.0,0.0,0.0,0.0,0.0,0.0,0.0,0.0,0.0,0.0,0.0,0.0,0.0,0.0,0.0,0.0,0.0,0.0,0.0,0.0,0.0,0.0,0.0,0.0,0.0,0.0,0.0,0.0,0.0,0.0,0.0,0.0,0.0,0.0,0.0,0.0,0.0,0.0,0.0,0.0,-0.0,-0.0,-0.0,-0.0,-0.0,-0.0,-0.0,-0.0,-0.0,-0.0,-0.0,0.0,0.0,0.0,0.0,0.0,0.0,0.0,0.0,0.0,0.0,0.0,0.0,0.0,0.0,0.0,0.0,0.0,0.0,0.0,0.0,0.0,0.0,0.0,0.0,0.0,0.0,0.0,0.0,0.0,0.0,0.0,0.0,0.0,0.0,0.0,0.0,0.0,0.0,0.0,0.0,0.0,0.0,0.0,0.0,0.0,0.0,0.0,0.0,0.0,0.0,0.0,0.0,0.0,-0.0,-0.0,-0.0,-0.0,-0.0,-0.0,-0.0,-0.0,-0.0,-0.0,0.0,0.0,0.0,0.0,0.0,0.0,0.0,0.0,0.0,0.0,0.0,0.0,0.0,0.0,0.0,0.0,0.0,0.0,0.0,0.0,0.0,0.0,0.0,0.0,-0.0,0.0835,0.3789,0.0,0.0,0.0,0.0,0.0,0.0,0.0,0.0,0.0,0.0,0.0,-0.0,-0.0,-0.0,-0.0,-0.0,-0.0,-0.0,-0.0,-0.0,-0.0,-0.0,-0.0,0.0,0.0,0.0,0.0,0.0,0.0,0.0,0.0,0.0,0.0,0.0,0.0,0.0,0.0,0.0,0.0,0.0,0.0,0.0,0.0,0.0,0.0,0.0,0.0,0.0,0.0,0.0,0.0,0.0,0.0,0.0,0.0,-0.0539,-0.0067,0.0,0.0,0.0,0.0,0.0,0.0,0.0,0.0,0.0,0.0,0.0,0.0,0.0,-0.0,-0.0,-0.0,-0.0,-0.0,-0.0,-0.0,-0.0,-0.0,-0.0,-0.0,-0.0,0.0,-0.0,-0.0,0.0,0.0,0.0,0.0,0.0,0.0,0.0,0.0,0.0,0.0,0.0,0.0,0.0,0.0,0.0,0.0,0.0,0.0,0.0,0.0,0.0,0.0,-0.0,-0.0,-0.0,0.0089,0.0,0.0754,0.0558,0.0078,-0.0,0.0,0.0,0.0,0.0,0.0,0.0,0.0,-0.0,-0.0,-0.0,-0.0,-0.0,-0.0,-0.0,-0.0,-0.0,-0.0,-0.0,-0.0,-0.0,-0.0,0.0,0.0,0.0,0.0,0.0,0.0,0.0,0.0,0.0,0.0,0.0,0.0,0.0,0.0,0.0,0.0,0.0,0.0,0.0,0.0,0.0,0.0,0.0,0.0,0.0,0.0,0.0,0.0,0.0,-0.0,-0.0,-0.0,-0.0,-0.0,0.0,0.0,0.0,0.0,0.0,0.0,0.0,0.0,0.0,-0.0,-0.0,-0.0,-0.0,-0.0,-0.0,-0.0,-0.0,-0.0,-0.0,-0.0,-0.0,-0.0,-0.0,-0.0,-0.0,-0.0,-0.0,-0.0,0.0,0.0,0.0,0.0,-0.0,-0.0,-0.0,-0.0,-0.0,-0.0,0.0,0.0,0.0,0.0,0.0,0.0,0.0,0.0,0.0,0.0,-0.0,-0.0,-0.0,-0.0,-0.0,-0.0,-0.0,0.0,-0.0,-0.0,-0.0,0.0,0.0,0.0,0.0,-0.0,-0.0,-0.0,-0.0,-0.0,-0.0,-0.0,-0.0,-0.0,-0.0,-0.0,-0.0,-0.0,-0.0,-0.0,-0.0,0.0,0.0,0.0,0.0,0.0,0.0,0.0,0.0,0.0,0.0,0.0,0.0,0.0,0.0,0.0,0.0,0.0,0.0,0.0,0.0,0.0,0.0,0.0,0.0,0.0,0.0,0.0,0.0,-0.0,-0.0,-0.0,-0.0,-0.0,0.0,0.0,0.0,0.0,0.0,0.0,-0.0,-0.0,-0.0,-0.0,-0.0,-0.0,-0.0,-0.0,-0.0,-0.0,-0.0,-0.0,-0.0,-0.0,-0.0,-0.0,-0.0,-0.0,-0.0,-0.0,-0.0,-0.0,-0.0,-0.0,-0.0,-0.0,-0.0,-0.0,-0.0,-0.0,-0.0,-0.0,-0.0,-0.0,-0.0,0.0,0.0,0.0,0.0,-0.0,-0.0,-0.0,-0.0,-0.0,-0.0,-0.0,-0.0,-0.0,-0.0,0.0,-0.0,-0.0,-0.0,0.0,0.0,0.0,0.0,-0.0,-0.0,-0.0,-0.0,-0.0,-0.0,-0.0,-0.0,-0.0,-0.0,-0.0,-0.0,-0.0,-0.0,-0.0,-0.0,-0.0,0.0,0.0,0.0,0.0,0.0,0.0,0.0,0.0,0.0,0.0,0.0,0.0,0.0,0.0,0.0,0.0,0.0,0.0,0.0,0.0,0.0,0.0,0.0,0.0,0.0,0.0,0.0,0.0,0.0,-0.0,-0.0,0.0,0.0,0.0,0.0,-0.0,-0.0,-0.0,-0.0,-0.0,-0.0,-0.0,-0.0,-0.0,-0.0,-0.0,-0.0,-0.0,-0.0,-0.0,-0.0,-0.0,-0.0,-0.0,-0.0,-0.0,-0.0,-0.0,-0.0,-0.0,-0.0,-0.0,-0.0,-0.0,-0.0,-0.0,-0.0,-0.0,-0.0,-0.0,-0.0,-0.0,-0.0,-0.0,0.0,0.0,-0.0,-0.0,-0.0,-0.0,-0.0,-0.0,-0.0,-0.0,-0.0,-0.0,-0.0,0.0,-0.0,-0.0,-0.0,0.0,-0.0,-0.0,-0.0,-0.0,-0.0,-0.0,-0.0,-0.0,-0.0,-0.0,-0.0,-0.0,-0.0,-0.0,-0.0,-0.0,-0.0,-0.0,-0.0,-0.0,-0.0,0.0,0.0,0.0,0.0,0.0,0.0,0.0,0.0,0.0,0.0,0.0,0.0,0.0,0.0,0.0,0.0,0.0,0.0,0.0,0.0,0.0,0.0,0.0,0.0,0.0,0.0,0.0,0.0,-0.0,-0.0,0.0,-0.0,-0.0,-0.0,-0.0,-0.0,-0.0,-0.0,-0.0,-0.0,-0.0,-0.0,-0.0,-0.0,-0.0,-0.0,-0.0,-0.0,-0.0,-0.0,-0.0,-0.0,-0.0,-0.0,-0.0,-0.0,-0.0,-0.0,-0.0,-0.0,-0.0,-0.0,-0.0,-0.0,-0.0,-0.0,-0.0,-0.0,-0.0,-0.0,-0.0,-0.0,-0.0,-0.0,-0.0,-0.0,-0.0,-0.0,-0.0,-0.0,-0.0,-0.0,-0.0,-0.0,-0.0,-0.0,-0.0,-0.0,-0.0,-0.0,-0.0,-0.0,-0.0,-0.0,-0.0,-0.0,-0.0,-0.0,-0.0,-0.0,-0.0,-0.0,-0.0,-0.0,-0.0,-0.0,-0.0,-0.0,-0.0,-0.0,-0.0,-0.0,-0.0,0.0,0.0,0.0,0.0,0.0,0.0,0.0,0.0,0.0,0.0,0.0,0.0,0.0,0.0,0.0,0.0,0.0,0.0,0.0,0.0,0.0,0.0,0.0,0.0,0.0,0.0,-0.0,-0.0,-0.0,-0.0,-0.0,-0.0,-0.0,-0.0,-0.0,-0.0,-0.0,-0.0,-0.0,-0.0,-0.0,-0.0,-0.0,-0.0,-0.0,-0.0,-0.0,-0.0,-0.0,-0.0,-0.0,-0.0,-0.0,-0.0,-0.0,-0.0,-0.0,-0.0,-0.0,-0.0,-0.0,-0.0,-0.0,-0.0,-0.0,-0.0,-0.0,-0.0,-0.0,-0.0,-0.0,-0.0,-0.0,-0.0,-0.0,-0.0,-0.0,-0.0,-0.0,-0.0,-0.0,-0.0,-0.0,-0.0,-0.0,-0.0,-0.0,-0.0,-0.0,-0.0,-0.0,-0.0,-0.0,-0.0,-0.0,-0.0,-0.0,-0.0,-0.0,-0.0,-0.0,-0.0,-0.0,-0.0,-0.0,-0.0,-0.0,-0.0,-0.0,-0.0,-0.0,-0.0,-0.0,0.0,0.0,0.0,0.0,0.0,0.0,0.0,0.0,0.0,0.0,0.0,0.0,0.0,0.0,0.0,0.0,0.0,0.0,0.0,0.0,0.0,0.0,0.0,-0.5521,-0.2653,-0.018,-0.0,-0.0,-0.0,-0.0,-0.0,-0.0,-0.0,-0.0,-0.0,-0.0,-0.0,-0.0,-0.0,-0.0,-0.0,-0.0,-0.0,-0.0,-0.0,-0.0,-0.0,-0.0,-0.0,-0.0,-0.0,-0.0,-0.0,-0.0,-0.0,-0.0,-0.0,-0.0,-0.0,-0.0,-0.0,-0.0,-0.0,-0.0,-0.0,-0.0,-0.0,-0.0,-0.0,-0.0,-0.0,-0.0,-0.0,-0.0,-0.0,-0.0,-0.0,-0.0,-0.0,-0.0,-0.0,-0.0,-0.0,-0.0,-0.0,-0.0,-0.0,-0.0,-0.0,-0.0,-0.0,-0.0,0.0,-0.0,-0.0,-0.0,-0.0,-0.0,-0.0,-0.0,-0.0,-0.0,-0.0,-0.0,-0.0,-0.0,-0.0,-0.0,-0.0,-0.0,-0.0,-0.0,0.0,0.0,0.0,0.0,0.0,0.0,0.0,0.0,0.0,0.0,0.0,0.0,0.0,0.0,0.0,0.0,0.0,0.0,0.0,0.0,0.0,0.0,-0.0447,-0.1568,-0.3361,-0.3449,-0.0399,-0.0,-0.0,-0.0,-0.0,-0.0,-0.0,-0.0,-0.0,-0.0,-0.0,-0.0,-0.0,-0.0,-0.0,-0.0,-0.0,-0.0,-0.0,-0.0,-0.0,-0.0,-0.0,-0.0,-0.0,-0.0,-0.0,-0.0,-0.0,-0.0,-0.0,-0.0,-0.0,-0.0,-0.0,-0.0,-0.0,-0.0,-0.0,-0.0,-0.0,-0.0,-0.0,-0.0,-0.0,-0.0,-0.0,-0.0,-0.0,-0.0,-0.0,-0.0,-0.0,-0.0,-0.0,-0.0,-0.0,-0.0,-0.0,-0.0,-0.0,-0.0,-0.0,-0.0,-0.0,-0.0,0.0,-0.0,-0.0,-0.0,-0.0,-0.0,-0.0,-0.0,-0.0,-0.0,-0.0,-0.0,-0.0,-0.0,-0.0,-0.0,-0.0,-0.0,-0.0,0.0,0.0,0.0,0.0,0.0,0.0,0.0,0.0,0.0,0.0,0.0,0.0,0.0,0.0,0.0,0.0,0.0,0.0,0.0,0.0,0.0,0.0,-0.1025,-0.0,-0.0,-0.2147,-0.2745,-0.0325,-0.0,-0.0,-0.0,-0.0,-0.0,-0.0,-0.0,-0.0,-0.0,-0.0,-0.0,-0.0,-0.0,-0.0,-0.0,-0.0,-0.0,-0.0,-0.0,-0.0,-0.0,-0.0,-0.0,-0.0,-0.0,-0.0,-0.0,-0.0,-0.0,0.0,0.0,0.0,0.0,0.0,-0.0,-0.0,-0.0,-0.0,-0.0,-0.0,-0.0,-0.0,-0.0,-0.0,-0.0,-0.0,-0.0,-0.0,-0.0,-0.0,-0.0,-0.0,-0.0,-0.0,-0.0,-0.0,-0.0,-0.0,-0.0,0.0,-0.0,-0.0,-0.0,-0.0,-0.0,-0.0,-0.0,-0.0,-0.0,-0.0,-0.0,-0.0,-0.0,-0.0,0.0,0.0,0.0,-0.0,-0.0,-0.0,0.0,0.0,0.0,-0.0,-0.0,0.0,0.0,0.0,-0.0,-0.0,0.0,0.0,0.0,0.0,0.0,0.0,0.0,0.0,0.0,0.0,0.0,0.0,0.0,0.0,0.0,0.0,-0.3211,-0.1046,-0.067,-0.0224,-0.0,-0.0,-0.0,-0.0,-0.0,-0.0,-0.0,-0.0,-0.0,-0.0,-0.0,0.0,0.0,0.0,0.0,-0.0,-0.0,-0.0,-0.0,-0.0,-0.0,-0.0,-0.0,-0.0,-0.0,-0.0,-0.0,-0.0,-0.0,-0.0,-0.0,-0.0,-0.0,-0.0,-0.0,-0.0,-0.0,-0.0,-0.0,0.0,0.0,-0.0,-0.0,-0.0,-0.0,-0.0,-0.0,-0.0,-0.0,-0.0,-0.0,-0.0,-0.0,-0.0,-0.0,-0.0,-0.0,-0.0,-0.0,-0.0,-0.0,-0.0,-0.0,-0.0,-0.0,-0.0,-0.0,-0.0,-0.0,-0.0,-0.0,-0.0,0.0,0.0,-0.0,-0.0,-0.0,-0.0,-0.0,-0.0,-0.0,-0.0,-0.0,-0.0,-0.0,-0.0,-0.0,-0.0,-0.0,-0.0,-0.0,-0.0,0.0,0.0,0.0,0.0,0.0,0.0,0.0,0.0,0.0,0.0,0.0,0.0,0.0,0.0,0.0,-0.8167,-0.823,-0.7398,-0.4715,-0.1811,-0.0,-0.0,-0.0,-0.0,-0.0,-0.0,-0.0,-0.0,-0.0,-0.0,-0.0,-0.0,-0.0,-0.0,-0.0,-0.0,-0.0,-0.0,-0.0,-0.0,0.0,0.0,-0.0,-0.0,-0.0,-0.0,-0.0,-0.0,-0.0,-0.0,-0.0,-0.0,-0.0,-0.0,-0.0,-0.0,-0.0,-0.0,-0.0,-0.0,-0.0,-0.0,-0.0,-0.0,-0.0,-0.0,0.0,-0.0,-0.0,-0.0,-0.0,-0.0,-0.0,-0.0,-0.0,-0.0,-0.0,-0.0,-0.0,-0.0,-0.0,-0.0,-0.0,-0.0,-0.0,-0.0,-0.0,-0.0,-0.0,-0.0,-0.0,-0.0,-0.0,-0.0,-0.0,-0.0,-0.0,-0.0,-0.0,-0.0,-0.0,-0.0,-0.0,-0.0,-0.0,-0.0,-0.0,-0.0,-0.0,-0.0,-0.0,-0.0,0.0,0.0,0.0,0.0,0.0,0.0,0.0,0.0,0.0,0.0,0.0,-0.7201,0.0,0.0,-0.8891,-0.9332,-0.947,-0.9178,-0.8074,-0.636,-0.3976,-0.0379,-0.0,-0.0,-0.0,-0.0,-0.0,-0.0,-0.0,-0.0,-0.0,-0.0,-0.0,-0.0,-0.0,-0.0,-0.0,-0.0,-0.0,-0.0,-0.0,-0.0,-0.0,-0.0,-0.0,-0.0,-0.0,-0.0,-0.0,-0.0,-0.0,-0.0,-0.0,-0.0,-0.0,-0.0,-0.0,-0.0,-0.0,-0.0,-0.0,-0.0,-0.0,-0.0,-0.0,-0.0,-0.0,-0.0,-0.0,-0.0,-0.0,-0.0,-0.0,-0.0,-0.0,-0.0,-0.0,-0.0,-0.0,-0.0,-0.0,-0.0,-0.0,-0.0,-0.0,-0.0,-0.0,-0.0,-0.0,-0.0,-0.0,-0.0,-0.0,-0.0,-0.0,-0.0,-0.0,-0.0,-0.0,-0.0,-0.0,-0.0,-0.0,-0.0,-0.0,-0.0,-0.0,-0.0,-0.0,-0.0,-0.0,-0.0,0.0,0.0,0.0,0.0,0.0,0.0,0.0,0.0,-0.7088,-0.7539,-0.776,-0.8038,-0.856,-0.9152,-0.961,-0.9771,-0.9455,-0.9215,-0.9307,-1.0029,-0.8601,-0.2718,-0.0908,-0.0,-0.0,-0.0,-0.0,-0.0,-0.0,-0.0,-0.0,-0.0,-0.0,-0.0,-0.0,-0.0,-0.0,-0.0,-0.0,-0.0,-0.0,-0.0,-0.0,-0.0,-0.0,-0.0,-0.0,-0.0,-0.0,-0.0,-0.0,-0.0,-0.0,-0.0,-0.0,-0.0,-0.0,-0.0,-0.0,-0.0,-0.0,-0.0,-0.0,-0.0,-0.0,-0.0,-0.0,-0.0,-0.0,-0.0,-0.0,-0.0,-0.0,-0.0,-0.0,-0.0,-0.0,-0.0,-0.0,-0.0,-0.0,-0.0,-0.0,-0.0,-0.0,-0.0,-0.0,-0.0,-0.0,-0.0,-0.0,-0.0,-0.0,-0.0,-0.0,-0.0,-0.0,-0.0,-0.0,-0.0,-0.0,-0.0,-0.0,-0.0,-0.0,-0.0,-0.0,-0.0,-0.0,-0.0,-0.0,-0.0,-0.6705,-0.6675,-0.6756,-0.6987,-0.7065,-0.7268,0.0,0.0,-0.8018,-0.8465,-0.8682,-0.8893,-0.9222,-0.951,-0.9778,-0.9764,-1.0029,-0.9157,-0.5891,-0.8535,-1.0355,-0.9661,-0.3855,-0.0,-0.0,-0.0,-0.0,-0.0,-0.0,-0.0,-0.0,-0.0,-0.0,-0.0,-0.0,-0.0,-0.0,-0.0,-0.0,-0.0,-0.0,-0.0,-0.0,-0.0,-0.0,-0.0,-0.0,-0.0,-0.0,-0.0,-0.0,-0.0,-0.0,-0.0,-0.0,-0.0,-0.0,-0.0,-0.0,-0.0,-0.0,-0.0,-0.0,-0.0,-0.0,-0.0,-0.0,-0.0,-0.0,-0.0,-0.0,-0.0,-0.0,-0.0,-0.0,-0.0,-0.0,-0.0,-0.0,-0.0,-0.0,-0.0,-0.0,-0.0,-0.0,-0.0,-0.0,-0.0,-0.0,-0.0,-0.0,-0.0,-0.0,-0.0,-0.0,-0.0,-0.0,-0.0,-0.0,-0.0,-0.0,-0.0,-0.0,-0.0,-0.0,-0.0,-0.0,-0.0,-0.0,-0.0,-0.0,-0.0,-0.6997,-0.6956,-0.7007,0.0,-0.7539,-0.7926,-0.8414,-0.8547,-0.8689,-0.914,-0.9351,-0.9544,-0.9849,-1.0073,-1.027,0.0,-0.924,-0.8379,-0.8265,-0.9624,-1.0656,-1.0637,-0.4322,-0.0,-0.0,-0.0,-0.0,-0.0,-0.0,-0.0,-0.0,-0.0,-0.0,-0.0,-0.0,-0.0,-0.0,-0.0,-0.0,-0.0,-0.0,-0.0,-0.0,-0.0,-0.0,-0.0,-0.0,-0.0,-0.0,-0.0,-0.0,-0.0,-0.0,-0.0,-0.0,-0.0,-0.0,-0.0,-0.0,-0.0,-0.0,-0.0,-0.0,-0.0,-0.0,-0.0,-0.0,-0.0,-0.0,-0.0,-0.0,-0.0,-0.0,-0.0,-0.0,-0.0,-0.0,-0.0,-0.0,-0.0,-0.0,-0.0,-0.0,-0.0,-0.0,-0.0,-0.0,-0.0,-0.0,-0.0,-0.0,-0.0,-0.0,-0.0,-0.0,-0.0,-0.0,-0.0,-0.0,-0.0,-0.0,-0.0,-0.0,-0.0,-0.0,-0.0,-0.0,-0.0,-0.0,-0.0,-0.0,-0.0,-0.7112,-0.7173,0.0,-0.7611,-0.8099,-0.8601,-0.894,-0.9133,-0.9361,-0.9768,-0.9934,-1.0073,-1.0297,-1.0456,-1.0585,-1.0683,-0.8424,-0.7498,-1.0199,-1.0643,-0.9958,-0.7941,-0.3187,-0.0,-0.0,-0.0,-0.0,-0.0,-0.0,-0.0,-0.0,-0.0,-0.0,-0.0,-0.0,-0.0,-0.0,-0.0,-0.0,-0.0,-0.0,-0.0,-0.0,-0.0,-0.0,-0.0,-0.0,-0.0,-0.0,-0.0,-0.0,-0.0,-0.0,-0.0,-0.0,-0.0,-0.0,-0.0,-0.0,-0.0,-0.0,-0.0,-0.0,-0.0,-0.0,-0.0,-0.0,-0.0,-0.0,-0.0,-0.0,-0.0,-0.0,-0.0,-0.0,-0.0,-0.0,-0.0,-0.0,-0.0,-0.0,-0.0,-0.0,-0.0,-0.0,-0.0,-0.0,-0.0,-0.0,-0.0,-0.0,-0.0,-0.0,-0.0,-0.0,-0.0,-0.0,-0.0,-0.0,-0.0,-0.0,-0.0,-0.0,-0.0,-0.0,-0.0,-0.0,-0.0,-0.0,-0.0,-0.0,-0.0,-0.6936,0.0,-0.7726,-0.8303,-0.8788,-0.9242,-0.9686,-0.9903,-1.01,-1.0402,-1.047,-1.0473,-1.0483,-1.0609,-1.068,-1.0702,-0.7717,-0.6546,-0.9798,-1.0504,-0.8098,-0.1114,-0.0123,-0.0,0.0,-0.0,-0.0,-0.0,-0.0,-0.0,-0.0,-0.0,-0.0,-0.0,-0.0,-0.0,-0.0,-0.0,-0.0,-0.0,-0.0,-0.0,-0.0,-0.0,-0.0,-0.0,-0.0,-0.0,-0.0,-0.0,-0.0,-0.0,-0.0,-0.0,-0.0,-0.0,-0.0,-0.0,-0.0,-0.0,-0.0,-0.0,-0.0,-0.0,-0.0,-0.0,-0.0,-0.0,-0.0,-0.0,-0.0,-0.0,-0.0,-0.0,-0.0,-0.0,-0.0,-0.0,-0.0,-0.0,-0.0,-0.0,-0.0,-0.0,-0.0,-0.0,-0.0,-0.0,-0.0,-0.0,-0.0,-0.0,-0.0,-0.0,-0.0,-0.0,-0.0,-0.0,-0.0,-0.0,-0.0,-0.0,-0.0,-0.0,-0.0,-0.0,-0.0,-0.0,-0.0,-0.0,-0.0,-0.0,-0.7407,0.0,-0.833,-0.893,-0.9415,-0.9839,-1.0185,-1.0385,-1.0493,-1.049,-1.0334,-1.0164,-1.0066,-1.0012,-1.0136,-1.0475,-0.9513,-0.8992,-1.0164,-1.0399,-0.9583,-0.7347,-0.2944,0.0,0.0,0.0,0.0,-0.0,-0.0,-0.0,-0.0,-0.0,-0.0,-0.0,-0.0,-0.0,-0.0,-0.0,-0.0,-0.0,-0.0,-0.0,-0.0,-0.0,-0.0,-0.0,-0.0,-0.0,-0.0,-0.0,-0.0,-0.0,-0.0,-0.0,-0.0,-0.0,-0.0,-0.0,-0.0,-0.0,-0.0,-0.0,-0.0,-0.0,-0.0,-0.0,-0.0,-0.0,-0.0,-0.0,-0.0,-0.0,-0.0,-0.0,-0.0,-0.0,-0.0,-0.0,-0.0,-0.0,-0.0,-0.0,-0.0,-0.0,-0.0,-0.0,-0.0,-0.0,-0.0,-0.0,-0.0,-0.0,-0.0,-0.0,-0.0,-0.0,-0.0,-0.0,-0.0,-0.0,-0.0,-0.0,-0.0,-0.0,-0.0,-0.0,-0.0,-0.0,-0.0,-0.0,-0.0,-0.0,-0.797,-0.8462,-0.8947,-0.9551,-0.9958,-1.0273,-1.0517,-1.0609,-1.0582,-1.0375,-1.0097,-0.9812,-0.9554,-0.9432,-0.9528,-0.9891,-1.0119,-1.0348,-1.0409,-0.8182,-0.7079,-0.8433,-0.3539,-0.0,0.0,0.0,0.0,-0.0,-0.0,-0.0,-0.0,-0.0,-0.0,-0.0,-0.0,-0.0,-0.0,-0.0,-0.0,-0.0,-0.0,-0.0,-0.0,-0.0,-0.0,-0.0,-0.0,-0.0,-0.0,-0.0,-0.0,-0.0,-0.0,-0.0,-0.0,-0.0,-0.0,-0.0,-0.0,-0.0,-0.0,-0.0,-0.0,-0.0,-0.0,-0.0,-0.0,-0.0,-0.0,-0.0,-0.0,-0.0,-0.0,-0.0,-0.0,-0.0,-0.0,-0.0,-0.0,-0.0,-0.0,-0.0,-0.0,-0.0,-0.0,-0.0,-0.0,-0.0,-0.0,-0.0,-0.0,-0.0,-0.0,-0.0,-0.0,-0.0,-0.0,-0.0,-0.0,-0.0,-0.0,-0.0,-0.0,-0.0,-0.0,-0.0,-0.0,-0.0,-0.0,-0.0,-0.0,-0.0,-0.8581,-0.9079,-0.9568,-1.0148,-1.0399,-1.0538,-1.0677,-1.0585,-1.0382,-1.0076,-0.9768,-0.9418,0.0,0.0,-0.8913,-0.9168,-0.9818,-1.0357,-1.044,-0.4692,-0.1554,0.0,0.0,0.0,0.0,0.0,0.0,-0.0,0.0,-0.0,-0.0,-0.0,-0.0,-0.0,-0.0,-0.0,-0.0,-0.0,-0.0,-0.0,-0.0,-0.0,-0.0,-0.0,-0.0,-0.0,-0.0,-0.0,-0.0,-0.0,-0.0,-0.0,-0.0,-0.0,-0.0,-0.0,-0.0,-0.0,-0.0,-0.0,-0.0,-0.0,-0.0,-0.0,-0.0,-0.0,-0.0,-0.0,-0.0,-0.0,-0.0,-0.0,-0.0,-0.0,-0.0,-0.0,-0.0,-0.0,-0.0,-0.0,-0.0,-0.0,-0.0,-0.0,-0.0,-0.0,-0.0,-0.0,-0.0,-0.0,-0.0109,-0.0428,-0.021,-0.0103,-0.0203,-0.0101,-0.0101,-0.0202,-0.0303,-0.0303,-0.0,-0.0,-0.0101,-0.0404,-0.0101,-0.0,-0.0,-0.0,-0.0,-0.0,-0.0,-0.0101,-0.9045,-0.9622,-1.0114,-1.0375,-1.0551,-1.0643,-1.0568,-1.0348,-1.0046,-0.9635,-0.9133,-0.8665,0.0,0.0,0.0,-0.874,-0.9398,0.0,-0.6724,-0.736,0.0,-0.1757,0.0,-0.0,-0.0,-0.0,0.0,0.0,-0.0,-0.0,-0.0,-0.0,-0.0,-0.0,-0.0,-0.0,-0.0,-0.0,-0.0,-0.0,-0.0,-0.0,-0.0,-0.0,-0.0,-0.0,-0.0,-0.0,-0.0,-0.0,-0.0,-0.0,-0.0,-0.0,-0.0,-0.0,-0.0,-0.0,-0.0,-0.0,-0.0,-0.0,-0.0,-0.0,-0.0,-0.0,-0.0,-0.0,-0.0,-0.0,-0.0,-0.0,-0.0,-0.0,-0.0,-0.0,-0.0,-0.0,-0.0,-0.0,-0.0,-0.0,-0.0,-0.0,-0.0,-0.0,-0.0,-0.0,-0.0,-0.0,-0.1661,-0.6117,-0.2677,-0.084,-0.2776,-0.1118,-0.0806,-0.2814,-0.4845,-0.4138,-0.0201,-0.0,-0.1914,-0.5871,-0.2019,-0.0,-0.0,-0.0,-0.0,-0.0,-0.0,-0.2121,-0.9649,-1.0117,-1.0493,-1.0571,-1.0605,-1.0544,-1.0263,-0.9968,-0.9591,-0.9011,-0.8516,0.0,-0.7801,-0.7818,0.0,0.0,0.0,0.0,-0.7424,-0.6547,-0.573,0.0,-0.1944,0.0,-0.0,-0.0,-0.0,0.0,-0.0,-0.0,-0.0,-0.0,-0.0,-0.0,-0.0,-0.0,-0.0,-0.0,-0.0,-0.0,-0.0,-0.0,-0.0,-0.0,-0.0,-0.0,0.0,-0.0,-0.0,-0.0,-0.0,-0.0,-0.0,-0.0,-0.0,-0.0,-0.0,-0.0,-0.0,-0.0,-0.0,-0.0,-0.0,-0.0,-0.0,-0.0,-0.0,-0.0,-0.0,-0.0,-0.0,-0.0,-0.0,-0.0,-0.0,-0.0,-0.0,-0.0,-0.0,-0.0,-0.0,-0.0,-0.0,-0.0,-0.0,-0.0,-0.0,-0.0,-0.0,-0.0,-0.1337,-0.4611,-0.432,-0.4452,-0.5608,-0.4387,-0.363,-0.4016,-0.6561,-0.667,-0.3621,-0.2411,-0.3217,-0.616,-0.4438,-0.292,-0.1707,-0.1711,-0.1711,-0.1711,-0.1711,-0.3324,-1.0226,-1.051,-1.0714,-1.0697,-1.0561,-1.0314,-0.9866,-0.949,-0.9039,-0.835,0.0,-0.7645,-0.7394,-0.7377,-0.766,-0.8368,0.0,-0.9008,-1.0065,-0.5152,-0.3357,-0.8702,-0.3833,-0.0,-0.0,-0.0,-0.0,-0.0,-0.0,-0.0,-0.0,-0.0,-0.0,-0.0,-0.0,-0.0,-0.0,-0.0,-0.0,-0.0,-0.0,-0.0,-0.0,-0.0,-0.0,-0.0,-0.0,-0.0,-0.0,-0.0,-0.0,-0.0,-0.0,-0.0,-0.0,-0.0,-0.0,-0.0,-0.0,-0.0,-0.0,-0.0,-0.0,-0.0,-0.0,-0.0,-0.0,-0.0,-0.0,-0.0,-0.0,-0.0,-0.0,-0.0,-0.0,-0.0,-0.0,-0.0,-0.0,-0.0,-0.0,-0.0,-0.0,-0.0732,-0.133,-0.1327,-0.094,-0.0576,-0.0574,-0.0227,-0.0112,-0.055,-0.5537,-0.8683,-0.8069,-0.8031,-0.6997,-0.472,-0.6753,-0.7989,-0.7989,-0.5737,-0.452,-0.452,-0.6859,-0.6859,-0.452,-0.4522,-0.4522,-0.4522,-0.4522,-0.4522,-1.0375,-1.0585,-1.069,-1.0565,-1.0327,-1.0012,-0.9561,-0.8944,0.0,0.0,-0.7553,-0.7244,-0.7125,-0.7411,-0.7671,-0.7733,0.0,0.0,0.0,0.0,-0.7121,0.0,-0.0805,-0.0,-0.0,-0.0,0.0,0.0,-0.0,-0.0,-0.0,-0.0,-0.0,-0.0,-0.0,-0.0,-0.0,-0.0,-0.0,-0.0,-0.0,-0.0,-0.0,-0.0,-0.0,-0.0,-0.0,0.0,-0.0,-0.0,-0.0,-0.0,-0.0,-0.0,-0.0,-0.0,-0.0,-0.0,-0.0,-0.0,-0.0,-0.0,-0.0,-0.0,-0.0,-0.0,-0.0,-0.0,-0.0,-0.0,-0.0,-0.0,-0.0,-0.0,-0.0,-0.0,-0.0,-0.0,-0.0,-0.0,-0.0,-0.0,-0.0,-0.4561,-0.8113,-0.8133,-0.5574,-0.3718,-0.3669,-0.1582,-0.1007,-0.3453,-0.684,-0.8804,-0.8476,-0.8143,-0.7801,-0.7341,-0.7759,-0.7975,-0.7975,-0.7566,-0.726,-0.726,-0.7779,-0.7779,-0.726,-0.7266,-0.7272,-0.7272,-0.7272,-0.7266,-1.0548,-1.0663,-1.0683,-1.0531,-1.0209,-0.9774,-0.9171,0.0,0.0,0.0,-0.7288,-0.7143,-0.7064,-0.735,0.0,0.0,0.0,0.0,0.0,0.0,0.0,0.0,-0.0,-0.0,0.0,-0.0,-0.0,-0.0,-0.0,-0.0,-0.0,-0.0,-0.0,-0.0,-0.0,-0.0,-0.0,-0.0,-0.0,-0.0,-0.0,-0.0,-0.0,-0.0,-0.0,-0.0,-0.0,-0.0,-0.0,-0.0,-0.0,-0.0,-0.0,-0.0,-0.0,-0.0,-0.0,-0.0,-0.0,-0.0,-0.0,-0.0,-0.0,-0.0,-0.0,-0.0,-0.0,-0.0,-0.0,-0.0,-0.0,-0.0,-0.0,-0.0,-0.0,-0.0,-0.0,-0.0,-0.0,-0.0,-0.2716,-0.5068,-0.5068,-0.63,-0.7891,-0.9576,-0.8266,-0.7036,-0.6862,-0.5575,-0.4592,-0.4472,-0.7191,-0.8858,-0.8521,-0.8317,-0.8156,-0.8167,-0.8096,-0.7955,-0.7955,-0.7955,-0.7955,-0.7955,-0.7962,-0.7962,-0.7955,-0.7962,-0.7962,-0.7962,-0.7962,-0.7962,-1.0595,-1.0673,-1.0677,-1.049,-1.0083,-0.954,-0.8825,-0.8265,0.0,0.0,-0.7031,-0.7021,-0.7061,0.0,-0.7095,0.0,-0.6246,0.0,0.0,0.0,0.0,0.0,0.0,0.0,-0.0,-0.0,0.0,-0.0,-0.0,-0.0,-0.0,-0.0,-0.0,-0.0,-0.0,-0.0,-0.0,-0.0,-0.0,-0.0,-0.0,-0.0,-0.0,-0.0,-0.0,-0.0,-0.0,-0.0,-0.0,-0.0,-0.0,-0.0,-0.0,-0.0,-0.0,-0.0,-0.0,-0.0,-0.0,-0.0,-0.0,-0.0,-0.0,-0.0,-0.0,-0.0,-0.0,-0.0,-0.0,-0.0,-0.0,-0.0,-0.0,-0.0,-0.0,-0.037,-0.1851,-0.2099,-0.1851,-0.1233,-0.5186,-0.8928,-0.9685,-0.7654,-0.6771,-0.9394,-0.954,-0.9362,-0.9121,-0.899,-0.8118,-0.573,-0.7552,-0.8801,-0.8632,-0.8486,-0.8313,-0.8272,-0.8126,-0.8038,-0.8038,-0.8038,-0.8038,-0.8038,-0.8038,-0.8038,-0.8038,-0.8038,-0.8038,-0.8038,-0.8038,-0.8038,-1.0317,-1.0517,-1.0653,-1.0371,-0.9856,-0.9259,-0.8645,0.0,0.0,-0.7118,-0.697,-0.684,-0.7098,-0.7141,-0.5707,0.0,0.0,-0.0803,0.0,0.0,0.0,0.0,0.0,0.0,-0.0,-0.0,0.0,-0.0,-0.0,-0.0,-0.0,-0.0,-0.0,-0.0,-0.0,-0.0,-0.0,-0.0,-0.0,-0.0,-0.0,-0.0,-0.0,-0.0,-0.0,-0.0,-0.0,-0.0,0.0,-0.0,-0.0,-0.0,-0.0,-0.0,-0.0,-0.0,-0.0,-0.0,-0.0,-0.0,-0.0,-0.0,-0.0,-0.0,-0.0,-0.0,-0.0,-0.0,-0.0,-0.0,-0.0,-0.0,-0.0,-0.0,-0.0,-0.1605,-0.7557,-0.8934,-0.8049,-0.5046,-0.492,-0.628,-0.9281,-0.9509,-0.9483,-0.9737,-0.971,-0.9595,-0.9595,-0.9327,-0.9024,-0.8791,-0.8802,-0.8889,-0.8726,-0.856,-0.8408,-0.8279,-0.8126,-0.8038,-0.8038,-0.8038,-0.8038,-0.8038,-0.8038,-0.8038,-0.8038,-0.8038,-0.8038,-0.8038,-0.8038,-0.8038,-1.0046,-1.0368,-1.0668,-1.0369,-0.9961,-0.9437,-0.8834,0.0,-0.7474,-0.7146,-0.5889,-0.487,-0.501,-0.616,-0.6457,0.0,0.0,0.0,-0.0,0.0,0.0,0.0,0.0,0.0,0.0,0.0,-0.0,-0.0,-0.0,-0.0,-0.0,-0.0,-0.0,-0.0,-0.0,-0.0,-0.0,-0.0,-0.0,-0.0,-0.0,-0.0,-0.0,-0.0,-0.0,-0.0,-0.0,-0.0,0.0,-0.0,-0.0,-0.0,-0.0,-0.0,-0.0,-0.0,-0.0,-0.0,-0.0,-0.0,-0.0,-0.0,-0.0,-0.0,-0.0,-0.0,-0.0,-0.0,-0.0,-0.0,-0.0,-0.2911,-0.588,-0.5949,-0.4439,-0.3693,-0.6289,-0.841,-0.9416,-0.815,-0.7883,-0.8247,-0.9625,-0.9852,-0.9836,-0.9836,-0.9707,-0.9608,-0.9608,-0.9422,-0.9256,-0.9164,-0.9032,-0.8923,-0.8855,-0.8706,-0.8598,-0.854,-0.8309,-0.8177,-0.8177,-0.8089,-0.8038,-0.8038,-0.8038,-0.8038,-0.8038,-0.8038,-0.8038,-0.8038,-0.8038,-0.8038,-0.8455,-0.9458,-1.0731,-1.0471,-0.9476,-0.8317,0.0,0.0,-0.6669,-0.7052,-0.5772,-0.4175,-0.2798,-0.3911,-0.5041,0.0,0.0,-0.0,-0.0,0.0,0.0,0.0,0.0,0.0,0.0,-0.0,-0.0,-0.0,-0.0,-0.0,-0.0,-0.0,-0.0,-0.0,-0.0,-0.0,-0.0,-0.0,-0.0,-0.0,-0.0,-0.0,-0.0,-0.0,-0.0,-0.0,-0.0,-0.0,0.0,-0.0,-0.0,-0.0,-0.0,-0.1295,-0.3096,-0.2955,-0.2321,-0.1424,-0.139,-0.1387,-0.1395,-0.1489,-0.1479,-0.1479,-0.1479,-0.0748,-0.0379,-0.2541,-0.3052,-0.2672,-0.1662,-0.4945,-0.8534,-0.9578,-0.8033,-0.6401,-0.6394,-0.8136,-0.9767,-0.9761,-0.9741,-0.9846,-0.9846,-0.9832,-0.9822,-0.9822,-0.9737,-0.9673,-0.9673,-0.954,-0.9391,-0.9239,-0.9089,-0.8984,-0.8944,-0.8798,-0.871,-0.871,-0.8435,-0.8272,-0.8272,-0.8123,-0.8038,-0.8038,-0.8038,-0.8038,-0.8038,-0.8038,-0.8038,-0.8038,-0.8038,-0.8038,-0.5312,-0.7578,-1.0748,-1.0711,-0.8066,-0.5348,0.0,0.0,-0.4625,-0.6666,-0.7087,-0.5621,-0.0895,-0.009,-0.009,-0.009,0.0,0.0,-0.0,0.0,0.0,0.0,0.0,0.0,0.0,0.0,-0.0,-0.0,-0.0,0.0,-0.0,-0.0,-0.0,-0.0,-0.0,-0.0,-0.0,-0.0,-0.0,-0.0,-0.0,-0.0,-0.0,-0.0,-0.0,-0.0,-0.0,-0.0,0.0,-0.0,-0.0,-0.0,-0.0,-0.4312,-1.0503,-0.9966,-0.7582,-0.4888,-0.4818,-0.4795,-0.4797,-0.4795,-0.4794,-0.4794,-0.4794,-0.2613,-0.1521,-0.8548,-1.0144,-0.8898,-0.568,-0.4847,-0.5784,-0.9026,-0.9784,-0.9774,-0.9741,-0.9734,-0.9849,-0.9825,-0.9822,-0.9822,-0.9822,-0.9822,-0.9822,-0.9822,-0.9819,-0.9819,-0.9819,-0.9693,-0.9547,-0.9395,-0.9242,-0.9093,-0.895,-0.8798,-0.871,-0.871,-0.8435,-0.8272,-0.8272,-0.8123,-0.8038,-0.8038,-0.8038,-0.8038,-0.8038,-0.8038,-0.8038,-0.8038,-0.8038,-0.8038,-0.4298,-0.3773,-0.4552,-0.9466,-0.9875,-0.769,-0.2661,0.0,-0.1417,-0.212,-0.2248,-0.179,-0.0258,-0.0,-0.0,-0.0,-0.0,0.0,0.0,0.0,0.0,0.0,0.0,0.0,0.0,0.0,-0.0,-0.0,-0.0,-0.0,-0.0,-0.0,-0.0,-0.0,-0.0,-0.0,-0.0,-0.0,-0.0,-0.0,-0.0,-0.0,-0.0,-0.0,-0.0,-0.0,-0.0,-0.0,-0.0404,-0.5333,-0.7119,-0.6506,-0.4454,-0.5049,-0.7367,-0.9357,-0.937,-0.8292,-0.822,-0.8203,-0.8254,-0.8298,-0.8273,-0.8273,-0.8273,-0.6143,-0.4091,-0.6178,-0.8394,-0.9908,-0.8638,-0.8226,-0.8479,-0.9522,-0.9859,-0.9846,-0.9836,-0.9832,-0.9829,-0.9822,-0.9822,-0.9822,-0.9822,-0.9822,-0.9822,-0.9822,-0.9822,-0.9822,-0.9822,-0.9781,-0.9659,-0.9408,-0.9337,-0.9208,-0.896,-0.8896,-0.8866,-0.8866,-0.8581,-0.8414,-0.8414,-0.8174,-0.8038,-0.8038,-0.8038,-0.8038,-0.8038,-0.8038,-0.8038,-0.8038,-0.8038,-0.8038,0.0,-0.1252,-0.1089,-0.5506,-0.6623,0.0,0.0,0.0,-0.0,-0.0,-0.0,-0.0,-0.0,-0.0,-0.0,-0.0,-0.0,0.0,0.0,0.0,0.0,0.0,0.0,0.0,0.0,0.0,-0.0,-0.0,-0.0,-0.0,-0.0,-0.0,-0.0,-0.0,-0.0,-0.0,-0.0,-0.0,-0.0,-0.0,-0.0,-0.0,-0.0,-0.0,-0.0,-0.0,-0.0,-0.16,0.0,-0.8918,-1.0421,-0.9932,-0.7875,-0.7126,-0.7491,-0.9513,-1.0068,-1.0035,-0.9985,-0.9942,-0.9824,-0.9865,-0.9798,-0.9761,-0.9818,-0.8726,-0.7335,-0.694,-0.85,-1.0149,-0.9901,-0.9848,-0.9834,-0.9741,-0.9832,-0.9822,-0.9822,-0.9822,-0.9822,-0.9822,-0.9822,-0.9822,-0.9822,-0.9822,-0.9822,-0.9822,-0.9822,-0.9822,-0.9822,-0.9822,-0.973,-0.9493,-0.9415,-0.9283,-0.9039,-0.8967,-0.894,-0.894,-0.8652,-0.8482,-0.8482,-0.8197,-0.8038,-0.8038,-0.8038,-0.8038,-0.8038,-0.8038,-0.8038,-0.8038,-0.8038,-0.8038,0.0,-0.0,0.0,0.0,0.0,0.0,0.0,0.0,0.0,-0.0,-0.0,-0.0,-0.0,-0.0,-0.0,-0.0,0.0,0.0,0.0,0.0,0.0,0.0,0.0,0.0,0.0,0.0,-0.0,-0.0,-0.039,-0.0646,-0.0646,-0.0516,-0.0387,-0.0387,-0.0397,-0.0402,-0.0671,-0.053,-0.0397,-0.0402,-0.0397,-0.0395,-0.0394,-0.0394,-0.0394,0.0,-0.0389,-0.4194,0.0,-1.0518,-1.0709,-1.0548,-1.0019,-1.0052,-1.0297,-1.0163,-1.0153,-1.0263,-1.0253,-1.0151,-1.0032,-1.0032,-0.9937,-0.9846,-0.9988,-1.0294,-1.0572,-1.0169,-1.0029,-1.0109,-0.9952,-0.9927,-0.9822,-0.9822,-0.9822,-0.9822,-0.9822,-0.9822,-0.9822,-0.9822,-0.9822,-0.9822,-0.9822,-0.9822,-0.9822,-0.9822,-0.9822,-0.9822,-0.9822,-0.9822,-0.9764,-0.9608,-0.9466,-0.9313,-0.915,-0.9015,-0.894,-0.894,-0.8652,-0.8482,-0.8482,-0.8197,-0.8038,-0.8038,-0.8038,-0.8038,-0.8038,-0.8038,-0.8038,-0.8038,-0.8038,-0.8038,-0.1117,0.0,-0.0,-0.0,-0.0,-0.0,0.0,0.0,-0.0,-0.0,0.0,-0.0,-0.0,-0.0,-0.0,-0.0,0.0,0.0,0.0,0.0,0.0,0.0,0.0,0.0,0.0,0.0,-0.0,-0.0,-0.4655,-0.7503,-0.7503,-0.5149,-0.3727,-0.3727,-0.375,-0.4939,-0.7444,-0.5241,-0.4032,-0.3701,-0.3773,-0.3763,-0.3809,-0.3726,-0.3744,-0.3743,-0.3732,-0.4645,-0.6498,-0.9086,-1.0179,-1.0079,-1.0179,-1.0122,-1.011,-0.9985,-0.9982,-1.0086,-0.9968,-0.9907,-0.9876,-0.9876,-0.9849,-0.9829,-0.9863,-0.9907,-0.9971,-1.008,-0.9901,-0.9924,-0.9886,-0.9846,-0.9822,-0.9822,-0.9822,-0.9822,-0.9822,-0.9822,-0.9822,-0.9822,-0.9822,-0.9822,-0.9822,-0.9822,-0.9822,-0.9822,-0.9822,-0.9822,-0.9822,-0.9822,-0.9724,-0.9462,-0.9401,-0.9276,-0.9011,-0.8957,-0.894,-0.894,-0.8652,-0.8482,-0.8482,-0.8197,-0.8038,-0.8038,-0.8038,-0.8038,-0.8038,-0.8038,-0.8038,-0.8038,-0.8038,-0.8038,-0.0626,-0.0,-0.0,-0.0,-0.0,-0.0,0.0,0.0,0.0,0.0,0.0,0.0,0.0,0.0,0.0,0.0,-0.0,0.0,0.0,0.0,0.0,0.0,0.0,0.0,0.0,0.0,-0.1258,-0.4216,-0.777,-0.979,-0.978,-0.8095,-0.7193,-0.7193,-0.7183,-0.8004,-0.9838,-0.8263,-0.7446,-0.738,-0.7188,-0.716,-0.7178,-0.7107,-0.7134,-0.7131,-0.7086,-0.7243,-0.7451,-0.9333,-1.0066,-1.0045,-1.0171,-1.0124,-1.0049,-1.0049,-1.0049,-1.0046,-1.0036,-0.9985,-0.9914,-0.9842,-0.9822,-0.9822,-0.9822,-0.9822,-0.9839,-0.992,-0.9934,-0.991,-0.9839,-0.9822,-0.9822,-0.9822,-0.9822,-0.9822,-0.9822,-0.9822,-0.9822,-0.9822,-0.9822,-0.9822,-0.9822,-0.9822,-0.9822,-0.9822,-0.9822,-0.9822,-0.9822,-0.9822,-0.9758,-0.9598,-0.9462,-0.9317,-0.9154,-0.9015,-0.894,-0.894,-0.8652,-0.8482,-0.8482,-0.8197,-0.8038,-0.8038,-0.8038,-0.8038,-0.8038,-0.8038,-0.8038,-0.8038,-0.8038,-0.8038,-0.0,-0.0,-0.0,-0.0,-0.0,-0.0,-0.0,0.0,0.0,0.0,0.0,0.0,0.0,-0.0,0.0,0.0,0.0,0.0,0.0,0.0,0.0,0.0,0.0,0.0,0.0,-0.0749,-0.3101,-0.8583,-0.95,-0.9794,-0.9777,-0.9771,-0.9771,-0.9771,-0.9744,-0.9858,-0.9745,-0.9777,-0.9906,-1.0266,-0.9903,-0.984,-0.9817,-0.9817,-0.9817,-0.981,0.0,0.0,-1.0099,-1.01,-1.011,-1.0198,-1.0066,-1.0015,-1.0015,-1.0015,-1.0015,-1.0032,-1.0164,-1.0124,-0.9992,-0.9863,-0.9822,-0.9822,-0.9822,-0.9822,-0.9822,-0.9822,-0.9914,-0.9985,-0.9852,-0.9822,-0.9822,-0.9822,-0.9822,-0.9822,-0.9822,-0.9822,-0.9822,-0.9822,-0.9822,-0.9822,-0.9822,-0.9822,-0.9822,-0.9822,-0.9822,-0.9822,-0.9822,-0.9822,-0.9812,-0.9791,-0.9564,-0.9398,-0.9351,-0.9117,-0.896,-0.894,-0.8672,-0.8496,-0.8452,-0.8187,-0.8038,-0.8038,-0.8038,-0.8038,-0.8038,-0.8038,-0.8038,-0.8038,-0.8038,-0.8052,-0.0,-0.0,-0.0,-0.0,-0.0,-0.0,-0.0,0.0,0.0,0.0,0.0,0.0,0.0,-0.0,-0.0,0.0,0.0,-0.0,0.0,0.0,-0.8311,-0.829,0.0,0.0,0.0,0.0,-0.4556,-0.5557,-0.8267,-0.9744,-0.9741,-0.9846,-0.9836,-0.9836,-0.9829,-0.9849,-0.9777,-0.9881,-0.9881,-0.9903,-0.9885,-0.9868,-0.9744,-0.9744,-0.9744,-0.9741,0.0,-0.9856,-0.9893,-0.9873,-0.9873,-0.989,-0.9866,-0.9856,-0.9856,-0.9856,-0.9856,-0.9859,-0.9883,-0.9876,-0.9852,-0.9829,-0.9822,-0.9822,-0.9822,-0.9822,-0.9822,-0.9822,-0.9839,-0.9849,-0.9825,-0.9822,-0.9822,-0.9822,-0.9822,-0.9822,-0.9822,-0.9822,-0.9822,-0.9822,-0.9822,-0.9822,-0.9822,-0.9822,-0.9822,-0.9822,-0.9822,-0.9822,-0.9822,-0.9822,-0.9774,-0.9656,-0.9602,-0.9469,-0.9211,-0.9147,-0.9069,-0.8947,-0.8774,-0.8564,-0.8313,-0.8133,-0.8038,-0.8038,-0.8038,-0.8038,-0.8038,-0.8038,-0.8038,-0.8038,-0.8038,-0.8109,-0.0,-0.0,-0.0,-0.0,-0.0,-0.0,-0.0,0.0,0.0,0.0,0.0,0.0,0.0,0.0,-0.3993,-0.2819,0.0,-0.4725,-0.2921,-0.5209,-0.78,0.0,0.0,0.0,0.0,0.0,-0.7518,-0.7505,-0.8799,-0.9647,-0.9832,-0.9676,-0.9622,-0.9703,-0.9625,-0.9625,-0.9707,-0.9778,-0.9815,-0.9822,-0.9893,-0.989,-0.9822,-0.9822,-0.9822,-0.9822,0.0,-0.9822,-0.9822,-0.9822,-0.9822,-0.9822,-0.9822,-0.9822,-0.9822,-0.9822,-0.9822,-0.9822,-0.9822,-0.9822,-0.9822,-0.9822,-0.9822,-0.9822,-0.9822,-0.9822,-0.9822,-0.9822,-0.988,-0.9924,-0.9842,-0.9883,-0.9924,-0.9839,-0.9822,-0.9822,-0.9822,-0.9822,-0.9822,-0.9822,-0.9822,-0.9822,-0.9822,-0.9822,-0.9822,-0.9822,-0.9822,-0.9822,-0.9822,-0.9822,-0.9795,-0.973,-0.9581,-0.9429,-0.9289,-0.913,-0.8974,-0.8825,-0.875,-0.8577,-0.8282,-0.8204,-0.8126,-0.8041,-0.8038,-0.8038,-0.8038,-0.8038,-0.8038,-0.8041,-0.8126,-0.8204,-0.0,-0.0,-0.0,-0.0,0.0,-0.0,-0.0,0.0,0.0,0.0,0.0,0.0,0.0,0.0,0.0,-0.5179,-0.7608,-0.8906,-0.6434,-0.6012,-0.7018,-0.9513,-0.9756,0.0,0.0,0.0,-0.965,-0.9747,-0.9523,-0.9499,-0.9713,-0.9503,-0.9435,-0.9551,-0.9442,-0.9439,-0.9554,-0.9557,-0.9646,-0.9822,-0.9822,-0.9822,-0.9822,-0.9822,-0.9822,-0.9822,-0.9822,-0.9822,-0.9822,-0.9822,-0.9822,-0.9822,-0.9822,-0.9822,-0.9822,-0.9822,-0.9822,-0.9822,-0.9822,-0.9822,-0.9822,-0.9822,-0.9822,-0.9822,-0.9822,-0.9822,-0.9822,-0.9822,-0.993,-1.0015,-0.9863,-0.991,-0.9968,-0.9849,-0.9822,-0.9822,-0.9822,-0.9822,-0.9822,-0.9822,-0.9822,-0.9822,-0.9822,-0.9822,-0.9822,-0.9822,-0.9822,-0.9822,-0.9822,-0.9822,-0.9822,-0.9822,-0.9618,-0.9456,-0.9388,-0.911,-0.8889,-0.8771,-0.873,-0.8608,-0.8384,-0.8306,-0.8228,-0.8143,-0.8109,-0.8109,-0.8143,-0.8143,-0.8143,-0.8147,-0.8265,-0.834,-0.0,-0.0,-0.0,-0.0,-0.0,0.0,-0.0,-0.3859,0.0,-0.745,0.0,0.0,0.0,-0.6392,-0.7596,-0.4918,-0.7505,-0.9662,-0.9497,0.0,-0.9533,-0.9808,-0.9693,-0.9605,-0.9629,-0.9503,-0.9418,-0.9415,-0.9405,-0.9405,-0.9412,-0.9395,-0.9388,-0.9398,-0.9388,-0.9388,-0.9398,-0.9398,-0.954,-0.9822,-0.9822,-0.9822,-0.9822,-0.9822,-0.9822,-0.9822,-0.9822,-0.9822,-0.9822,-0.9822,-0.9822,-0.9822,-0.9822,-0.9822,-0.9822,-0.9822,-0.9822,-0.9822,-0.9822,-0.9822,-0.9822,-0.9822,-0.9822,-0.9822,-0.9822,-0.9822,-0.9822,-0.9822,-0.993,-1.0015,-0.9863,-0.9829,-0.9836,-0.9822,-0.9822,-0.9822,-0.9822,-0.9822,-0.9822,-0.9822,-0.9822,-0.9822,-0.9822,-0.9822,-0.9822,-0.9822,-0.9822,-0.9822,-0.9822,-0.9822,-0.9822,-0.9822,-0.9802,-0.968,-0.9405,-0.911,-0.8933,-0.8923,-0.8791,-0.8703,-0.8679,-0.8418,-0.8326,-0.8448,-0.8323,-0.8319,-0.8448,-0.8448,-0.8448,-0.8448,-0.8462,-0.8543,-0.0,-0.0,-0.0,-0.0,0.0,0.0,0.0,-0.6508,-0.7467,-0.5652,-0.6752,0.0,0.0,0.0,-0.7662,-0.7035,-0.8256,-0.9345,-0.9617,-0.9631,-0.9537,-0.9686,-0.9564,-0.9466,-0.9466,-0.9415,-0.9381,-0.9381,-0.9293,-0.9283,-0.9374,-0.9205,-0.9147,-0.9239,-0.9154,-0.915,-0.9239,-0.9239,-0.9344,-0.9547,-0.9547,-0.9547,-0.9551,-0.9646,-0.9639,-0.9557,-0.9741,-0.9771,-0.969,-0.969,-0.969,-0.969,-0.969,-0.969,-0.97,-0.9788,-0.9764,-0.9703,-0.9791,-0.9764,-0.9703,-0.9791,-0.9822,-0.9822,-0.9822,-0.9822,-0.9822,-0.9822,-0.9863,-0.9893,-0.9836,-0.989,-0.9937,-0.9842,-0.9822,-0.9822,-0.9822,-0.9822,-0.9822,-0.9822,-0.9822,-0.9822,-0.9822,-0.9822,-0.9822,-0.9822,-0.9822,-0.9822,-0.9822,-0.9822,-0.9822,-0.9822,-0.9656,-0.9503,-0.9391,-0.911,-0.9018,-0.9201,-0.8988,-0.8811,-0.8713,-0.8604,-0.8523,-0.8482,-0.8428,-0.8428,-0.8482,-0.8482,-0.8482,-0.8482,-0.8581,-0.8655,-0.1176,-0.094,-0.094,0.0,0.0,0.0,-0.7486,-0.7871,-0.7403,-0.5504,-0.6623,0.0,0.0,0.0,0.0,0.0,-0.8723,-0.9079,-0.9418,-0.9415,-0.9418,-0.9523,-0.9401,-0.931,-0.931,-0.9269,-0.9222,-0.9174,-0.9072,-0.9039,-0.9093,-0.895,-0.891,-0.9008,-0.8964,-0.8984,-0.9086,-0.9086,-0.9137,-0.9242,-0.9242,-0.9289,-0.9384,-0.949,-0.9479,-0.9391,-0.9595,-0.9629,-0.9537,-0.9537,-0.9537,-0.9544,-0.9591,-0.9608,-0.9629,-0.9768,-0.9758,-0.969,-0.9788,-0.9758,-0.9693,-0.9788,-0.9822,-0.9822,-0.9822,-0.9822,-0.9822,-0.9822,-0.9822,-0.9822,-0.9822,-0.9897,-0.9951,-0.9846,-0.9822,-0.9822,-0.9822,-0.9822,-0.9822,-0.9822,-0.9822,-0.9822,-0.9822,-0.9822,-0.9822,-0.9822,-0.9822,-0.9822,-0.9822,-0.9822,-0.9822,-0.9822,-0.9602,-0.9452,-0.9452,-0.9225,-0.9164,-0.9367,-0.9147,-0.896,-0.8852,-0.876,-0.8682,-0.8628,-0.8577,-0.8577,-0.8625,-0.8625,-0.8625,-0.8628,-0.8733,-0.8781,-0.3679,-0.3124,0.0,0.0,0.0,0.0,-0.6809,-0.7738,-0.8066,-0.8237,0.0,-0.7862,-0.8011,0.0,0.0,-0.8221,-0.8645,-0.8988,-0.9133,-0.9283,-0.9374,-0.9381,-0.9242,-0.915,-0.915,-0.9022,-0.8872,-0.872,-0.871,-0.8642,-0.8489,-0.8625,-0.871,-0.871,-0.8855,-0.8933,-0.8933,-0.8933,-0.8933,-0.8933,-0.8933,-0.9089,-0.9378,-0.9378,-0.9378,-0.9378,-0.9381,-0.9381,-0.9381,-0.9381,-0.9378,-0.9391,-0.9547,-0.9608,-0.9625,-0.9768,-0.9822,-0.9819,-0.9822,-0.9819,-0.9819,-0.9822,-0.9822,-0.9822,-0.9822,-0.9822,-0.9822,-0.9822,-0.9822,-0.9822,-0.9822,-0.9822,-0.9822,-0.9822,-0.9822,-0.9822,-0.9822,-0.9822,-0.9822,-0.9822,-0.9822,-0.9822,-0.9822,-0.9822,-0.9822,-0.9822,-0.9822,-0.9822,-0.9822,-0.9822,-0.9822,-0.9822,-0.9693,-0.9608,-0.9612,-0.9469,-0.9381,-0.9384,-0.9239,-0.9154,-0.9154,-0.8869,-0.8784,-0.8933,-0.8791,-0.8788,-0.894,-0.894,-0.894,-0.894,-0.894,-0.894,-0.5497,0.0,0.0,-0.5613,0.0,0.0,0.0,-0.762,0.0,0.0,0.0,-0.7984,-0.8031,0.0,0.0,-0.8255,-0.8557,-0.8866,-0.9117,-0.9011,-0.8984,-0.9198,-0.8998,-0.8842,-0.8842,-0.8804,-0.8713,-0.856,-0.855,-0.853,-0.8482,-0.8526,-0.855,-0.855,-0.8594,-0.8618,-0.8618,-0.8618,-0.8618,-0.8618,-0.8618,-0.8774,-0.9072,-0.9174,-0.9167,-0.9083,-0.9289,-0.932,-0.9222,-0.9222,-0.9161,-0.9093,-0.9351,-0.9449,-0.9479,-0.973,-0.9758,-0.9686,-0.9785,-0.9754,-0.969,-0.9788,-0.9822,-0.9822,-0.9822,-0.9822,-0.9822,-0.9822,-0.9822,-0.9822,-0.9822,-0.9822,-0.9822,-0.9822,-0.9822,-0.9822,-0.9822,-0.9822,-0.9822,-0.9822,-0.9822,-0.9822,-0.9822,-0.9822,-0.9822,-0.9822,-0.9822,-0.9822,-0.9822,-0.9822,-0.9822,-0.9822,-0.9693,-0.9649,-0.9751,-0.9527,-0.9425,-0.9537,-0.9296,-0.9154,-0.9154,-0.8971,-0.8893,-0.8937,-0.8896,-0.8893,-0.894,-0.894,-0.894,-0.894,-0.894,-0.894,-0.6352,0.0,0.0,-0.664,-0.6826,-0.7076,-0.757,0.0,0.0,0.0,0.0,-0.8058,-0.8119,-0.8109,0.0,-0.8252,-0.8421,-0.8618,-0.8852,-0.8733,-0.8686,-0.8866,-0.873,-0.8618,-0.8618,-0.8618,-0.8557,-0.8411,-0.8397,-0.837,-0.8309,-0.8367,-0.8397,-0.8397,-0.8452,-0.8482,-0.8482,-0.8482,-0.8482,-0.8482,-0.8482,-0.8577,-0.876,-0.8849,-0.8872,-0.8862,-0.9103,-0.9154,-0.9066,-0.9066,-0.9018,-0.896,-0.9198,-0.9289,-0.932,-0.9557,-0.9591,-0.953,-0.9615,-0.9632,-0.9625,-0.971,-0.9774,-0.9822,-0.9822,-0.9822,-0.9822,-0.9822,-0.9822,-0.9822,-0.9822,-0.9822,-0.9822,-0.9822,-0.9822,-0.9822,-0.9822,-0.9822,-0.9822,-0.9822,-0.9822,-0.9822,-0.9822,-0.9822,-0.9822,-0.9822,-0.9822,-0.9822,-0.9822,-0.9822,-0.9822,-0.9822,-0.9744,-0.9727,-0.9815,-0.9656,-0.9571,-0.9608,-0.9381,-0.9215,-0.9154,-0.9015,-0.894,-0.894,-0.894,-0.894,-0.894,-0.894,-0.894,-0.894,-0.894,-0.894,-0.6437,0.0,0.0,-0.6695,-0.6973,0.0,-0.7573,-0.7957,-0.8248,-0.8248,0.0,-0.8102,-0.8245,-0.8041,-0.7946,-0.8225,-0.8282,-0.8333,-0.8465,-0.8472,-0.8469,-0.8479,-0.8472,-0.8462,-0.8462,-0.8462,-0.8404,-0.8258,-0.8248,-0.8187,-0.8045,-0.8174,-0.8248,-0.8248,-0.8374,-0.8442,-0.8442,-0.8442,-0.8442,-0.8442,-0.8442,-0.8442,-0.8442,-0.8469,-0.8557,-0.8699,-0.8835,-0.8906,-0.8916,-0.8916,-0.8927,-0.8954,-0.9096,-0.9154,-0.9171,-0.9323,-0.9381,-0.9381,-0.9381,-0.9473,-0.9591,-0.9605,-0.9696,-0.9802,-0.9819,-0.9822,-0.9822,-0.9822,-0.9822,-0.9822,-0.9822,-0.9812,-0.9805,-0.9819,-0.9822,-0.9822,-0.9822,-0.9822,-0.9822,-0.9822,-0.9822,-0.9822,-0.9822,-0.9822,-0.9822,-0.9822,-0.9822,-0.9822,-0.9822,-0.9822,-0.9822,-0.9822,-0.9822,-0.9822,-0.9822,-0.9822,-0.9754,-0.9598,-0.9459,-0.9306,-0.914,-0.9008,-0.894,-0.894,-0.894,-0.894,-0.894,-0.894,-0.894,-0.894,-0.894,-0.894,0.0,-0.6471,0.0,0.0,-0.736,-0.7716,-0.7902,-0.8021,-0.8089,-0.8089,-0.816,-0.8231,-0.8265,-0.8214,-0.8194,-0.8258,-0.8364,-0.8445,-0.8479,-0.8387,-0.8357,-0.8469,-0.8384,-0.8316,-0.8316,-0.8316,-0.8252,-0.8099,-0.8089,-0.8075,-0.8041,-0.8072,-0.8089,-0.8089,-0.8119,-0.8136,-0.8136,-0.8136,-0.8136,0.0,-0.8136,-0.8136,-0.8143,-0.8377,-0.8499,-0.8533,-0.8567,-0.8648,-0.876,-0.876,-0.8828,-0.8954,-0.9096,-0.9154,-0.9171,-0.9323,-0.9381,-0.9381,-0.9381,-0.9401,-0.9449,-0.9571,-0.9632,-0.9676,-0.9788,-0.9822,-0.9822,-0.9822,-0.9822,-0.9822,-0.9822,-0.9737,-0.9683,-0.9795,-0.9822,-0.9822,-0.9822,-0.9822,-0.9822,-0.9822,-0.9822,-0.9822,-0.9822,-0.9822,-0.9822,-0.9822,-0.9822,-0.9822,-0.9822,-0.9822,-0.9822,-0.9822,-0.9822,-0.9822,-0.9822,-0.9822,-0.9707,-0.9445,-0.9398,-0.9262,-0.8994,-0.8954,-0.894,-0.894,-0.894,-0.894,-0.894,-0.894,-0.894,-0.894,-0.894,-0.894,0.0,0.0,0.0,0.0,0.0,0.0,-0.7987,-0.8038,-0.8038,-0.8038,-0.8102,-0.816,-0.816,-0.816,-0.816,-0.816,-0.8221,-0.8269,-0.8269,-0.8208,-0.8187,-0.8262,-0.8204,-0.816,-0.816,-0.816,-0.8126,-0.8045,-0.8038,-0.8038,-0.8038,-0.8038,-0.8038,-0.8038,-0.8038,-0.8038,-0.8038,-0.8038,-0.8038,-0.8038,-0.8038,-0.8038,-0.8045,-0.8275,-0.8381,-0.8384,-0.8452,-0.8526,-0.8601,-0.8601,-0.8648,-0.8726,-0.8804,-0.8876,-0.895,-0.9028,-0.9106,-0.9167,-0.9167,-0.9215,-0.9286,-0.9364,-0.9442,-0.9513,-0.9588,-0.9608,-0.9625,-0.97,-0.972,-0.9734,-0.9802,-0.9768,-0.971,-0.972,-0.972,-0.9737,-0.9805,-0.9822,-0.9822,-0.9822,-0.9822,-0.9822,-0.9822,-0.9822,-0.9822,-0.9822,-0.9822,-0.9822,-0.9822,-0.9822,-0.9822,-0.9822,-0.9822,-0.9822,-0.9822,-0.9758,-0.9622,-0.9395,-0.9313,-0.9171,-0.8947,-0.894,-0.894,-0.894,-0.894,-0.894,-0.894,-0.894,-0.894,-0.894,-0.894,-0.894,0.0,0.0,0.0,0.0,0.0,0.0,-0.794,-0.798,-0.7977,-0.8028,-0.8038,-0.8038,-0.8038,-0.8038,-0.8038,-0.8038,-0.8038,-0.8038,-0.8038,-0.8038,-0.8038,-0.8038,-0.8038,-0.8038,-0.8038,-0.8038,-0.8038,-0.8038,-0.8038,-0.8038,-0.8038,-0.8038,-0.8038,-0.8038,-0.8038,-0.8038,-0.8038,-0.8038,-0.8038,-0.8038,-0.8038,-0.8038,-0.8041,-0.8174,-0.8231,-0.8238,-0.8353,-0.8421,-0.8445,-0.8445,-0.8459,-0.8482,-0.8482,-0.856,-0.8672,-0.8672,-0.8767,-0.8899,-0.8899,-0.8994,-0.912,-0.9144,-0.9239,-0.9347,-0.9371,-0.9381,-0.9412,-0.9564,-0.9608,-0.9642,-0.9785,-0.9802,-0.9761,-0.9666,-0.9608,-0.9608,-0.9754,-0.9802,-0.9822,-0.9822,-0.9822,-0.9822,-0.9822,-0.9822,-0.9822,-0.9822,-0.9822,-0.9822,-0.9822,-0.9822,-0.9822,-0.9822,-0.9822,-0.9822,-0.9822,-0.9713,-0.9571,-0.9391,-0.9262,-0.9117,-0.8947,-0.894,-0.894,-0.894,-0.894,-0.894,-0.894,-0.894,-0.894,-0.894,-0.894,-0.894,0.0,0.0,0.0,0.0,0.0,-0.7641,0.0,0.0,-0.7733,0.0,-0.8038,-0.8038,-0.8038,-0.8038,-0.8038,-0.8038,-0.8038,-0.8038,-0.8038,-0.8038,-0.8038,-0.8038,-0.8038,-0.8038,-0.8038,-0.8038,-0.8038,-0.8038,-0.8038,-0.8038,-0.8038,-0.8038,-0.8038,-0.8038,-0.8038,-0.8038,-0.8038,-0.8038,-0.8038,-0.8038,-0.8038,-0.8038,-0.8038,-0.8062,-0.8069,-0.8072,-0.8092,-0.8174,-0.8299,-0.8299,-0.837,-0.8482,-0.8482,-0.8496,-0.8513,-0.8513,-0.8611,-0.874,-0.874,-0.8842,-0.8988,-0.9113,-0.9167,-0.9208,-0.934,-0.9381,-0.9412,-0.9564,-0.9608,-0.9642,-0.9785,-0.973,-0.9663,-0.9768,-0.9598,-0.9452,-0.9605,-0.9734,-0.9822,-0.9822,-0.9822,-0.9822,-0.9822,-0.9822,-0.9822,-0.9822,-0.9822,-0.9822,-0.9822,-0.9822,-0.9822,-0.9822,-0.9822,-0.9822,-0.9822,-0.9802,-0.9676,-0.9398,-0.9361,-0.9228,-0.895,-0.894,-0.894,-0.894,-0.894,-0.894,-0.894,-0.894,-0.894,-0.894,-0.894,-0.894,-0.6434,0.0,0.0,0.0,0.0,0.0,-0.7658,0.0,-0.7638,-0.7767,-0.7794,-0.7845,-0.8011,-0.8038,-0.8038,-0.8038,-0.8038,-0.8038,-0.8038,-0.8038,-0.8038,-0.8038,-0.8038,-0.8038,-0.8038,-0.8038,-0.8333,-0.9019,-0.9118,-0.9118,-0.9118,-0.9118,-0.8825,-0.8038,-0.8038,-0.8038,-0.8038,-0.8038,-0.8038,-0.8038,-0.8038,-0.8038,-0.8038,-0.8038,-0.8038,-0.8038,-0.8038,-0.8079,-0.814,-0.814,-0.8177,-0.8235,-0.8235,-0.8289,-0.8364,-0.8364,-0.8459,-0.8594,-0.8679,-0.8754,-0.8835,-0.8984,-0.9032,-0.9045,-0.9113,-0.9133,-0.9164,-0.9313,-0.9354,-0.9388,-0.9537,-0.953,-0.9476,-0.9452,-0.9479,-0.9483,-0.9374,-0.9537,-0.9727,-0.9805,-0.9822,-0.9822,-0.9822,-0.9822,-0.9822,-0.9822,-0.9822,-0.9822,-0.9822,-0.9822,-0.9822,-0.9822,-0.9822,-0.9822,-0.9822,-0.9747,-0.9608,-0.9395,-0.93,-0.9157,-0.8947,-0.894,-0.894,-0.894,-0.894,-0.894,-0.894,-0.894,-0.894,-0.894,-0.894,-0.894,0.0,0.0,0.0,0.0,0.0,0.0,0.0,0.0,-0.7873,0.0,-0.7567,-0.7712,-0.8261,-0.815,-0.798,-0.798,-0.8014,-0.8038,-0.8038,-0.8038,-0.8038,-0.8038,-0.8038,-0.8038,-0.8038,-0.8038,-0.8528,-0.9903,-0.9706,-0.9801,-1.0485,-1.0194,-0.9509,-0.8531,-0.8528,-0.8333,-0.8038,-0.8038,-0.8038,-0.8038,-0.8038,-0.8038,-0.8038,-0.8038,-0.8038,-0.8038,-0.8038,-0.8038,-0.8038,-0.8038,-0.8038,-0.8038,-0.8038,-0.8109,-0.8211,-0.8211,-0.8303,-0.8445,-0.856,-0.8621,-0.8672,-0.8784,-0.8849,-0.8879,-0.8879,-0.8906,-0.8967,-0.9113,-0.9154,-0.9188,-0.934,-0.9381,-0.9354,-0.9239,-0.9354,-0.9462,-0.9347,-0.9473,-0.9652,-0.9791,-0.9822,-0.9822,-0.9822,-0.9822,-0.9822,-0.9822,-0.9822,-0.9822,-0.9822,-0.9822,-0.9822,-0.9822,-0.9822,-0.9822,-0.9822,-0.9724,-0.9585,-0.9395,-0.9273,-0.913,-0.8947,-0.894,-0.894,-0.894,-0.894,-0.894,-0.894,-0.894,-0.894,-0.894,-0.894,-0.894,0.0,0.0,0.0,0.0,0.0,0.0,0.0,0.0,0.0,0.0,-0.7485,-0.7795,-0.8971,-0.8482,-0.7824,-0.7824,-0.7943,-0.8038,-0.8038,-0.8038,-0.8038,-0.8038,-0.8038,-0.8038,-0.8038,-0.8038,-0.8528,-0.9903,-0.8821,-0.9217,-1.1653,-1.0681,-0.9998,-0.9903,-0.9903,-0.9316,-0.8038,-0.8038,-0.8038,-0.8038,-0.8038,-0.8038,-0.8038,-0.8038,-0.8038,-0.8038,-0.8038,-0.8038,-0.8038,-0.8038,-0.8038,-0.8038,-0.8038,-0.8045,-0.8052,-0.8052,-0.815,-0.8282,-0.8289,-0.8381,-0.8496,-0.8503,-0.8604,-0.8723,-0.8723,-0.8821,-0.8967,-0.9113,-0.9154,-0.9188,-0.934,-0.9381,-0.9381,-0.9371,-0.9269,-0.9289,-0.9696,-0.9693,-0.9652,-0.9791,-0.9822,-0.9822,-0.9822,-0.9822,-0.9822,-0.9822,-0.9822,-0.9822,-0.9822,-0.9822,-0.9822,-0.9822,-0.9822,-0.9822,-0.9822,-0.9815,-0.9686,-0.9398,-0.9374,-0.9239,-0.895,-0.894,-0.894,-0.894,-0.894,-0.894,-0.894,-0.894,-0.894,-0.894,-0.894,-0.894,0.0,0.0,0.0,0.0,-0.7525,-0.833,0.0,-0.9013,-0.9719,-0.9557,-0.9469,-0.9614,-1.0037,-0.9417,-0.8789,-0.8789,-0.8843,-0.8604,-0.7852,-0.7756,-0.8041,-0.8791,-0.8787,-0.9208,-1.0175,-1.0285,-1.0913,-1.241,-1.2032,-1.2226,-1.3102,-1.2716,-1.2134,-1.1263,-1.1268,-1.0583,-0.9316,-0.8432,-0.8038,-0.8038,-0.8038,-0.8038,-0.8038,-0.8038,-0.8038,-0.8038,-0.8038,-0.8038,-0.8038,-0.8038,-0.8038,-0.8038,-0.8038,-0.8038,-0.8038,-0.8038,-0.8075,-0.8136,-0.8238,-0.8303,-0.836,-0.8452,-0.852,-0.8581,-0.8679,-0.875,-0.8821,-0.8974,-0.9015,-0.9028,-0.9083,-0.91,-0.912,-0.9211,-0.9123,-0.911,-0.9462,-0.9578,-0.9595,-0.9547,-0.969,-0.9791,-0.97,-0.9761,-0.9822,-0.9822,-0.9822,-0.9822,-0.9822,-0.9822,-0.9785,-0.9693,-0.9768,-0.9785,-0.9693,-0.9768,-0.9693,-0.9401,-0.9381,-0.9249,-0.895,-0.894,-0.894,-0.894,-0.894,-0.894,-0.894,-0.894,-0.894,-0.894,-0.894,-0.894,-0.6947,0.0,0.0,0.0,0.0,-0.9175,-0.905,0.0,-1.0742,-1.0469,-1.056,-1.0697,-1.1123,-1.0671,-1.0171,-0.988,-0.9486,-0.9072,-0.8243,-0.8149,-0.8426,-0.9254,-0.9617,-1.0311,-1.1288,-1.1392,-1.202,-1.3508,-1.3311,0.0,-1.4196,-1.3892,-1.3328,-1.2294,-1.198,-1.1347,-1.048,-0.9284,-0.8627,-0.8627,-0.8237,-0.8038,-0.8038,-0.8038,-0.8038,-0.8038,-0.8038,-0.8038,-0.8038,-0.8038,-0.8038,-0.8038,-0.8038,-0.8038,-0.8038,-0.8038,-0.8038,-0.8055,-0.8157,-0.8194,-0.8208,-0.8303,-0.837,-0.8431,-0.8533,-0.8632,-0.873,-0.8832,-0.8899,-0.894,-0.894,-0.894,-0.896,-0.9059,-0.9008,-0.8994,-0.9191,-0.9351,-0.9442,-0.9391,-0.954,-0.9659,-0.9615,-0.9686,-0.9768,-0.9815,-0.9822,-0.9822,-0.9822,-0.9778,-0.9713,-0.9618,-0.9649,-0.9635,-0.954,-0.9618,-0.9568,-0.932,-0.9303,-0.9195,-0.895,-0.894,-0.894,-0.894,-0.894,-0.894,-0.894,-0.894,-0.894,-0.894,-0.894,-0.894,0.0,0.0,0.0,0.0,0.0,0.0,-0.9973,0.0,-1.1598,-1.0533,-1.0539,-1.1031,-1.2151,-1.2328,-1.2066,-1.1076,-1.0031,-0.9418,-0.9326,-0.9326,-0.933,-0.9418,-1.0426,-1.1161,-1.1166,-1.1171,-1.172,-1.2927,-1.2122,-1.262,-1.4887,-1.4001,-1.3361,-1.3115,-1.2035,-1.1492,-1.1492,-1.0471,-0.9989,-0.9891,-0.8619,-0.8031,-0.8031,-0.8028,-0.8028,-0.8028,-0.8031,-0.8031,-0.8031,-0.8038,-0.8038,-0.8038,-0.8038,-0.8038,-0.8038,-0.8038,-0.8038,-0.8038,-0.8038,-0.8038,-0.8038,-0.8038,-0.814,-0.8265,-0.8269,-0.8472,-0.8699,-0.8703,-0.8811,-0.8927,-0.893,-0.8933,-0.894,-0.894,-0.894,-0.894,-0.894,-0.9049,-0.9191,-0.934,-0.9374,-0.9429,-0.9578,-0.9605,-0.9656,-0.9798,-0.9822,-0.9822,-0.9822,-0.9696,-0.9608,-0.9602,-0.9469,-0.9381,-0.9374,-0.9381,-0.9317,-0.9164,-0.9154,-0.9089,-0.8944,-0.894,-0.894,-0.894,-0.894,-0.894,-0.894,-0.894,-0.894,-0.894,-0.894,-0.894,-0.9702,0.0,0.0,0.0,0.0,0.0,0.0,0.0,0.0,-1.2631,-1.2692,-1.2971,-1.3522,-1.3561,-1.3496,-1.323,-1.2244,-1.1138,-1.0353,-1.0264,-1.0529,-1.1401,-1.175,-1.2353,-1.3447,-1.3554,-1.3818,0.0,-1.4198,-1.4301,-1.497,-1.476,-1.4488,-1.4411,-1.3271,-1.2194,-1.1369,-1.0174,-0.922,-0.8452,-0.8067,-0.7875,-0.7872,-0.777,-0.7723,-0.7726,-0.7831,-0.7875,-0.7882,-0.7994,-0.8038,-0.8038,-0.8038,-0.8038,-0.8038,-0.8038,-0.8038,-0.8038,-0.8038,-0.8038,-0.8038,-0.8038,-0.8069,-0.8126,-0.8238,-0.8326,-0.8414,-0.8516,-0.8574,-0.8632,-0.8747,-0.8855,-0.894,-0.894,-0.894,-0.894,-0.894,-0.8967,-0.9011,-0.9052,-0.9235,-0.9395,-0.9439,-0.9537,-0.9656,-0.9798,-0.9822,-0.9822,-0.9822,-0.9696,-0.9568,-0.9456,-0.9405,-0.9337,-0.9225,-0.9317,-0.9317,-0.9164,-0.9154,-0.9089,-0.8944,-0.894,-0.894,-0.894,-0.894,-0.894,-0.894,-0.894,-0.894,-0.894,-0.894,-0.894,0.0,0.0,0.0,0.0,0.0,0.0,-1.167,-1.2272,-1.2879,0.0,-1.3561,-1.3734,-1.4035,-1.4088,-1.4088,-1.4088,-1.347,-1.2681,-1.1472,-1.1295,-1.1552,-1.2237,-1.2766,-1.3357,-1.4236,-1.4342,-1.4409,-1.4583,-1.471,-1.4776,-1.4776,-1.4663,-1.4596,-1.4596,-1.3983,-1.3314,-1.2687,-1.1086,-0.9883,-0.9222,-0.8193,-0.7723,-0.7719,-0.7638,-0.76,-0.7604,-0.7689,-0.7723,-0.7733,-0.7882,-0.798,-0.8038,-0.8038,-0.8038,-0.8038,-0.8038,-0.8038,-0.8038,-0.8038,-0.8038,-0.8038,-0.8038,-0.8038,-0.8055,-0.8147,-0.8218,-0.8289,-0.837,-0.8482,-0.8584,-0.8608,-0.8774,-0.8906,-0.8777,-0.8798,-0.8825,-0.876,-0.875,-0.8784,-0.8913,-0.9079,-0.9215,-0.9276,-0.9361,-0.949,-0.97,-0.968,-0.9659,-0.9724,-0.9551,-0.9384,-0.9296,-0.9232,-0.9161,-0.9069,-0.9144,-0.9157,-0.9069,-0.9062,-0.9025,-0.8944,-0.894,-0.894,-0.894,-0.894,-0.894,-0.894,-0.894,-0.894,-0.894,-0.894,-0.894,0.0,0.0,0.0,0.0,0.0,0.0,-1.2418,-1.2532,-1.2786,-1.3093,-1.336,-1.3634,-1.3935,-1.3988,-1.3988,-1.3988,-1.4015,-1.3698,-1.2674,-1.2504,-1.2504,-1.2504,-1.347,-1.4088,-1.4088,-1.4088,-1.4088,-1.4088,-1.4322,-1.4476,-1.4476,-1.4229,-1.4088,-1.4088,-1.4335,-1.4295,-1.4115,-1.222,-1.1151,-1.0876,-0.8586,-0.7577,-0.7573,-0.7556,-0.755,-0.755,-0.7567,-0.7577,-0.7587,-0.7729,-0.7879,-0.8018,-0.8031,-0.8038,-0.8038,-0.8038,-0.8038,-0.8038,-0.8038,-0.8038,-0.8038,-0.8038,-0.8038,-0.8038,-0.8038,-0.8136,-0.8245,-0.8245,-0.8445,-0.8628,-0.8492,-0.8672,-0.8818,-0.8547,-0.8584,-0.8648,-0.8513,-0.8482,-0.8564,-0.8835,-0.8903,-0.8964,-0.9123,-0.9154,-0.9252,-0.954,-0.9469,-0.9432,-0.9568,-0.9334,-0.9154,-0.9154,-0.9025,-0.894,-0.894,-0.894,-0.894,-0.894,-0.894,-0.894,-0.894,-0.894,-0.894,-0.894,-0.894,-0.894,-0.894,-0.894,-0.894,-0.894,-0.894,-0.894,0.0,0.0,0.0,0.0,0.0,0.0,-1.2808,-1.2518,-1.2478,0.0,-1.2879,-1.3013,-1.3327,-1.338,-1.338,-1.338,-1.3581,-1.3725,-1.3704,-1.3737,-1.3737,-1.3737,-1.3997,-1.4088,-1.4088,-1.4088,-1.4088,-1.4088,-1.4142,-1.4168,-1.4168,-1.4122,-1.4088,-1.4088,-1.4142,-1.3291,-1.137,-1.1076,-0.9935,-0.8139,-0.7685,-0.7414,-0.7411,-0.7288,-0.7231,-0.7238,-0.7363,-0.7414,-0.7428,-0.758,-0.7726,-0.7868,-0.7991,-0.8038,-0.8038,-0.8038,-0.8038,-0.8038,-0.8038,-0.8038,-0.8038,-0.8038,-0.8038,-0.8038,-0.8038,-0.8062,-0.8085,-0.8085,-0.8214,-0.835,-0.8319,-0.8442,-0.8557,-0.8496,-0.8506,-0.852,-0.8489,-0.8482,-0.8499,-0.856,-0.8669,-0.8838,-0.9106,-0.9154,-0.9215,-0.9398,-0.9401,-0.9391,-0.9422,-0.9266,-0.9154,-0.9154,-0.9025,-0.894,-0.894,-0.894,-0.894,-0.894,-0.894,-0.894,-0.894,-0.894,-0.894,-0.894,-0.894,-0.894,-0.894,-0.894,-0.894,-0.894,-0.894,-0.894,0.0,0.0,0.0,-1.3714,0.0,0.0,0.0,-1.2708,-1.2565,-1.2795,-1.2822,-1.2839,-1.3153,-1.3213,-1.3213,-1.3213,-1.3454,-1.3694,-1.3841,-1.3995,-1.4088,-1.4088,-1.4088,-1.4088,-1.4088,-1.4088,-1.4088,-1.4088,-1.4088,-1.4088,-1.4088,-1.3555,-1.3203,-1.3203,-1.2687,-1.1821,-1.0611,-1.0114,-0.9292,-0.8147,-0.7524,-0.7255,-0.7255,-0.7177,-0.7139,-0.7143,-0.7221,-0.7255,-0.7268,-0.7421,-0.7529,-0.7614,-0.7838,-0.7974,-0.8038,-0.8038,-0.8038,-0.8038,-0.8038,-0.8038,-0.8038,-0.8038,-0.8038,-0.8038,-0.8038,-0.8038,-0.8038,-0.8038,-0.815,-0.8252,-0.8174,-0.8316,-0.8445,-0.8296,-0.8319,-0.8353,-0.8279,-0.8262,-0.8282,-0.8364,-0.8438,-0.8584,-0.8879,-0.8994,-0.9096,-0.9245,-0.9205,-0.9188,-0.9259,-0.9137,-0.9045,-0.9045,-0.8981,-0.894,-0.894,-0.894,-0.894,-0.894,-0.894,-0.894,-0.894,-0.894,-0.894,-0.894,-0.894,-0.894,-0.894,-0.894,-0.894,-0.894,-0.894,-0.894,0.0,0.0,0.0,0.0,0.0,-1.352,0.0,0.0,0.0,0.0,0.0,0.0,0.0,0.0,0.0,0.0,0.0,0.0,0.0,-1.3694,0.0,-1.4075,-1.4035,-1.4021,-1.4082,-1.4088,-1.4088,-1.4088,-1.4088,-1.4088,-1.4088,-1.3203,-1.2504,-1.2328,-1.1381,-1.0697,-1.0269,-0.9318,-0.8803,-0.854,-0.7577,-0.7139,-0.7139,-0.7139,-0.7139,-0.7139,-0.7139,-0.7139,-0.7149,-0.7275,-0.7346,-0.74,-0.7695,-0.7885,-0.7997,-0.8028,-0.8038,-0.8038,-0.8038,-0.8038,-0.8038,-0.8038,-0.8038,-0.8038,-0.8038,-0.8038,-0.8038,-0.8038,-0.813,-0.8197,-0.8072,-0.8218,-0.8336,-0.8096,-0.8136,-0.8194,-0.8065,-0.8038,-0.8075,-0.8201,-0.8252,-0.8353,-0.8621,-0.8794,-0.8933,-0.9049,-0.8994,-0.8981,-0.9096,-0.9011,-0.894,-0.894,-0.894,-0.894,-0.894,-0.894,-0.894,-0.894,-0.894,-0.894,-0.894,-0.894,-0.894,-0.894,-0.894,-0.894,-0.894,-0.894,-0.894,-0.894,-0.894,-0.894,0.0,0.0,0.0,0.0,-1.3841,0.0,0.0,0.0,-1.316,-1.316,0.0,0.0,0.0,0.0,0.0,0.0,0.0,0.0,-1.2492,-1.2946,-1.35,-1.4028,-1.3854,-1.3801,-1.4062,-1.4088,-1.4088,-1.4088,-1.4088,-1.4088,-1.4088,-1.3997,-1.3379,-1.2328,-1.2157,-1.1123,-0.9148,-0.8978,-0.8364,-0.7316,-0.7139,-0.7139,-0.7139,-0.7139,-0.7139,-0.7139,-0.7139,-0.7139,-0.7143,-0.716,-0.7248,-0.74,-0.7695,-0.7821,-0.7851,-0.7991,-0.8038,-0.8038,-0.8038,-0.8038,-0.8038,-0.8038,-0.8038,-0.8038,-0.8038,-0.8038,-0.8038,-0.8038,-0.8052,-0.8062,-0.8045,-0.8065,-0.8082,-0.8048,-0.8055,-0.8062,-0.8041,-0.8038,-0.8045,-0.8062,-0.8177,-0.8323,-0.8479,-0.8635,-0.8743,-0.8757,-0.8862,-0.8944,-0.896,-0.895,-0.894,-0.894,-0.894,-0.894,-0.894,-0.894,-0.894,-0.894,-0.894,-0.894,-0.894,-0.894,-0.894,-0.894,-0.894,-0.894,-0.894,-0.894,-0.894,-0.894,-0.894,-0.894,0.0,0.0,0.0,0.0,0.0,0.0,-1.3599,0.0,-1.3414,0.0,0.0,0.0,0.0,0.0,0.0,0.0,-1.2661,0.0,0.0,0.0,-1.31,0.0,0.0,0.0,-1.3801,0.0,0.0,-1.4088,-1.4088,-1.4088,-1.4088,-1.347,-1.2851,-1.2328,-1.1638,-1.0524,-0.889,-0.889,-0.8277,-0.7139,-0.7139,-0.7139,-0.7139,-0.7139,-0.7139,-0.7139,-0.7139,-0.7139,-0.7139,-0.7139,-0.718,-0.7258,-0.7472,-0.7658,-0.7818,-0.7882,-0.7963,-0.8038,-0.8038,-0.8038,-0.8038,-0.8038,-0.8038,-0.8038,-0.8038,-0.8038,-0.8038,-0.8038,-0.8038,-0.8038,-0.8038,-0.8038,-0.8038,-0.8038,-0.8038,-0.8038,-0.8038,-0.8038,-0.8038,-0.8038,-0.8092,-0.8153,-0.8214,-0.8421,-0.8608,-0.8696,-0.8764,-0.8838,-0.8927,-0.894,-0.894,-0.894,-0.894,-0.894,-0.894,-0.894,-0.894,-0.894,-0.894,-0.894,-0.894,-0.894,-0.894,-0.894,-0.894,-0.894,-0.894,-0.894,-0.894,-0.894,-0.894,-0.894,-1.4088,0.0,0.0,0.0,0.0,0.0,0.0,0.0,0.0,0.0,0.0,0.0,0.0,0.0,0.0,0.0,0.0,-1.2795,0.0,-1.2625,0.0,0.0,0.0,0.0,0.0,0.0,-1.3848,-1.3848,-1.3921,-1.3968,-1.3968,-1.325,-1.2674,-1.2328,-1.1472,-1.0524,-0.941,-0.9061,-0.8452,-0.7577,-0.7228,-0.7139,-0.7139,-0.7139,-0.7139,-0.7139,-0.7139,-0.7139,-0.7139,-0.7139,-0.7139,-0.7149,-0.7265,-0.7465,-0.7699,-0.778,-0.7882,-0.7984,-0.8024,-0.8038,-0.8038,-0.8038,-0.8038,-0.8038,-0.8038,-0.8038,-0.8038,-0.8038,-0.8038,-0.8038,-0.8038,-0.8038,-0.8038,-0.8038,-0.8038,-0.8038,-0.8038,-0.8038,-0.8038,-0.8038,-0.8038,-0.8038,-0.8038,-0.8255,-0.8476,-0.8625,-0.8682,-0.8764,-0.892,-0.894,-0.894,-0.894,-0.894,-0.894,-0.894,-0.894,-0.894,-0.894,-0.894,-0.894,-0.894,-0.894,-0.894,-0.894,-0.894,-0.894,-0.894,-0.894,-0.894,-0.894,-0.894,-0.894,0.0,0.0,0.0,-1.4088,0.0,0.0,0.0,0.0,-1.4068,0.0,0.0,0.0,0.0,0.0,0.0,0.0,0.0,0.0,0.0,0.0,0.0,0.0,0.0,0.0,0.0,-1.3233,-1.324,-1.324,-1.35,-1.3661,-1.3661,-1.3928,-1.347,-1.2328,-1.2242,-1.1724,-1.0524,-0.9492,-0.889,-0.8803,-0.7665,-0.7139,-0.7139,-0.7139,-0.7139,-0.7139,-0.7139,-0.7139,-0.7139,-0.7139,-0.7139,-0.7139,-0.7146,-0.7244,-0.7421,-0.7706,-0.7814,-0.7838,-0.7987,-0.8038,-0.8038,-0.8038,-0.8038,-0.8038,-0.8038,-0.8038,-0.8038,-0.8038,-0.8038,-0.8038,-0.8038,-0.8038,-0.8038,-0.8038,-0.8038,-0.8038,-0.8038,-0.8038,-0.8038,-0.8038,-0.8038,-0.8038,-0.8038,-0.817,-0.8326,-0.8469,-0.8615,-0.8764,-0.892,-0.894,-0.894,-0.894,-0.894,-0.894,-0.894,-0.894,-0.894,-0.894,-0.894,-0.894,-0.894,-0.894,-0.894,-0.894,-0.894,-0.894,-0.894,-0.894,-0.894,-0.894,-0.894,-0.894,0.0,0.0,-1.4088,-1.4088,0.0,0.0,0.0,0.0,0.0,0.0,0.0,0.0,0.0,0.0,0.0,0.0,0.0,0.0,0.0,0.0,0.0,0.0,0.0,0.0,0.0,0.0,0.0,-1.3213,-1.33,-1.344,-1.3552,-1.3741,-1.3708,-1.3464,-1.347,-1.2942,-1.1729,-1.1381,-1.0351,-0.889,-0.8452,-0.7841,-0.7139,-0.7139,-0.7139,-0.7139,-0.7139,-0.7139,-0.7139,-0.7139,-0.7139,-0.7139,-0.7139,-0.7234,-0.7383,-0.7485,-0.7645,-0.7831,-0.7987,-0.8038,-0.8038,-0.8038,-0.8038,-0.8038,-0.8038,-0.8038,-0.8038,-0.8038,-0.8038,-0.8038,-0.8038,-0.8038,-0.8038,-0.8038,-0.8038,-0.8038,-0.8038,-0.8038,-0.8038,-0.8038,-0.8038,-0.8038,-0.8038,-0.8082,-0.8201,-0.8445,-0.8611,-0.8764,-0.892,-0.894,-0.894,-0.894,-0.894,-0.894,-0.894,-0.894,-0.894,-0.894,-0.894,-0.894,-0.894,-0.894,-0.894,-0.894,-0.894,-0.894,-0.894,-0.894,-0.894,-0.894,-0.894,-0.894,-1.4088,-1.4088,0.0,-1.4088,-1.4088,0.0,-1.4088,0.0,-1.4088,0.0,0.0,0.0,0.0,0.0,0.0,0.0,0.0,0.0,0.0,-1.3173,0.0,0.0,0.0,0.0,0.0,-1.2953,-1.2886,-1.2886,-1.2986,-1.3173,0.0,0.0,-1.3781,-1.4075,-1.4088,-1.373,-1.2942,-1.2498,-1.1552,-1.0096,-0.9323,-0.8452,-0.7753,-0.7316,-0.7139,-0.7139,-0.7139,-0.7139,-0.7139,-0.7139,-0.7139,-0.7139,-0.7139,-0.7234,-0.738,-0.7434,-0.7638,-0.7906,-0.8007,-0.8038,-0.8038,-0.8038,-0.8038,-0.8038,-0.8038,-0.8038,-0.8052,-0.8106,-0.8082,-0.8052,-0.8106,-0.8079,-0.8038,-0.8038,-0.8038,-0.8038,-0.8038,-0.8038,-0.8038,-0.8038,-0.8038,-0.8038,-0.8038,-0.8085,-0.8187,-0.8377,-0.8533,-0.8682,-0.8838,-0.8906,-0.894,-0.894,-0.894,-0.894,-0.894,-0.894,-0.894,-0.894,-0.894,-0.894,-0.894,-0.894,-0.896,-0.9015,-0.8964,-0.8964,-0.9015,-0.8964,-0.894,-0.894,-0.894,-0.894]},{"header":{"parameterUnit":"m.s-1","parameterCategory":1,"la1":30.6,"la2":29.2853,"lo1":-89.7004,"lo2":-87.6739,"dy":0.0162,"dx":0.0183,"nx":112,"ny":82,"refTime":"2023-08-03T12:00:00:Z","depth":0,"parameterNumber":3,"parameterNumberName":"V-component_of_WINDS"},"data":[0.0,0.0,0.0,0.0,0.0,0.0,0.0,0.0,0.0,0.0,0.0,0.0,0.0,0.0,0.0,0.0,0.0,0.0,0.0,0.0,0.0,0.0,0.0,0.0,0.0,0.0,0.0,0.0,0.0,0.0,0.0,0.0,0.0,0.0,0.0,0.0,0.0,0.0,0.0,0.0,0.0,0.0,0.0,0.0,0.0,0.0,0.0,0.0,0.0,0.0,0.0,0.0,0.0,0.0,0.0,0.0,0.0,0.0,0.0,0.0,0.0,0.0,0.0,0.0,0.0,0.0,0.0,0.0,0.0,0.0,0.0,0.0,0.0,0.0,0.0,0.0,0.0,0.0,0.0,0.0,0.0,0.0,0.0,0.0,0.0,0.0,0.0,0.0,0.0,0.0,-2.6465,-2.8496,-3.1523,-3.375,-3.4629,-3.3652,-3.2031,-2.9746,0.0,0.0,0.0,0.0,0.0,0.0,0.0,0.0,0.0,0.0,0.0,0.0,0.0,0.0,0.0,0.0,0.0,0.0,0.0,0.0,0.0,0.0,0.0,0.0,0.0,0.0,0.0,0.0,0.0,0.0,0.0,0.0,0.0,0.0,0.0,0.0,0.0,0.0,0.0,0.0,0.0,0.0,0.0,0.0,0.0,0.0,0.0,0.0,0.0,0.0,0.0,0.0,0.0,0.0,0.0,0.0,0.0,0.0,0.0,0.0,0.0,0.0,0.0,0.0,0.0,0.0,0.0,0.0,0.0,0.0,0.0,0.0,0.0,0.0,0.0,0.0,0.0,0.0,0.0,0.0,0.0,0.0,0.0,0.0,0.0,0.0,0.0,0.0,0.0,0.0,0.0,0.0,0.0,0.0,0.0,0.0,0.0,0.0,0.0,0.0,0.0,0.0,0.0,0.0,-2.6934,-3.0156,-3.2246,-3.375,-3.4629,-3.2598,-3.0801,-2.9668,0.0,0.0,0.0,0.0,0.0,0.0,0.0,0.0,0.0,0.0,0.0,0.0,0.0,0.0,0.0,0.0,0.0,0.0,0.0,0.0,0.0,0.0,0.0,0.0,0.0,0.0,0.0,0.0,0.0,0.0,0.0,0.0,0.0,0.0,0.0,0.0,0.0,0.0,0.0,0.0,0.0,0.0,0.0,0.0,0.0,0.0,0.0,0.0,0.0,0.0,0.0,0.0,0.0,0.0,0.0,0.0,0.0,0.0,0.0,0.0,0.0,0.0,0.0,0.0,0.0,0.0,0.0,0.0,0.0,0.0,0.0,0.0,0.0,0.0,0.0,0.0,0.0,0.0,0.0,0.0,0.0,0.0,0.0,0.0,0.0,0.0,0.0,0.0,0.0,0.0,0.0,0.0,0.0,0.0,0.0,0.0,0.0,0.0,0.0,0.0,0.0,0.0,0.0,-2.6816,-2.8086,-3.0625,-3.2402,-3.3555,-3.3965,-3.209,-3.0527,-2.9668,-2.7891,0.0,0.0,0.0,0.0,0.0,0.0,0.0,0.0,0.0,0.0,0.0,0.0,0.0,0.0,0.0,0.0,0.0,0.0,0.0,0.0,0.0,0.0,0.0,0.0,0.0,0.0,0.0,0.0,0.0,0.0,0.0,0.0,0.0,0.0,0.0,0.0,0.0,0.0,0.0,0.0,0.0,0.0,0.0,0.0,0.0,0.0,0.0,0.0,0.0,0.0,0.0,0.0,0.0,0.0,0.0,0.0,0.0,0.0,0.0,0.0,0.0,0.0,0.0,0.0,0.0,0.0,0.0,0.0,0.0,0.0,0.0,0.0,0.0,0.0,0.0,0.0,0.0,0.0,0.0,0.0,0.0,0.0,0.0,0.0,0.0,0.0,0.0,0.0,0.0,0.0,0.0,0.0,0.0,0.0,0.0,0.0,0.0,0.0,0.0,0.0,0.0,0.0,-2.7754,-2.8965,-3.0703,-3.2226,-3.3184,-3.3379,-3.168,-3.0312,-2.9648,-2.7148,0.0,0.0,0.0,0.0,0.0,0.0,0.0,0.0,0.0,0.0,0.0,0.0,0.0,0.0,0.0,0.0,0.0,0.0,0.0,0.0,0.0,0.0,0.0,0.0,0.0,0.0,0.0,0.0,0.0,0.0,0.0,0.0,0.0,0.0,0.0,0.0,0.0,0.0,0.0,0.0,0.0,0.0,0.0,0.0,0.0,0.0,0.0,0.0,0.0,0.0,0.0,0.0,0.0,0.0,0.0,0.0,0.0,0.0,0.0,0.0,0.0,0.0,0.0,0.0,0.0,0.0,0.0,0.0,0.0,0.0,0.0,0.0,0.0,0.0,0.0,0.0,0.0,0.0,0.0,0.0,0.0,0.0,0.0,0.0,0.0,0.0,0.0,0.0,0.0,0.0,0.0,0.0,0.0,0.0,0.0,0.0,0.0,0.0,0.0,0.0,0.0,0.0,-2.7754,-2.8965,-3.0703,-3.1738,-3.2598,-3.334,-3.1113,-2.9668,-2.9609,-2.7148,0.0,0.0,0.0,0.0,0.0,0.0,0.0,0.0,0.0,0.0,0.0,0.0,0.0,0.0,0.0,0.0,0.0,0.0,0.0,0.0,0.0,0.0,0.0,0.0,0.0,0.0,0.0,0.0,0.0,0.0,0.0,0.0,0.0,0.0,0.0,0.0,0.0,0.0,0.0,0.0,0.0,0.0,0.0,0.0,0.0,0.0,0.0,0.0,0.0,0.0,0.0,0.0,0.0,0.0,0.0,0.0,0.0,0.0,0.0,0.0,0.0,0.0,0.0,0.0,0.0,0.0,0.0,0.0,0.0,0.0,0.0,0.0,0.0,0.0,0.0,0.0,0.0,0.0,0.0,0.0,0.0,0.0,0.0,0.0,0.0,0.0,0.0,0.0,0.0,0.0,0.0,0.0,0.0,0.0,0.0,0.0,0.0,0.0,0.0,0.0,0.0,0.0,-2.8105,-2.918,-3.1465,-3.1992,-3.2324,-3.2637,-3.1269,-3.0176,-2.9629,0.0,0.0,0.0,0.0,0.0,0.0,0.0,0.0,0.0,0.0,0.0,0.0,0.0,0.0,0.0,0.0,0.0,0.0,0.0,0.0,0.0,0.0,0.0,0.0,0.0,0.0,0.0,0.0,0.0,0.0,0.0,0.0,0.0,0.0,0.0,0.0,0.0,0.0,0.0,0.0,0.0,0.0,0.0,0.0,0.0,0.0,0.0,0.0,0.0,0.0,0.0,0.0,0.0,0.0,0.0,0.0,0.0,0.0,0.0,0.0,0.0,0.0,0.0,0.0,0.0,0.0,0.0,0.0,0.0,0.0,0.0,0.0,0.0,0.0,0.0,0.0,0.0,0.0,0.0,0.0,0.0,0.0,0.0,0.0,0.0,0.0,0.0,0.0,0.0,0.0,0.0,0.0,0.0,0.0,0.0,0.0,0.0,0.0,0.0,0.0,0.0,0.0,-2.8516,-2.8711,-2.9492,-3.1562,-3.1797,-3.1797,-3.1797,-3.0996,-3.0234,-2.9648,0.0,0.0,0.0,0.0,0.0,0.0,0.0,0.0,0.0,0.0,0.0,0.0,0.0,0.0,0.0,0.0,0.0,0.0,0.0,0.0,0.0,0.0,0.0,0.0,0.0,0.0,0.0,0.0,0.0,0.0,0.0,0.0,0.0,0.0,0.0,0.0,0.0,0.0,0.0,0.0,0.0,0.0,0.0,0.0,0.0,0.0,0.0,0.0,0.0,0.0,0.0,0.0,0.0,0.0,0.0,0.0,0.0,0.0,0.0,0.0,0.0,0.0,0.0,0.0,0.0,0.0,0.0,0.0,0.0,0.0,0.0,0.0,0.0,0.0,0.0,0.0,0.0,0.0,0.0,0.0,0.0,0.0,0.0,0.0,0.0,0.0,0.0,0.0,0.0,0.0,0.0,0.0,0.0,0.0,0.0,0.0,0.0,0.0,0.0,0.0,0.0,0.0,-2.9492,-2.9609,-2.9941,-3.082,-3.0918,-3.0918,-3.0918,-3.0117,-2.9629,0.0,0.0,0.0,0.0,0.0,0.0,0.0,0.0,0.0,0.0,0.0,0.0,0.0,0.0,0.0,0.0,0.0,0.0,0.0,0.0,0.0,0.0,0.0,0.0,0.0,0.0,0.0,0.0,0.0,0.0,0.0,0.0,0.0,0.0,0.0,0.0,0.0,0.0,0.0,0.0,0.0,0.0,0.0,0.0,0.0,0.0,0.0,0.0,0.0,0.0,0.0,0.0,0.0,0.0,0.0,0.0,0.0,0.0,0.0,0.0,0.0,0.0,0.0,0.0,0.0,0.0,0.0,0.0,0.0,0.0,0.0,0.0,0.0,0.0,0.0,0.0,0.0,0.0,0.0,0.0,0.0,0.0,0.0,0.0,0.0,0.0,0.0,0.0,0.0,0.0,0.0,0.0,0.0,0.0,0.0,0.0,0.0,0.0,0.0,0.0,0.0,0.0,0.0,-2.9492,-2.9609,-3.0176,-3.166,-3.1816,-3.1816,-3.1816,-3.1582,-3.1172,-3.0566,0.0,0.0,0.0,0.0,0.0,0.0,0.0,0.0,0.0,0.0,0.0,0.0,0.0,0.0,0.0,0.0,0.0,0.0,0.0,0.0,0.0,0.0,0.0,0.0,0.0,0.0,0.0,0.0,0.0,0.0,0.0,0.0,0.0,0.0,0.0,0.0,0.0,0.0,0.0,0.0,0.0,0.0,0.0,0.0,0.0,0.0,0.0,0.0,0.0,0.0,0.0,0.0,0.0,0.0,0.0,0.0,0.0,0.0,0.0,0.0,0.0,0.0,0.0,0.0,0.0,0.0,0.0,0.0,0.0,0.0,0.0,0.0,0.0,0.0,0.0,0.0,0.0,0.0,0.0,0.0,0.0,0.0,0.0,0.0,0.0,0.0,0.0,0.0,0.0,0.0,0.0,0.0,0.0,0.0,0.0,0.0,0.0,0.0,0.0,0.0,0.0,0.0,-3.0527,-3.0644,-3.1152,-3.2539,-3.2676,-3.2676,-3.2676,-3.2383,-3.1973,-3.1445,0.0,0.0,0.0,0.0,0.0,0.0,0.0,0.0,0.0,0.0,0.0,0.0,0.0,0.0,0.0,0.0,0.0,0.0,0.0,0.0,0.0,0.0,0.0,0.0,0.0,0.0,0.0,0.0,0.0,0.0,0.0,0.0,0.0,0.0,0.0,0.0,0.0,0.0,0.0,0.0,0.0,0.0,0.0,0.0,0.0,0.0,0.0,0.0,0.0,0.0,0.0,0.0,0.0,0.0,0.0,0.0,0.0,0.0,0.0,0.0,0.0,0.0,0.0,0.0,0.0,0.0,0.0,0.0,0.0,0.0,0.0,0.0,0.0,0.0,0.0,0.0,0.0,0.0,0.0,0.0,0.0,0.0,0.0,0.0,0.0,0.0,0.0,0.0,0.0,0.0,0.0,0.0,0.0,0.0,0.0,0.0,0.0,0.0,0.0,0.0,0.0,0.0,-3.209,-3.2207,-3.2519,-3.3301,-3.3476,-3.3496,-3.3418,-3.2734,-3.2285,-3.2207,0.0,0.0,0.0,0.0,0.0,0.0,0.0,0.0,0.0,0.0,0.0,0.0,0.0,0.0,0.0,0.0,0.0,0.0,0.0,0.0,0.0,0.0,0.0,0.0,0.0,0.0,0.0,0.0,0.0,0.0,0.0,0.0,0.0,0.0,0.0,0.0,0.0,0.0,0.0,0.0,0.0,0.0,0.0,0.0,0.0,0.0,0.0,0.0,0.0,0.0,0.0,0.0,0.0,0.0,0.0,0.0,0.0,0.0,0.0,0.0,-3.2305,0.0,0.0,0.0,0.0,0.0,0.0,0.0,0.0,0.0,0.0,0.0,0.0,0.0,0.0,0.0,0.0,0.0,0.0,0.0,0.0,0.0,0.0,0.0,0.0,0.0,0.0,0.0,0.0,0.0,0.0,0.0,0.0,0.0,0.0,0.0,0.0,0.0,0.0,0.0,0.0,0.0,-3.209,-3.2207,-3.2519,-3.3301,-3.4004,-3.4141,-3.3457,-3.3242,-3.2871,-3.2246,-3.1387,0.0,0.0,0.0,0.0,0.0,0.0,0.0,0.0,0.0,0.0,0.0,0.0,0.0,0.0,0.0,0.0,0.0,0.0,0.0,0.0,0.0,0.0,0.0,0.0,0.0,0.0,0.0,0.0,0.0,0.0,0.0,0.0,0.0,0.0,0.0,0.0,0.0,0.0,0.0,0.0,0.0,0.0,0.0,0.0,0.0,0.0,0.0,0.0,0.0,0.0,0.0,0.0,0.0,0.0,0.0,0.0,0.0,0.0,0.0,0.0,-3.4258,0.0,0.0,0.0,0.0,0.0,0.0,0.0,0.0,0.0,0.0,0.0,0.0,0.0,0.0,0.0,0.0,0.0,0.0,0.0,0.0,0.0,0.0,0.0,0.0,0.0,0.0,0.0,0.0,0.0,0.0,0.0,0.0,0.0,0.0,0.0,0.0,0.0,0.0,0.0,0.0,-3.3281,-3.3398,-3.3711,-3.4551,-3.5059,-3.5137,-3.4687,-3.4277,-3.3848,-3.3437,-3.2226,0.0,0.0,0.0,0.0,0.0,0.0,0.0,0.0,0.0,0.0,0.0,0.0,0.0,0.0,0.0,0.0,0.0,0.0,0.0,0.0,0.0,0.0,0.0,0.0,0.0,0.0,0.0,0.0,0.0,0.0,0.0,0.0,0.0,0.0,0.0,0.0,0.0,0.0,0.0,0.0,0.0,0.0,0.0,0.0,0.0,0.0,0.0,0.0,0.0,0.0,0.0,0.0,0.0,-3.7773,-3.8652,-3.9492,-3.9492,-3.9961,-4.0664,-3.8516,-3.7324,-3.6875,-3.6582,0.0,0.0,0.0,0.0,0.0,0.0,0.0,0.0,0.0,0.0,0.0,0.0,0.0,0.0,0.0,0.0,0.0,0.0,0.0,0.0,0.0,0.0,0.0,0.0,-3.7891,-3.8253,-3.5305,0.0,0.0,0.0,0.0,0.0,0.0,0.0,0.0,0.0,0.0,0.0,-3.459,-3.4707,-3.5039,-3.5918,-3.5996,-3.5996,-3.5996,-3.5195,-3.4707,-3.4707,-3.3262,-3.2715,0.0,0.0,0.0,0.0,0.0,0.0,0.0,0.0,0.0,0.0,0.0,0.0,0.0,0.0,0.0,0.0,0.0,0.0,0.0,0.0,0.0,0.0,0.0,0.0,0.0,0.0,0.0,0.0,0.0,0.0,0.0,0.0,-3.0874,-3.0898,0.0,0.0,0.0,0.0,0.0,0.0,0.0,0.0,0.0,0.0,0.0,0.0,0.0,-3.7519,-3.9023,-3.9902,-4.0391,-4.0527,-4.1348,-4.2187,-4.3027,-4.3027,-4.3496,-4.4316,-4.3965,0.0,-4.0391,-3.8887,0.0,0.0,0.0,0.0,0.0,0.0,0.0,0.0,0.0,0.0,0.0,0.0,0.0,0.0,0.0,0.0,0.0,0.0,0.0,0.0,0.0,0.0,-3.8457,-3.9219,-4.0137,-4.0722,0.0,-3.8371,-3.6558,-3.5801,-3.5664,0.0,0.0,0.0,0.0,0.0,0.0,0.0,-3.459,-3.4707,-3.5039,-3.5918,-3.5996,-3.5996,-3.5996,-3.5195,-3.4707,-3.4707,-3.3789,-3.3281,-3.3398,-3.3301,0.0,0.0,0.0,0.0,0.0,0.0,0.0,0.0,0.0,0.0,0.0,0.0,0.0,0.0,0.0,0.0,0.0,0.0,0.0,0.0,0.0,0.0,0.0,0.0,0.0,0.0,0.0,0.0,0.0,-3.1328,-3.1445,-3.0957,-3.1328,-3.1445,0.0,0.0,0.0,0.0,0.0,0.0,0.0,0.0,0.0,-3.9414,-3.9922,-4.0527,-4.1308,-4.2656,-4.3828,-4.4805,-4.5644,-4.6758,-4.8027,-4.8027,-4.8242,-4.8594,-4.8594,-4.7715,-4.6016,-4.2793,-4.0918,-3.9941,0.0,0.0,0.0,0.0,-3.873,-3.9551,-4.0019,-4.0117,-4.0059,-4.0059,0.0,0.0,0.0,0.0,0.0,0.0,0.0,0.0,0.0,0.0,-4.082,-4.1211,-4.1973,-4.2461,-4.1973,-4.0976,-3.9629,0.0,-3.707,-3.6445,-3.5586,0.0,0.0,0.0,0.0,-3.5176,-3.6055,-3.6152,-3.6504,-3.7363,-3.7012,-3.6738,-3.6738,-3.5937,-3.543,-3.543,-3.4609,-3.4355,-3.4844,-3.4394,-3.4355,0.0,0.0,0.0,0.0,0.0,0.0,0.0,0.0,0.0,0.0,0.0,0.0,0.0,0.0,0.0,0.0,0.0,0.0,0.0,0.0,0.0,0.0,0.0,0.0,0.0,0.0,0.0,0.0,-3.1836,-3.2187,-3.1328,-3.2187,-3.25,0.0,0.0,0.0,0.0,0.0,0.0,-3.8496,-3.9219,-4.0586,-4.2773,-4.3418,-4.4043,-4.4707,-4.5996,-4.7402,-4.8906,-4.9551,-5.0644,-5.207,-5.207,-5.207,-5.207,-5.207,-5.1601,-5.0527,-4.6406,-4.3828,-4.2402,-4.1308,-4.1269,-4.1758,-4.1113,-4.1426,-4.2266,-4.2851,-4.2812,-4.2539,-4.2773,-4.2109,-4.1035,-4.0176,0.0,0.0,0.0,0.0,-4.0488,-4.1562,-4.2285,-4.2851,-4.3281,-4.3887,-4.4199,-4.3535,-4.3223,-4.2246,0.0,-3.8418,-3.7617,-3.6523,0.0,0.0,0.0,0.0,-3.6894,-3.7559,-3.7637,-3.7871,-3.8535,-3.8027,-3.7539,-3.7324,-3.6719,-3.623,-3.6016,-3.5391,-3.5312,-3.5976,-3.5371,-3.5332,-3.5996,0.0,0.0,0.0,0.0,0.0,0.0,0.0,0.0,0.0,0.0,0.0,0.0,0.0,0.0,0.0,0.0,0.0,0.0,0.0,0.0,0.0,0.0,0.0,0.0,0.0,0.0,0.0,0.0,0.0,-3.2226,-3.3574,0.0,0.0,0.0,0.0,-3.6914,-3.7891,-3.9492,-4.2012,-4.2187,-4.3769,-4.7168,-4.7324,-4.8496,-5.0918,-5.1035,-5.1543,-5.2441,-5.248,-5.2988,-5.3867,-5.3867,-5.3867,-5.3867,-5.3867,-5.3379,-5.2305,-4.8828,-4.6875,-4.5879,-4.418,-4.3535,-4.3574,-4.3535,-4.4062,-4.4805,-4.4863,-4.5371,-4.6172,-4.7012,-4.6133,-4.457,-4.3711,-4.2324,0.0,0.0,-4.1094,-4.1504,-4.3144,-4.3594,-4.4043,-4.5703,-4.6133,-4.6152,-4.6113,-4.5449,-4.3867,0.0,-3.9805,-3.9238,-3.7539,0.0,-3.8184,-3.7363,-3.7949,-3.8496,-3.8535,-3.8535,-3.8555,-3.8594,-3.8555,-3.8203,-3.7363,-3.7266,-3.6875,-3.6055,-3.5957,-3.5957,-3.5996,-3.5957,-3.5957,-3.5996,-3.5996,0.0,0.0,0.0,0.0,0.0,0.0,0.0,0.0,0.0,0.0,0.0,0.0,0.0,0.0,0.0,0.0,0.0,0.0,0.0,0.0,0.0,0.0,0.0,0.0,0.0,0.0,0.0,0.0,-3.4746,-3.666,0.0,-3.6836,-3.8047,-3.9141,-3.9766,-4.2148,-4.4199,-4.5664,-4.6816,-4.8223,-4.998,-5.0586,-5.1328,-5.2226,-5.2793,-5.3516,-5.4375,-5.4375,-5.4824,-5.5664,-5.5664,-5.5664,-5.5664,-5.5664,-5.5176,-5.4277,-5.3066,-5.1387,-4.9473,-4.832,-4.8203,-4.8594,-4.8066,-4.8418,-4.9199,-4.9766,-4.9785,-4.9453,-4.8691,-4.7266,-4.5664,-4.4805,-4.4512,-4.4473,-4.4473,-4.4883,-4.5586,-4.6758,-4.7051,-4.7207,-4.7832,-4.7969,-4.7812,-4.7266,-4.6894,-4.5976,-4.3633,-4.2285,-4.1152,-4.0019,-4.0078,-4.0176,-3.9863,-4.0078,-4.0469,-4.0976,-4.0586,-4.0469,-4.0996,-4.0078,-3.9316,-3.9004,-3.8457,-3.8008,-3.7695,-3.7148,-3.709,-3.7656,-3.7129,-3.7109,-3.7656,-3.7676,-3.7676,0.0,0.0,0.0,0.0,0.0,0.0,0.0,0.0,0.0,0.0,0.0,0.0,0.0,0.0,0.0,0.0,0.0,0.0,0.0,0.0,0.0,0.0,0.0,0.0,0.0,0.0,-3.8359,-3.7812,-4.0039,-4.1387,-4.082,-4.207,-4.3164,-4.375,-4.6172,-4.8105,-4.9258,-5.043,-5.1562,-5.2676,-5.3281,-5.3711,-5.4004,-5.459,-5.5176,-5.5742,-5.6035,-5.6328,-5.6601,-5.6894,-5.6875,-5.6601,-5.6601,-5.6269,-5.5742,-5.5742,-5.4726,-5.3047,-5.1914,-5.1816,-5.2207,-5.168,-5.1816,-5.2363,-5.2949,-5.2578,-5.166,-5.0547,-4.9023,-4.7519,-4.6933,-4.6953,-4.7187,-4.7187,-4.7598,-4.8242,-4.9101,-4.9121,-4.8965,-4.9277,-4.9101,-4.873,-4.8164,-4.7812,-4.7266,-4.6094,-4.4473,-4.293,-4.1797,-4.1855,-4.1933,-4.1641,-4.1855,-4.2246,-4.2773,-4.2363,-4.2246,-4.2773,-4.1836,-4.0957,-4.0391,-3.9805,-3.9238,-3.8633,-3.8066,-3.8008,-3.8574,-3.8047,-3.8008,-3.8594,-3.8594,-3.8594,-3.8594,0.0,0.0,0.0,0.0,0.0,0.0,0.0,0.0,0.0,0.0,0.0,0.0,0.0,0.0,0.0,0.0,0.0,0.0,0.0,0.0,0.0,0.0,0.0,-3.64,-3.9168,-4.1367,-4.1406,-4.3652,-4.5195,-4.5195,-4.5996,-4.7207,-4.8887,-4.9844,-5.1074,-5.2695,-5.2832,-5.3613,-5.5293,-5.539,-5.5801,-5.6621,-5.664,-5.664,-5.664,-5.75,-5.7461,-5.668,-5.7539,-5.7461,-5.664,-5.664,-5.664,-5.664,-5.6601,-5.6621,-5.6504,-5.4765,-5.4082,-5.4082,-5.4082,-5.4082,-5.4082,-5.4082,-5.3516,-5.2773,-5.2773,-5.166,-5.0312,-5.0312,-4.9726,-4.9062,-4.9062,-4.9043,-4.9219,-5.0098,-4.9668,-4.9238,-5.0078,-4.9629,-4.9004,-4.8945,-4.8281,-4.7676,-4.7656,-4.625,-4.4531,-4.2812,-4.3223,-4.3496,-4.2656,-4.3242,0.0,-4.3789,-4.3769,-4.373,-4.373,-4.3711,-4.3027,-4.1387,-4.123,-4.0508,-3.8789,-3.8652,-3.8652,-3.8672,-3.8652,-3.8652,-3.8672,-3.8672,-3.8672,-3.8672,0.0,0.0,0.0,0.0,0.0,0.0,0.0,0.0,0.0,0.0,0.0,0.0,0.0,0.0,0.0,0.0,0.0,0.0,0.0,0.0,0.0,0.0,-4.0935,-3.9911,-4.27,-4.5083,-4.576,-4.8086,-4.9648,-4.9648,-5.043,-5.1133,-5.1621,-5.3047,-5.4101,-5.4551,-5.5781,-5.6406,-5.625,-5.7461,-5.7949,-5.7558,-5.7539,-5.7539,-5.7558,-5.7793,-5.7773,-5.7578,-5.8457,-5.8379,-5.7539,-5.7539,-5.7539,-5.748,-5.6855,-5.7344,-5.8301,-5.6562,-5.5898,-5.5898,-5.5898,-5.5898,-5.5898,-5.5898,-5.5312,-5.459,-5.459,-5.3848,-5.2969,-5.2969,-5.2793,-5.2598,-5.2598,-5.2148,-5.1855,-5.2734,-5.2305,-5.1719,-5.1953,-5.1836,-5.1328,-5.0117,-4.9648,-4.9297,-4.8672,-4.7656,-4.6523,-4.543,-4.543,-4.5508,-4.5254,-4.543,0.0,-4.5586,-4.5039,-4.4648,-4.4648,-4.4082,-4.3262,-4.2168,-4.207,-4.1621,-4.0547,-3.9883,-3.9824,-4.0469,-3.9883,-3.9844,-4.0469,-4.0488,-4.0488,0.0,0.0,0.0,0.0,0.0,0.0,0.0,0.0,0.0,0.0,0.0,0.0,0.0,0.0,0.0,0.0,0.0,0.0,0.0,0.0,0.0,0.0,-4.2683,-4.4297,-4.5254,-4.6826,-4.834,-4.9589,-5.1367,-5.2773,-5.3516,-5.3711,-5.4082,-5.4824,-5.5488,-5.584,-5.584,-5.6816,-5.7129,-5.6621,-5.7949,-5.8418,-5.789,-5.8262,-5.8437,-5.8457,-5.8789,-5.8769,-5.8476,-5.9316,-5.9238,-5.8437,-5.8437,-5.8437,-5.8418,-5.789,-5.8281,0.0,0.0,0.0,0.0,0.0,-5.6601,-5.6601,-5.6601,-5.6035,-5.5293,-5.5293,-5.4707,-5.4004,-5.4004,-5.4004,-5.4004,-5.4004,-5.3633,-5.3359,-5.3867,-5.3613,-5.3242,-5.3242,-5.2969,-5.2422,-5.1465,-5.0703,-5.0058,-4.9531,-4.873,0.0,-4.748,-4.6777,-4.6308,-4.6308,-4.6308,-4.6308,-4.6308,-4.5859,-4.5547,-4.5547,-4.5098,-4.4433,-4.3555,-4.3144,0.0,0.0,0.0,-4.0664,-4.1172,-4.0703,0.0,0.0,0.0,-4.1191,-4.1191,0.0,0.0,0.0,-3.9453,-3.9414,0.0,0.0,0.0,0.0,0.0,0.0,0.0,0.0,0.0,0.0,0.0,0.0,0.0,0.0,0.0,0.0,-4.5923,-4.7938,-5.1167,-5.1288,-5.1562,-5.2969,-5.4004,-5.5195,-5.6738,-5.6191,-5.6387,-5.793,-5.7246,-5.6758,-5.6758,0.0,0.0,0.0,0.0,-5.8281,-5.8183,-5.8945,-5.9336,-5.9336,-6.0058,-6.0039,-5.9355,-6.0176,-6.0098,-5.9336,-5.9336,-5.9336,-5.9336,-5.9238,-5.9199,-5.9101,-5.8242,-5.789,-5.7793,-5.6914,-5.6601,-5.6601,-5.6601,0.0,0.0,-5.5449,-5.4922,-5.4297,-5.4297,-5.4297,-5.4297,-5.4297,-5.4219,-5.418,-5.4277,-5.4219,-5.4141,-5.4141,-5.3476,-5.2812,-5.2715,-5.1445,-5.0332,-5.0332,-4.9648,-4.9043,-4.9043,-4.7598,-4.6445,-4.6445,-4.6367,-4.6308,-4.6308,-4.6308,-4.6308,-4.6308,0.0,0.0,-4.5078,-4.4297,-4.3476,-4.2598,-4.1875,-4.1484,-4.1484,-4.1484,-4.1484,-4.1484,-4.1484,-4.1484,-4.1484,-4.1484,-4.1484,-4.1484,-4.1289,-4.1191,0.0,0.0,0.0,0.0,0.0,0.0,0.0,0.0,0.0,0.0,0.0,0.0,0.0,0.0,0.0,-4.6317,-4.9179,-5.1818,-5.3896,-5.5322,-5.6094,-5.5879,-5.7246,-5.832,-5.8652,-5.8535,-5.8594,-5.8926,-5.8144,-5.7656,-5.7656,-5.832,-5.8379,-5.7676,-5.9805,-6.0625,-5.9922,-6.0078,-6.0176,-6.0176,0.0,0.0,-6.0195,-6.1055,-6.0976,-6.0176,-6.0176,-6.0176,-6.0117,-5.9473,-5.9199,-5.9101,-5.8242,-5.789,-5.7793,-5.6914,-5.6601,-5.6601,-5.6601,-5.6484,-5.6348,-5.6348,-5.623,-5.6094,-5.6094,-5.6094,0.0,-5.6094,-5.5586,-5.5215,-5.5918,-5.5586,-5.5058,-5.5058,-5.4375,-5.3555,-5.2851,-5.1894,-5.1172,-5.1172,-5.0508,-4.9941,-4.9941,-4.8496,-4.7344,-4.7344,-4.6758,-4.6308,-4.6308,-4.6308,-4.6308,-4.6308,-4.6308,-4.5957,-4.5078,-4.4844,-4.4375,-4.3496,-4.3301,-4.3223,-4.3223,-4.3223,-4.3223,-4.3223,-4.3223,-4.3223,-4.3223,-4.3223,-4.3223,-4.3183,-4.1836,-4.1191,0.0,0.0,0.0,0.0,0.0,0.0,0.0,0.0,0.0,0.0,0.0,-4.1905,0.0,0.0,-4.7972,-5.0969,-5.3028,-5.4843,-5.6555,-5.8071,-5.8694,-5.785,-5.8613,-5.9355,-5.9765,-5.9433,-5.9199,-5.9199,-5.8398,-5.789,-5.789,-5.8301,-5.8555,-5.8555,-6.0176,-6.084,-6.039,-6.082,-6.1055,-6.1055,-6.1055,-6.1055,-6.1074,-6.1504,-6.1465,-6.1055,-6.1055,-6.1055,-6.1015,-6.0625,-6.0449,-6.0312,-5.9043,-5.8281,-5.7793,-5.6914,-5.6601,-5.6601,-5.6601,-5.6601,-5.6601,-5.6601,-5.6601,-5.6601,-5.6601,-5.6601,-5.6601,-5.6601,-5.6289,-5.6055,-5.6484,-5.6289,-5.5957,-5.5957,-5.4941,-5.3887,-5.3437,-5.2324,-5.1406,-5.1406,-5.1074,-5.0801,-5.0801,-4.9746,-4.8613,-4.7734,-4.6855,-4.6308,-4.6308,-4.6308,-4.6308,-4.6308,-4.6308,-4.6113,-4.5683,-4.5254,-4.4629,-4.3769,-4.3691,-4.3691,-4.3691,-4.3691,-4.3691,-4.3691,-4.3691,-4.3691,-4.3691,-4.3691,-4.3691,-4.3672,-4.2832,-4.2441,0.0,0.0,0.0,0.0,0.0,0.0,0.0,0.0,-4.02,-4.2758,-4.4008,-4.5586,-4.8548,-4.9989,-5.1851,-5.5415,-5.6499,-5.737,-5.876,-5.9928,-6.0248,-5.9274,-5.9466,-5.9941,-6.0586,-6.0078,-5.9687,-5.9687,-5.8887,-5.8398,-5.8398,-5.8398,-5.8711,-5.9414,-6.0234,-6.0644,-6.0644,-6.1348,-6.1699,-6.1699,-6.1699,-6.1699,-6.1699,-6.1699,-6.1699,-6.1699,-6.1699,-6.1699,-6.1699,-6.1699,-6.1601,-6.1308,-5.9785,-5.8672,-5.7793,-5.6914,-5.6601,-5.6601,-5.6601,-5.6601,-5.6601,-5.6601,-5.6601,-5.6601,-5.6601,-5.6601,-5.6601,-5.6601,-5.6601,-5.6601,-5.6601,-5.6601,-5.6601,-5.6601,-5.539,-5.4258,-5.4258,-5.3027,-5.1855,-5.1699,-5.1641,-5.1601,-5.1426,-5.0723,-4.9726,-4.832,-4.7226,-4.6543,-4.6543,-4.6406,-4.6308,-4.6308,-4.6308,-4.6308,-4.6308,-4.5664,-4.4941,-4.4258,-4.4219,-4.4219,-4.4219,-4.4219,-4.4219,-4.4219,-4.4219,-4.4219,-4.4219,-4.4219,-4.4219,-4.4219,-4.4219,-4.4023,-3.8027,-3.7853,-3.8315,-3.9623,-4.0065,-4.1219,0.0,0.0,-4.547,-4.8009,-4.924,-5.0433,-5.2299,-5.3933,-5.5453,-5.6823,-5.8363,-5.9495,-5.9808,-6.0731,-6.1062,-6.0147,-6.0854,-6.1465,-6.1543,-6.1465,-6.1426,-6.1426,-6.0605,-6.0117,-6.0117,-6.0117,-6.0176,-6.0254,-6.1094,-6.1543,-6.1543,-6.164,-6.1699,-6.1699,-6.1699,-6.1699,-6.1699,-6.1699,-6.1699,-6.1699,-6.1699,-6.1699,-6.1699,-6.1699,-6.123,-6.0469,-5.9551,-5.8672,-5.7793,-5.6914,-5.6601,-5.6601,-5.6601,-5.6601,-5.6601,-5.6601,-5.6601,-5.6601,-5.6601,-5.6601,-5.6601,-5.6601,-5.6601,-5.6601,-5.6601,-5.6601,-5.6601,-5.6601,-5.5859,-5.5156,-5.5156,-5.4394,-5.3476,-5.2695,-5.2558,-5.2305,-5.1523,-5.0723,-5.0137,-4.9941,-4.8516,-4.7441,-4.7441,-4.6777,-4.6308,-4.6308,-4.6308,-4.6308,-4.6308,-4.6211,-4.6113,-4.6016,-4.6016,-4.6016,-4.6016,-4.6016,-4.6016,-4.6016,-4.6016,-4.6016,-4.6016,-4.6016,-4.6016,-4.6016,-4.6016,-4.5176,-3.9681,-3.945,-3.9738,0.0,-4.2758,-4.4951,-4.7721,-4.8471,-4.9279,-5.1837,-5.3029,-5.4126,-5.5857,-5.7126,-5.8242,0.0,-6.0035,-6.0575,-6.0729,-6.0766,-6.0435,-5.9565,-5.9922,-6.043,-6.0898,-6.1406,-6.1484,-6.0976,-6.0605,-6.039,-6.039,-6.039,-6.0625,-6.1133,-6.1504,-6.1699,-6.1699,-6.1699,-6.1699,-6.1699,-6.1699,-6.1699,-6.1699,-6.1699,-6.1699,-6.1699,-6.1699,-6.1699,-6.1699,-6.1699,-6.1484,-6.1035,-5.9707,-5.8984,-5.8496,-5.7109,-5.6601,-5.6601,-5.6601,-5.6601,-5.6601,-5.6601,-5.6933,-5.7363,-5.7363,-5.7363,-5.7363,-5.7363,-5.6992,-5.6601,-5.6601,-5.6601,-5.6601,-5.6601,-5.5937,-5.5293,-5.5293,-5.4629,-5.3887,-5.3535,-5.3457,-5.3183,-5.2305,-5.1875,-5.1484,-5.0976,-4.9453,-4.8359,-4.8359,-4.7598,-4.6855,-4.6348,-4.6308,-4.6308,-4.6308,-4.6308,-4.6308,-4.6308,-4.6308,-4.6308,-4.6308,-4.6308,-4.6308,-4.6308,-4.6308,-4.6308,-4.6308,-4.6308,-4.6308,-4.6308,-4.6308,-4.5918,-4.0335,-4.0681,0.0,-4.3162,-4.5932,-4.8779,-5.0702,-5.1798,-5.3087,-5.5395,-5.6338,-5.7126,-5.8396,-5.93,-6.0031,-6.0589,-6.0904,-6.1065,-6.0949,-6.0358,-5.9504,-5.8349,-5.837,-5.8711,-5.9297,-6.0351,-6.0937,-6.0762,-6.0547,-6.0508,-6.0742,-6.0762,-6.1055,-6.168,-6.1699,-6.1699,-6.1699,-6.1699,-6.1699,-6.1699,-6.1699,-6.1699,-6.1699,-6.1699,-6.1699,-6.1699,-6.1699,-6.1699,-6.1699,-6.1699,-6.1699,-6.1523,-5.9844,-5.9199,-5.8984,-5.7246,-5.6601,-5.6601,-5.6601,-5.6601,-5.6601,-5.6601,-5.7187,-5.789,-5.789,-5.789,-5.789,-5.789,-5.7265,-5.6601,-5.6601,-5.6601,-5.6601,-5.6601,-5.6113,-5.5664,-5.5664,-5.5156,-5.4648,-5.4414,-5.4355,-5.4082,-5.3203,-5.2851,-5.248,-5.1855,-5.0527,-4.9512,-4.9297,-4.8281,-4.7363,-4.6738,-4.6445,-4.6308,-4.6308,-4.6308,-4.6308,-4.6308,-4.6308,-4.6308,-4.6308,-4.6308,-4.6308,-4.6308,-4.6308,-4.6308,-4.6308,-4.6308,-4.6308,-4.6308,-4.6308,-4.6308,-3.9335,0.0,-4.3816,-4.7086,-4.9837,-5.2414,-5.4934,-5.6165,-5.728,-5.8992,-5.9377,-5.9396,-5.9454,-6.0165,-6.0569,-5.9931,-6.0663,-6.0997,-6.0164,-5.9569,-5.8544,-5.6708,-5.6601,-5.6699,0.0,-5.8262,-5.9941,-6.1543,-6.0879,-6.0762,-6.1621,-6.166,-6.168,-6.1699,-6.1699,-6.1699,-6.1699,-6.1699,-6.1699,-6.1699,-6.1699,-6.1699,-6.1699,-6.1699,-6.1699,-6.1699,-6.1699,-6.1699,-6.1699,-6.1699,-6.1699,-6.1523,-5.9844,-5.9199,-5.8984,-5.7246,-5.6601,-5.6601,-5.6601,-5.6601,-5.6601,-5.6601,-5.7187,-5.789,-5.789,-5.789,-5.789,-5.789,-5.7265,-5.6601,-5.6601,-5.6601,-5.6601,-5.6601,-5.6582,-5.6562,-5.6562,-5.6543,-5.6269,-5.543,-5.5254,-5.498,-5.4101,-5.3262,-5.2695,-5.2656,-5.1894,-5.1035,-5.0254,-4.8652,-4.7598,-4.7558,-4.6797,-4.6308,-4.6308,-4.6308,-4.6308,-4.6308,-4.6308,-4.6308,-4.6308,-4.6308,-4.6308,-4.6308,-4.6308,-4.6308,-4.6308,-4.6308,-4.6308,-4.6308,-4.6308,-4.6308,-4.2008,0.0,-4.724,-5.0644,-5.3395,-5.5799,-5.7761,-5.8896,-5.9511,-5.9492,-5.8607,-5.7646,-5.7088,-5.678,-5.6758,-5.7213,-5.841,-5.9283,-5.9152,-5.8973,-5.8042,-5.5807,-5.6173,0.0,0.0,0.0,0.0,-5.9961,-6.0254,-6.0527,-6.082,-6.1387,-6.1699,-6.1699,-6.1699,-6.1699,-6.1699,-6.1699,-6.1699,-6.1699,-6.1699,-6.1699,-6.1699,-6.1699,-6.1699,-6.1699,-6.1699,-6.1699,-6.1699,-6.1699,-6.1367,-6.0781,-6.0215,-5.9316,-5.8262,-5.7676,-5.7109,-5.6601,-5.6601,-5.6601,-5.6699,-5.7265,-5.8047,-5.8769,-5.8769,-5.8769,-5.8633,-5.8066,-5.7265,-5.6601,-5.6601,-5.6601,-5.6601,-5.6601,-5.6601,-5.6601,-5.6601,-5.6601,-5.6504,-5.6211,-5.6152,-5.5898,-5.5019,-5.4141,-5.3164,-5.2012,-5.1582,-5.1113,-5.0293,-4.9687,-4.8887,-4.7715,-4.7344,-4.6933,-4.6348,-4.6308,-4.6308,-4.6308,-4.6308,-4.6308,-4.6308,-4.6308,-4.6308,-4.6308,-4.6308,-4.6308,-4.6308,-4.6308,-4.6308,-4.6308,-4.6308,-4.6308,-4.5201,-4.799,-5.0741,-5.4164,-5.6472,-5.8261,-5.9646,-6.0165,-6.0012,-5.8838,-5.7261,-5.5645,-5.4184,-5.3491,-5.3355,-5.4024,-5.5273,-5.6521,-5.7562,-5.7309,-5.6629,-5.5594,-5.5864,-5.6035,0.0,0.0,0.0,-5.9101,-5.9687,-6.0098,-6.0371,-6.123,-6.1699,-6.1699,-6.1699,-6.1699,-6.1699,-6.1699,-6.1699,-6.1699,-6.1699,-6.1699,-6.1699,-6.1699,-6.1699,-6.1699,-6.1699,-6.1699,-6.1699,-6.1699,-6.1191,-6.0371,-6.0078,-5.9121,-5.7851,-5.7558,-5.707,-5.6601,-5.6601,-5.6601,-5.6699,-5.7246,-5.8027,-5.873,-5.873,-5.873,-5.8613,-5.8066,-5.7265,-5.6601,-5.6601,-5.6601,-5.6601,-5.6601,-5.6601,-5.6601,-5.6601,-5.6601,-5.6601,-5.6601,-5.6601,-5.6426,-5.5859,-5.4785,-5.3516,-5.207,-5.1601,-5.1211,-5.0703,-5.0371,-4.9648,-4.8223,-4.7793,-4.7246,-4.6367,-4.6308,-4.6308,-4.6308,-4.6308,-4.6308,-4.6308,-4.6308,-4.6308,-4.6308,-4.6308,-4.6308,-4.6308,-4.6308,-4.6308,-4.6308,-4.6308,-4.6308,-4.8663,-5.1491,-5.426,-5.755,-5.8973,-5.9762,-6.055,-6.0031,-5.8877,-5.7146,-5.5395,-5.3414,0.0,0.0,-5.0548,-5.0701,-5.1713,-5.328,-5.565,-5.5015,-5.4783,0.0,0.0,0.0,0.0,0.0,0.0,-5.9082,0.0,-5.9551,-6.0351,-6.123,-6.1699,-6.1699,-6.1699,-6.1699,-6.1699,-6.1699,-6.1699,-6.1699,-6.1699,-6.1699,-6.1699,-6.1699,-6.1699,-6.1699,-6.1699,-6.1699,-6.1699,-6.1699,-6.1152,-6.0273,-5.9531,-5.8672,-5.7734,-5.6953,-5.664,-5.6601,-5.6601,-5.6601,-5.6601,-5.6699,-5.7265,-5.791,-5.7949,-5.7949,-5.789,-5.7851,-5.7246,-5.6601,-5.6601,-5.6601,-5.6601,-5.6601,-5.6601,-5.6601,-5.6601,-5.6601,-5.6601,-5.6601,-5.6601,-5.6582,-5.6543,-5.5156,-5.3769,-5.2832,-5.1992,-5.1445,-5.1406,-5.0723,-4.9922,-4.9041,-4.8183,-4.7304,-4.6425,-4.6328,-4.6289,-4.6289,-4.6288,-4.6288,-4.6289,-4.6289,-4.6289,-4.6287,-4.6308,-4.6308,-4.6289,-4.6308,-4.6308,-4.6308,-4.6308,-4.6308,-5.1298,-5.4568,-5.7357,-5.8838,-5.9838,-6.0358,-5.9935,-5.8684,-5.6973,-5.4645,-5.1798,-4.9144,0.0,0.0,0.0,-4.9567,-5.2624,0.0,-5.681,-5.7854,0.0,-5.7512,0.0,-5.8047,-5.7617,-5.8164,0.0,0.0,-5.9199,-5.9551,-6.0351,-6.123,-6.1699,-6.1699,-6.1699,-6.1699,-6.1699,-6.1699,-6.1699,-6.1699,-6.1699,-6.1699,-6.1699,-6.1699,-6.1699,-6.1699,-6.1699,-6.1699,-6.1699,-6.1699,-6.082,-5.9551,-5.9941,-5.8808,-5.6973,-5.7402,-5.7168,-5.6601,-5.6601,-5.6601,-5.6816,-5.8105,-5.8242,-5.8027,-5.8672,-5.8418,-5.7754,-5.7109,-5.6777,-5.6601,-5.6601,-5.6601,-5.6601,-5.6601,-5.6601,-5.6601,-5.6601,-5.6601,-5.6601,-5.6601,-5.6601,-5.6387,-5.5742,-5.5254,-5.4453,-5.293,-5.2519,-5.2129,-5.1484,-5.1211,-5.0734,-4.9821,-4.9028,-4.8137,-4.7067,-4.6569,-4.6204,-4.6008,-4.6094,-4.6143,-4.6152,-4.6152,-4.6152,-4.6151,-4.6245,-4.625,-4.6152,-4.625,-4.6308,-4.6308,-4.6308,-4.626,-5.4722,-5.7376,-5.9511,-5.9954,-6.0146,-5.98,-5.8204,-5.653,-5.4395,-5.1106,-4.8298,0.0,-4.4239,-4.4335,0.0,0.0,0.0,0.0,-5.6388,-5.746,-5.8175,0.0,-5.9382,0.0,-5.9043,-5.9433,-5.9883,0.0,-5.9941,-5.9922,-6.0371,-6.123,-6.1699,-6.1699,-6.1699,-6.1699,-6.1699,-6.1699,-6.1699,-6.1699,-6.1699,-6.1699,-6.1699,-6.1699,-6.1699,-6.1699,0.0,-6.1699,-6.1699,-6.1699,-6.0918,-5.9746,-5.9824,-5.8769,-5.7187,-5.7285,-5.7012,-5.6601,-5.6601,-5.6601,-5.6758,-5.7734,-5.7734,-5.7422,-5.791,-5.7715,-5.7226,-5.6738,-5.6601,-5.6601,-5.6601,-5.6601,-5.6601,-5.6601,-5.6601,-5.6601,-5.6601,-5.6601,-5.6601,-5.6601,-5.6601,-5.6445,-5.5957,-5.5547,-5.4961,-5.3984,-5.3183,-5.2519,-5.2031,-5.1641,-5.1057,-5.0179,-4.9382,-4.8448,-4.7384,-4.663,-4.6127,-4.5899,-4.596,-4.6003,-4.601,-4.6011,-4.6001,-4.6015,-4.6095,-4.6099,-4.6003,-4.6101,-4.612,-4.612,-4.612,-4.6091,-5.7992,-5.9608,-6.0762,-6.0666,-5.9896,-5.8492,-5.5953,-5.3818,-5.126,-4.7355,0.0,-4.3355,-4.1931,-4.1835,-4.2896,-4.5705,0.0,-4.9817,-5.566,-5.6072,-5.6932,-6.0017,-6.0504,-6.0566,-6.0566,-6.0566,-6.0898,-6.164,-6.0996,-6.0566,-6.0566,-6.1289,-6.1699,-6.1699,-6.1699,-6.1699,-6.1699,-6.1699,-6.1699,-6.1699,-6.1699,-6.1699,-6.1699,-6.1699,-6.1699,-6.1699,-6.1699,-6.1699,-6.1699,-6.1699,-6.1191,-6.0312,-5.9512,-5.8672,-5.7793,-5.6914,-5.668,-5.6758,-5.664,-5.668,-5.6777,-5.6777,-5.6699,-5.6621,-5.6738,-5.6699,-5.6601,-5.6601,-5.6601,-5.6601,-5.6601,-5.6601,-5.6601,-5.6601,-5.6601,-5.6601,-5.6601,-5.6601,-5.6601,-5.6601,-5.6601,-5.6601,-5.6601,-5.5952,-5.5414,-5.5296,-5.3878,-5.279,-5.2653,-5.1913,-5.1113,-5.0407,-4.9555,-4.8625,-4.7582,-4.6737,-4.6132,-4.5871,-4.5873,-4.5892,-4.5892,-4.5893,-4.5891,-4.5891,-4.5896,-4.5896,-4.5891,-4.5911,-4.5911,-4.5911,-4.5911,-4.5911,-5.8838,-6.0031,-6.0627,-5.9915,-5.8569,-5.678,-5.4222,-5.0721,0.0,0.0,-4.2835,-4.1085,-4.0927,-4.2027,-4.4064,-4.748,0.0,0.0,0.0,0.0,-5.9064,0.0,-6.1459,-6.1465,-6.1465,-6.1465,0.0,0.0,-6.1562,-6.1465,-6.1465,-6.1621,-6.1699,-6.1699,-6.1699,-6.1699,-6.1699,-6.1699,-6.1699,-6.1699,-6.1699,-6.1699,-6.1699,-6.1699,-6.1699,-6.1699,-6.1699,0.0,-6.1699,-6.1699,-6.1191,-6.0312,-5.9512,-5.8672,-5.7793,-5.6914,-5.7051,-5.7578,-5.6855,-5.707,-5.7676,-5.7676,-5.7187,-5.6738,-5.7461,-5.7168,-5.6601,-5.6601,-5.6601,-5.6601,-5.6601,-5.6601,-5.6601,-5.6601,-5.6601,-5.6601,-5.6601,-5.6601,-5.6601,-5.6601,-5.6601,-5.6601,-5.6601,-5.6378,-5.5958,-5.5244,-5.4167,-5.3171,-5.2469,-5.1792,-5.1279,-5.0977,-5.0259,-4.9298,-4.8067,-4.7391,-4.6617,-4.5703,-4.5753,-4.5815,-4.5815,-4.5825,-4.5835,-4.5835,-4.5868,-4.5868,-4.5835,-4.5873,-4.5912,-4.5912,-4.5912,-4.5873,-5.9819,-6.0473,-6.0589,-5.9723,-5.7896,-5.5434,-5.201,0.0,0.0,0.0,-4.1335,-4.0508,-4.0581,-4.1681,0.0,0.0,0.0,0.0,0.0,0.0,0.0,0.0,-6.1426,-6.1699,0.0,-6.1699,-6.1699,-6.1699,-6.1699,-6.1699,-6.1699,-6.1699,-6.1699,-6.1699,-6.1699,-6.1699,-6.1699,-6.1699,-6.1699,-6.1699,-6.1699,-6.1699,-6.1699,-6.1699,-6.1699,-6.1699,-6.1699,-6.1699,-6.1699,-6.1699,-6.1445,-6.0957,-5.9687,-5.9199,-5.9043,-5.7754,-5.7832,-5.8457,-5.7578,-5.7558,-5.7832,-5.7363,-5.6933,-5.668,-5.7109,-5.6933,-5.6601,-5.6601,-5.6601,-5.6601,-5.6601,-5.6601,-5.6601,-5.6601,-5.6601,-5.6601,-5.6601,-5.6601,-5.6601,-5.6601,-5.6536,-5.6511,-5.6511,-5.6387,-5.6147,-5.5726,-5.4494,-5.3445,-5.3015,-5.1948,-5.1201,-5.1113,-5.0368,-4.9606,-4.8951,-4.7777,-4.6854,-4.6317,-4.5913,-4.5699,-4.5699,-4.5699,-4.5699,-4.5699,-4.5738,-4.5738,-4.5699,-4.5738,-4.5738,-4.5738,-4.5738,-4.5738,-6.0089,-6.0531,-6.055,-5.9492,-5.7184,-5.4107,-5.0048,-4.6874,0.0,0.0,-4.0389,-4.0331,-4.0562,0.0,-4.2399,0.0,-4.5156,0.0,0.0,0.0,0.0,0.0,0.0,0.0,-6.1699,-6.1699,0.0,-6.1699,-6.1699,-6.1699,-6.1699,-6.1699,-6.1699,-6.1699,-6.1699,-6.1699,-6.1699,-6.1699,-6.1699,-6.1699,-6.1699,-6.1699,-6.1699,-6.1699,-6.1699,-6.1699,-6.1699,-6.1699,-6.1699,-6.1699,-6.1699,-6.1523,-5.9844,-5.959,-5.9941,-5.8242,-5.8164,-5.8808,-5.793,-5.7734,-5.7754,-5.6875,-5.6601,-5.6601,-5.6601,-5.6601,-5.664,-5.6836,-5.6738,-5.664,-5.6836,-5.6738,-5.6601,-5.6601,-5.6601,-5.6581,-5.6552,-5.6563,-5.6552,-5.651,-5.6442,-5.6368,-5.6361,-5.6239,-5.6156,-5.6133,-5.4801,-5.3781,-5.3783,-5.2319,-5.1256,-5.1282,-5.0532,-4.9913,-4.9586,-4.8125,-4.7144,-4.6913,-4.6086,-4.5586,-4.5586,-4.5586,-4.5586,-4.5586,-4.5586,-4.5586,-4.5586,-4.5586,-4.5586,-4.5586,-4.5586,-4.5586,-5.8511,-5.9646,-6.0416,-5.8819,-5.5895,-5.251,-4.9029,0.0,0.0,-4.0889,-4.0042,-3.9807,-4.0773,-4.1024,-4.1938,0.0,0.0,-4.6009,0.0,0.0,0.0,0.0,0.0,0.0,-6.1699,-6.1699,0.0,-6.1699,-6.1699,-6.1699,-6.1699,-6.1699,-6.1699,-6.1699,-6.1699,-6.1699,-6.1699,-6.1699,-6.1699,-6.1699,-6.1699,-6.1699,-6.1699,-6.1699,-6.1699,-6.1699,-6.1699,-6.1699,0.0,-6.1699,-6.1699,-6.1523,-5.9844,-5.9258,-5.9101,-5.7363,-5.7265,-5.789,-5.7012,-5.7246,-5.7754,-5.6875,-5.6601,-5.6601,-5.6601,-5.6601,-5.6777,-5.7558,-5.7207,-5.6777,-5.7578,-5.7187,-5.6601,-5.6601,-5.6601,-5.6579,-5.6449,-5.6406,-5.6381,-5.6258,-5.623,-5.6213,-5.6212,-5.6074,-5.592,-5.5936,-5.5068,-5.4414,-5.4414,-5.2895,-5.1838,-5.1838,-5.1222,-5.0414,-4.949,-4.8548,-4.7682,-4.6951,-4.6086,-4.5586,-4.5586,-4.5586,-4.5586,-4.5586,-4.5586,-4.5586,-4.5586,-4.5586,-4.5586,-4.5586,-4.5586,-4.5586,-5.6973,-5.88,-5.9738,-5.8066,-5.5083,-5.1545,-4.7665,0.0,-4.0825,-3.9515,-3.9406,-3.9663,-4.0079,-4.061,-4.1354,0.0,0.0,0.0,-4.7519,0.0,0.0,0.0,0.0,0.0,0.0,0.0,-6.1699,-6.1699,-6.1699,-6.1699,-6.1699,-6.1699,-6.1699,-6.1699,-6.1699,-6.1699,-6.1699,-6.1699,-6.1699,-6.1699,-6.1699,-6.1699,-6.1699,-6.1699,-6.1699,-6.1699,-6.1699,-6.1699,0.0,-6.1133,-6.0918,-6.0801,-5.9648,-5.9199,-5.9121,-5.8418,-5.8691,-5.9219,-5.7851,-5.7949,-5.8457,-5.7051,-5.6601,-5.6601,-5.6601,-5.6973,-5.7441,-5.7793,-5.7656,-5.7578,-5.8457,-5.7974,-5.714,-5.6602,-5.6407,-5.6344,-5.629,-5.6269,-5.6268,-5.6209,-5.6089,-5.6017,-5.6015,-5.5876,-5.578,-5.578,-5.5049,-5.4491,-5.4491,-5.3433,-5.2491,-5.1972,-5.1221,-5.0606,-5.0221,-4.9375,-4.8759,-4.8432,-4.7124,-4.6374,-4.6374,-4.5874,-4.5586,-4.5586,-4.5586,-4.5586,-4.5586,-4.5586,-4.5586,-4.5586,-4.5586,-4.5586,-5.4148,-5.6519,-5.7901,-5.6499,-5.3741,-5.0373,0.0,0.0,-4.0391,-3.8996,-3.9206,-3.9723,-4.0019,-4.0613,-4.1059,0.0,0.0,-4.1992,-4.4297,0.0,0.0,0.0,0.0,0.0,0.0,-6.1269,-6.1699,-6.1699,-6.1699,-6.1699,-6.1699,-6.1699,-6.1699,-6.1699,-6.1699,-6.1699,-6.1699,-6.1699,-6.1699,-6.1699,-6.1699,-6.1699,-6.1699,-6.1699,-6.1699,-6.1699,-6.1699,-6.1699,0.0,-6.1035,-6.0625,-6.0332,-5.9785,-5.9361,-5.9079,-5.8832,-5.9075,-5.9319,-5.7893,-5.7796,-5.8108,-5.6875,-5.6484,-5.6484,-5.6484,-5.7143,-5.7948,-5.8206,-5.824,-5.8278,-5.859,-5.7973,-5.71,-5.6479,-5.6265,-5.6179,-5.6121,-5.6112,-5.6109,-5.6071,-5.5955,-5.5838,-5.5838,-5.5761,-5.5703,-5.5703,-5.5222,-5.4857,-5.4857,-5.4107,-5.326,-5.2395,-5.1548,-5.0952,-5.0721,-4.9894,-4.9394,-4.9394,-4.7836,-4.6913,-4.6913,-4.6067,-4.5586,-4.5586,-4.5586,-4.5586,-4.5586,-4.5586,-4.5586,-4.5586,-4.5586,-4.5586,-4.9501,-5.2266,-5.4656,-5.3847,-5.1659,-4.8829,0.0,0.0,-4.0597,-3.9837,-3.9685,-3.9997,-4.1006,-4.1191,-4.1191,-4.1191,0.0,0.0,-4.3476,0.0,0.0,0.0,0.0,0.0,0.0,0.0,-6.1699,-6.1699,-6.1699,0.0,-6.1699,-6.1699,-6.1699,-6.1699,-6.1699,-6.1699,-6.1699,-6.1699,-6.1699,-6.1699,-6.1699,-6.1699,-6.1699,-6.1699,-6.1699,-6.1699,-6.1699,-6.1699,0.0,-6.1699,-6.1172,-6.039,-6.039,-5.9786,-5.8816,-5.7998,-5.7589,-5.7311,-5.6494,-5.6222,-5.6241,-5.6222,-5.6202,-5.6202,-5.6202,-5.6991,-5.8085,-5.8954,-5.9037,-5.8665,-5.767,-5.6825,-5.6207,-5.6194,-5.6205,-5.6148,-5.5955,-5.5917,-5.5857,-5.5722,-5.5703,-5.5703,-5.5703,-5.5703,-5.5703,-5.5703,-5.5684,-5.5684,-5.5684,-5.4972,-5.4145,-5.328,-5.2414,-5.1568,-5.076,-4.9894,-4.9394,-4.9394,-4.7836,-4.6913,-4.6913,-4.6067,-4.5586,-4.5586,-4.5586,-4.5586,-4.5586,-4.5586,-4.5586,-4.5586,-4.5586,-4.5586,-4.5677,-4.7938,-4.9537,-4.8698,-4.6961,-4.4754,-4.2006,0.0,-3.8177,-3.7342,-3.8117,-3.9041,-3.9355,-4.0391,-4.1191,-4.1191,-4.1191,0.0,0.0,0.0,0.0,0.0,0.0,0.0,0.0,0.0,-6.1055,-6.166,-6.1699,-6.1699,-6.1699,-6.1699,-6.1699,-6.1699,-6.1699,-6.1699,-6.1699,-6.1699,-6.1406,-6.082,-6.1426,-6.1387,-6.082,-6.1426,-6.1699,-6.1699,-6.1699,-6.1699,-6.1659,-6.0958,-6.0146,-5.941,-5.9932,-5.9199,-5.7912,-5.8257,-5.8334,-5.8083,-5.6692,-5.6576,-5.6924,-5.6365,-5.6191,-5.6191,-5.6191,-5.7249,-5.8509,-5.8778,-5.8798,-5.8424,-5.6946,-5.6731,-5.6733,-5.6151,-5.5915,-5.5838,-5.578,-5.5761,-5.5742,-5.5703,-5.5703,-5.5703,-5.5703,-5.5703,-5.5703,-5.5703,-5.5703,-5.5703,-5.5703,-5.5472,-5.478,-5.3356,-5.2953,-5.2222,-5.0818,-5.0452,-5.0279,-5.0279,-4.8663,-4.7721,-4.7721,-4.6355,-4.5586,-4.5586,-4.5586,-4.5586,-4.5586,-4.5586,-4.5586,-4.5586,-4.5586,-4.5586,0.0,-4.4142,-4.5377,-4.4839,-4.3661,0.0,0.0,0.0,-3.7148,-3.6601,-3.7344,-3.8301,-3.8965,-3.998,-4.082,-4.1152,-4.1191,0.0,0.0,0.0,0.0,0.0,0.0,0.0,0.0,0.0,-6.0293,-6.1152,-6.0937,-6.0762,-6.0762,-6.0762,-6.0762,-6.0762,-6.1367,-6.1699,-6.1699,-6.1367,-6.1094,-6.0898,-6.1113,-6.0937,-6.043,-6.0957,-6.1211,-6.1191,-6.0898,-6.1092,0.0,-6.0577,-5.9861,-5.935,-5.9816,-5.9103,-5.7876,-5.841,-5.8594,-5.8402,-5.736,-5.711,-5.717,-5.6667,-5.6282,-5.6071,-5.6398,-5.7525,-5.8684,-5.8634,-5.8625,-5.8303,-5.6879,-5.6571,-5.6494,-5.5955,-5.5761,-5.5703,-5.5703,-5.5703,-5.5703,-5.5703,-5.5703,-5.5703,-5.5703,-5.5703,-5.5703,-5.5703,-5.5703,-5.5703,-5.5703,-5.5703,-5.5184,-5.3837,-5.3395,-5.2645,-5.126,-5.0856,-5.0702,-5.0702,-4.9067,-4.8105,-4.8105,-4.649,-4.5586,-4.5586,-4.5586,-4.5586,-4.5586,-4.5586,-4.5586,-4.5586,-4.5586,-4.5586,0.0,-4.0762,0.0,0.0,0.0,0.0,0.0,0.0,0.0,-3.7207,-3.7266,-3.7812,-3.9492,-3.9863,-4.0195,-4.1055,0.0,0.0,0.0,0.0,0.0,0.0,0.0,0.0,0.0,0.0,-5.9433,-6.0254,-5.9608,-5.9176,-5.9176,-5.9177,-5.9159,-5.9159,-6.0663,-6.1483,-6.15,-6.0759,-6.0721,-6.1385,-6.0702,-6.0311,-6.0194,-6.0252,-6.0272,0.0,-5.9491,-5.9971,0.0,-6.0419,-5.9969,-5.9819,-5.987,-5.9271,-5.8396,-5.838,-5.8322,-5.8204,-5.8146,-5.7569,-5.6896,-5.6896,-5.6357,-5.5838,-5.6646,-5.7643,-5.8466,-5.8418,-5.8363,-5.8072,-5.7167,-5.6299,-5.5703,-5.5703,-5.5703,-5.5703,-5.5703,-5.5703,-5.5703,-5.5703,-5.5703,-5.5703,-5.5703,-5.5703,-5.5703,-5.5703,-5.5703,-5.5703,-5.5703,-5.5703,-5.5376,-5.4491,-5.3683,-5.2818,-5.1895,-5.1125,-5.0702,-5.0702,-4.9067,-4.8105,-4.8105,-4.649,-4.5586,-4.5586,-4.5586,-4.5586,-4.5586,-4.5586,-4.5586,-4.5586,-4.5586,-4.5586,-3.6565,0.0,-3.75,-3.75,-3.7363,-3.7109,0.0,0.0,-3.6309,-3.6309,0.0,-3.7637,-3.8711,-3.9453,-4.0195,-4.1055,0.0,0.0,0.0,0.0,0.0,0.0,0.0,0.0,0.0,0.0,-5.8555,-5.9414,-5.9153,-5.8978,-5.8978,-5.8857,-5.8827,-5.8827,-5.9198,-5.9443,-5.9556,-5.9908,-5.9531,-5.8418,-5.9548,-5.9393,-5.8117,-5.8808,-5.91,-5.9081,-5.8905,-5.9017,-5.9333,-5.9031,-5.8476,-5.7899,-5.8476,-5.8149,-5.7338,-5.736,-5.7341,-5.7203,-5.653,-5.6184,-5.6011,-5.6011,-5.5857,-5.5742,-5.5934,-5.6184,-5.6549,-5.7165,-5.6879,-5.628,-5.6069,-5.5838,-5.5703,-5.5703,-5.5703,-5.5703,-5.5703,-5.5703,-5.5703,-5.5703,-5.5703,-5.5703,-5.5703,-5.5703,-5.5703,-5.5703,-5.5703,-5.5703,-5.5703,-5.5703,-5.5145,-5.3664,-5.3318,-5.2606,-5.1106,-5.0798,-5.0702,-5.0702,-4.9067,-4.8105,-4.8105,-4.649,-4.5586,-4.5586,-4.5586,-4.5586,-4.5586,-4.5586,-4.5586,-4.5586,-4.5586,-4.5586,-3.5873,-3.5996,-3.5996,-3.5996,-3.5996,-3.5996,0.0,0.0,0.0,0.0,0.0,0.0,0.0,0.0,0.0,0.0,-4.2129,0.0,0.0,0.0,0.0,0.0,0.0,0.0,0.0,0.0,-5.7642,-5.8461,-5.8037,-5.773,-5.7673,-5.7598,-5.754,-5.754,-5.7463,-5.7867,-5.8792,-5.8797,-5.8532,-5.8009,-5.8545,-5.8312,-5.7424,-5.7885,-5.8099,-5.8079,-5.7711,-5.7947,-5.8571,-5.8103,-5.7822,-5.7706,-5.7684,-5.7415,-5.6992,-5.6992,-5.6992,-5.6973,-5.6915,-5.6626,-5.6222,-5.5818,-5.5703,-5.5703,-5.5703,-5.5703,-5.5799,-5.6261,-5.6338,-5.6203,-5.5799,-5.5703,-5.5703,-5.5703,-5.5703,-5.5703,-5.5703,-5.5703,-5.5703,-5.5703,-5.5703,-5.5703,-5.5703,-5.5703,-5.5703,-5.5703,-5.5703,-5.5703,-5.5703,-5.5703,-5.5338,-5.4434,-5.3664,-5.2837,-5.1914,-5.1125,-5.0702,-5.0702,-4.9067,-4.8105,-4.8105,-4.649,-4.5586,-4.5586,-4.5586,-4.5586,-4.5586,-4.5586,-4.5586,-4.5586,-4.5586,-4.5586,-3.5957,-3.5996,-3.5996,-3.5996,-3.5996,-3.5996,-3.5996,0.0,0.0,0.0,0.0,0.0,0.0,-3.8711,0.0,0.0,0.0,0.0,0.0,0.0,0.0,0.0,0.0,0.0,0.0,-5.7241,-5.679,-5.7428,-5.6769,-5.6263,-5.6167,-5.6128,-5.6128,-5.6128,-5.5974,-5.6629,-5.8233,-5.7653,-5.7651,-5.8223,-5.7632,-5.7266,-5.7131,-5.7131,-5.7131,-5.7093,0.0,0.0,-5.8014,-5.728,-5.7338,-5.7838,-5.7088,-5.6799,-5.6799,-5.6799,-5.6799,-5.6896,-5.7646,-5.7415,-5.6665,-5.5934,-5.5703,-5.5703,-5.5703,-5.5703,-5.5703,-5.5703,-5.6222,-5.6626,-5.5876,-5.5703,-5.5703,-5.5703,-5.5703,-5.5703,-5.5703,-5.5703,-5.5703,-5.5703,-5.5703,-5.5703,-5.5703,-5.5703,-5.5703,-5.5703,-5.5703,-5.5703,-5.5703,-5.5703,-5.5645,-5.553,-5.4241,-5.3299,-5.3029,-5.1702,-5.0818,-5.0702,-4.9183,-4.8182,-4.7932,-4.6432,-4.5586,-4.5586,-4.5586,-4.5586,-4.5586,-4.5586,-4.5586,-4.5586,-4.5586,-4.5663,-3.5801,-3.5996,-3.5996,-3.5996,-3.5996,-3.5996,-3.5996,0.0,0.0,0.0,0.0,0.0,0.0,-3.9199,-4.0293,0.0,0.0,-4.7168,0.0,0.0,-5.2471,-5.3858,0.0,0.0,0.0,0.0,-5.632,-5.6426,-5.6152,-5.5974,-5.5955,-5.5838,-5.578,-5.578,-5.5742,-5.5857,-5.6167,-5.6763,-5.6763,-5.6165,-5.6783,-5.6686,-5.5974,-5.5974,-5.5974,-5.5955,0.0,-5.5895,-5.6107,-5.5992,-5.5992,-5.6088,-5.5953,-5.5895,-5.5895,-5.5895,-5.5895,-5.5915,-5.6049,-5.6011,-5.5876,-5.5742,-5.5703,-5.5703,-5.5703,-5.5703,-5.5703,-5.5703,-5.5799,-5.5857,-5.5722,-5.5703,-5.5703,-5.5703,-5.5703,-5.5703,-5.5703,-5.5703,-5.5703,-5.5703,-5.5703,-5.5703,-5.5703,-5.5703,-5.5703,-5.5703,-5.5703,-5.5703,-5.5703,-5.5703,-5.5434,-5.4761,-5.4453,-5.3703,-5.2241,-5.1875,-5.1433,-5.0741,-4.976,-4.8567,-4.7144,-4.6124,-4.5586,-4.5586,-4.5586,-4.5586,-4.5586,-4.5586,-4.5586,-4.5586,-4.5586,-4.599,-3.5898,-3.5996,-3.5996,-3.5996,-3.6348,-3.6699,-3.6699,0.0,0.0,0.0,0.0,0.0,0.0,0.0,-4.1468,-4.4501,0.0,-4.907,-5.144,-5.173,-5.2194,0.0,0.0,0.0,0.0,0.0,-5.6159,-5.6062,-5.5557,-5.5416,-5.5761,-5.4876,-5.4568,-5.503,-5.4587,-5.4587,-5.5049,-5.5453,-5.5665,-5.5703,-5.6107,-5.6088,-5.5703,-5.5703,-5.5703,-5.5703,0.0,-5.5703,-5.5703,-5.5703,-5.5703,-5.5703,-5.5703,-5.5703,-5.5703,-5.5703,-5.5703,-5.5703,-5.5703,-5.5703,-5.5703,-5.5703,-5.5703,-5.5703,-5.5703,-5.5703,-5.5703,-5.5703,-5.603,-5.628,-5.5818,-5.6049,-5.628,-5.5799,-5.5703,-5.5703,-5.5703,-5.5703,-5.5703,-5.5703,-5.5703,-5.5703,-5.5703,-5.5703,-5.5703,-5.5703,-5.5703,-5.5703,-5.5703,-5.5703,-5.5549,-5.5184,-5.4337,-5.3472,-5.2683,-5.1779,-5.0894,-5.0048,-4.9625,-4.8644,-4.6971,-4.6528,-4.6086,-4.5605,-4.5586,-4.5586,-4.5586,-4.5586,-4.5586,-4.5605,-4.6086,-4.6528,-3.5996,-3.5996,-3.5996,-3.5996,0.0,-3.7109,-3.7519,0.0,0.0,0.0,0.0,0.0,0.0,0.0,0.0,-4.6352,-4.8726,-5.051,-5.1474,-5.1761,-5.2423,-5.3953,-5.3949,0.0,0.0,0.0,-5.5436,-5.528,-5.4705,-5.457,-5.5088,-5.3895,-5.351,-5.4164,-5.3549,-5.353,-5.4184,-5.4203,-5.4703,-5.5703,-5.5703,-5.5703,-5.5703,-5.5703,-5.5703,-5.5703,-5.5703,-5.5703,-5.5703,-5.5703,-5.5703,-5.5703,-5.5703,-5.5703,-5.5703,-5.5703,-5.5703,-5.5703,-5.5703,-5.5703,-5.5703,-5.5703,-5.5703,-5.5703,-5.5703,-5.5703,-5.5703,-5.5703,-5.6319,-5.6799,-5.5934,-5.6203,-5.653,-5.5857,-5.5703,-5.5703,-5.5703,-5.5703,-5.5703,-5.5703,-5.5703,-5.5703,-5.5703,-5.5703,-5.5703,-5.5703,-5.5703,-5.5703,-5.5703,-5.5703,-5.5703,-5.5703,-5.4549,-5.3626,-5.3241,-5.1664,-5.0414,-4.974,-4.951,-4.8817,-4.7548,-4.7105,-4.6663,-4.6182,-4.599,-4.599,-4.6182,-4.6182,-4.6182,-4.6201,-4.6874,-4.7298,-3.5996,-3.5996,-3.5996,-3.5996,-3.6055,0.0,-3.8144,-3.9185,0.0,-4.0691,0.0,0.0,0.0,-4.2767,-4.479,-4.5831,-4.8762,-5.1504,-5.3182,0.0,-5.4762,-5.5626,-5.4972,-5.4472,-5.4607,-5.3895,-5.3414,-5.3395,-5.3337,-5.3337,-5.3376,-5.328,-5.3241,-5.3299,-5.3241,-5.3241,-5.3299,-5.3299,-5.4107,-5.5703,-5.5703,-5.5703,-5.5703,-5.5703,-5.5703,-5.5703,-5.5703,-5.5703,-5.5703,-5.5703,-5.5703,-5.5703,-5.5703,-5.5703,-5.5703,-5.5703,-5.5703,-5.5703,-5.5703,-5.5703,-5.5703,-5.5703,-5.5703,-5.5703,-5.5703,-5.5703,-5.5703,-5.5703,-5.6319,-5.6799,-5.5934,-5.5742,-5.578,-5.5703,-5.5703,-5.5703,-5.5703,-5.5703,-5.5703,-5.5703,-5.5703,-5.5703,-5.5703,-5.5703,-5.5703,-5.5703,-5.5703,-5.5703,-5.5703,-5.5703,-5.5703,-5.5703,-5.5588,-5.4895,-5.3337,-5.1664,-5.0664,-5.0606,-4.9856,-4.9356,-4.9221,-4.774,-4.7221,-4.7913,-4.7201,-4.7182,-4.7913,-4.7913,-4.7913,-4.7913,-4.799,-4.8452,-3.5996,-3.5996,-3.5996,-3.5996,0.0,0.0,0.0,-3.9962,-4.0787,-4.1531,-4.2633,0.0,0.0,0.0,-4.5789,-4.7075,-4.9333,-5.1681,-5.3855,-5.3932,-5.4087,-5.4934,-5.4241,-5.3683,-5.3683,-5.3395,-5.3203,-5.3203,-5.2702,-5.2645,-5.3164,-5.2202,-5.1875,-5.2395,-5.1914,-5.1895,-5.2395,-5.2395,-5.2991,-5.4145,-5.4145,-5.4145,-5.4164,-5.4703,-5.4664,-5.4203,-5.5241,-5.5415,-5.4953,-5.4953,-5.4953,-5.4953,-5.4953,-5.4953,-5.5011,-5.5511,-5.5376,-5.503,-5.553,-5.5376,-5.503,-5.553,-5.5703,-5.5703,-5.5703,-5.5703,-5.5703,-5.5703,-5.5934,-5.6107,-5.578,-5.6088,-5.6357,-5.5818,-5.5703,-5.5703,-5.5703,-5.5703,-5.5703,-5.5703,-5.5703,-5.5703,-5.5703,-5.5703,-5.5703,-5.5703,-5.5703,-5.5703,-5.5703,-5.5703,-5.5703,-5.5703,-5.4761,-5.3895,-5.326,-5.1664,-5.1144,-5.2183,-5.0971,-4.9971,-4.9413,-4.8798,-4.8336,-4.8105,-4.7798,-4.7798,-4.8105,-4.8105,-4.8105,-4.8105,-4.8663,-4.9086,-3.5918,-3.5906,-3.5906,0.0,0.0,0.0,-3.9432,-4.0492,-4.1453,-4.3264,-4.3661,0.0,0.0,0.0,0.0,0.0,-4.9471,-5.1491,-5.3414,-5.3395,-5.3414,-5.401,-5.3318,-5.2799,-5.2799,-5.2568,-5.2299,-5.2029,-5.1452,-5.126,-5.1568,-5.076,-5.0529,-5.1087,-5.0837,-5.0952,-5.1529,-5.1529,-5.1818,-5.2414,-5.2414,-5.2683,-5.3222,-5.3818,-5.376,-5.326,-5.4414,-5.4607,-5.4087,-5.4087,-5.4087,-5.4126,-5.4395,-5.4491,-5.4607,-5.5395,-5.5338,-5.4953,-5.5511,-5.5338,-5.4972,-5.5511,-5.5703,-5.5703,-5.5703,-5.5703,-5.5703,-5.5703,-5.5703,-5.5703,-5.5703,-5.6126,-5.6434,-5.5838,-5.5703,-5.5703,-5.5703,-5.5703,-5.5703,-5.5703,-5.5703,-5.5703,-5.5703,-5.5703,-5.5703,-5.5703,-5.5703,-5.5703,-5.5703,-5.5703,-5.5703,-5.5703,-5.4453,-5.3606,-5.3606,-5.2318,-5.1972,-5.3126,-5.1875,-5.0818,-5.0202,-4.9683,-4.924,-4.8933,-4.8644,-4.8644,-4.8913,-4.8913,-4.8913,-4.8933,-4.9529,-4.9798,-3.5749,-3.5703,0.0,0.0,0.0,0.0,-4.0149,-4.0756,-4.1986,-4.6126,0.0,-4.4586,-4.5432,0.0,0.0,-4.6624,-4.9029,-5.0971,-5.1798,-5.2645,-5.3164,-5.3203,-5.2414,-5.1895,-5.1895,-5.1164,-5.0317,-4.9452,-4.9394,-4.9009,-4.8144,-4.8913,-4.9394,-4.9394,-5.0221,-5.0664,-5.0664,-5.0664,-5.0664,-5.0664,-5.0664,-5.1548,-5.3183,-5.3183,-5.3183,-5.3183,-5.3203,-5.3203,-5.3203,-5.3203,-5.3183,-5.326,-5.4145,-5.4491,-5.4587,-5.5395,-5.5703,-5.5684,-5.5703,-5.5684,-5.5684,-5.5703,-5.5703,-5.5703,-5.5703,-5.5703,-5.5703,-5.5703,-5.5703,-5.5703,-5.5703,-5.5703,-5.5703,-5.5703,-5.5703,-5.5703,-5.5703,-5.5703,-5.5703,-5.5703,-5.5703,-5.5703,-5.5703,-5.5703,-5.5703,-5.5703,-5.5703,-5.5703,-5.5703,-5.5703,-5.5703,-5.5703,-5.4972,-5.4491,-5.4511,-5.3703,-5.3203,-5.3222,-5.2395,-5.1914,-5.1914,-5.0298,-4.9817,-5.0664,-4.9856,-4.9837,-5.0702,-5.0702,-5.0702,-5.0702,-5.0702,-5.0702,-3.5712,0.0,0.0,-3.6465,0.0,0.0,0.0,-4.1116,0.0,0.0,0.0,-4.5278,-4.5547,0.0,0.0,-4.6817,-4.8529,-5.0279,-5.1702,-5.1106,-5.0952,-5.2164,-5.1029,-5.0144,-5.0144,-4.9933,-4.9413,-4.8548,-4.849,-4.8375,-4.8105,-4.8355,-4.849,-4.849,-4.874,-4.8875,-4.8875,-4.8875,-4.8875,-4.8875,-4.8875,-4.976,-5.1452,-5.2029,-5.1991,-5.151,-5.2683,-5.2856,-5.2299,-5.2299,-5.1952,-5.1568,-5.3029,-5.3587,-5.376,-5.5184,-5.5338,-5.4934,-5.5491,-5.5318,-5.4953,-5.5511,-5.5703,-5.5703,-5.5703,-5.5703,-5.5703,-5.5703,-5.5703,-5.5703,-5.5703,-5.5703,-5.5703,-5.5703,-5.5703,-5.5703,-5.5703,-5.5703,-5.5703,-5.5703,-5.5703,-5.5703,-5.5703,-5.5703,-5.5703,-5.5703,-5.5703,-5.5703,-5.5703,-5.5703,-5.5703,-5.5703,-5.4972,-5.4722,-5.5299,-5.403,-5.3453,-5.4087,-5.2722,-5.1914,-5.1914,-5.0875,-5.0433,-5.0683,-5.0452,-5.0433,-5.0702,-5.0702,-5.0702,-5.0702,-5.0702,-5.0702,-3.6026,0.0,0.0,-3.7185,-3.8223,-3.9627,-4.186,0.0,0.0,0.0,0.0,-4.5701,-4.6047,-4.599,0.0,-4.6797,-4.7759,-4.8875,-5.0202,-4.9529,-4.926,-5.0279,-4.951,-4.8875,-4.8875,-4.8875,-4.8529,-4.7702,-4.7625,-4.7471,-4.7124,-4.7451,-4.7625,-4.7625,-4.7932,-4.8105,-4.8105,-4.8105,-4.8105,-4.8105,-4.8105,-4.8644,-4.9683,-5.0183,-5.0317,-5.026,-5.1625,-5.1914,-5.1414,-5.1414,-5.1144,-5.0818,-5.2164,-5.2683,-5.2856,-5.4203,-5.4395,-5.4049,-5.453,-5.4626,-5.4587,-5.5068,-5.5434,-5.5703,-5.5703,-5.5703,-5.5703,-5.5703,-5.5703,-5.5703,-5.5703,-5.5703,-5.5703,-5.5703,-5.5703,-5.5703,-5.5703,-5.5703,-5.5703,-5.5703,-5.5703,-5.5703,-5.5703,-5.5703,-5.5703,-5.5703,-5.5703,-5.5703,-5.5703,-5.5703,-5.5703,-5.5703,-5.5261,-5.5164,-5.5665,-5.4761,-5.428,-5.4491,-5.3203,-5.226,-5.1914,-5.1125,-5.0702,-5.0702,-5.0702,-5.0702,-5.0702,-5.0702,-5.0702,-5.0702,-5.0702,-5.0702,-3.6507,0.0,0.0,-3.7969,-3.9546,0.0,-4.2951,-4.5124,-4.6778,-4.6778,0.0,-4.5951,-4.6759,-4.5605,-4.5066,-4.6644,-4.6971,-4.7259,-4.8009,-4.8048,-4.8029,-4.8086,-4.8048,-4.799,-4.799,-4.799,-4.7663,-4.6836,-4.6778,-4.6432,-4.5624,-4.6355,-4.6778,-4.6778,-4.749,-4.7875,-4.7875,-4.7875,-4.7875,-4.7875,-4.7875,-4.7875,-4.7875,-4.8029,-4.8529,-4.9336,-5.0106,-5.051,-5.0567,-5.0567,-5.0625,-5.0779,-5.1587,-5.1914,-5.201,-5.2876,-5.3203,-5.3203,-5.3203,-5.3722,-5.4395,-5.4472,-5.4991,-5.5588,-5.5684,-5.5703,-5.5703,-5.5703,-5.5703,-5.5703,-5.5703,-5.5645,-5.5607,-5.5684,-5.5703,-5.5703,-5.5703,-5.5703,-5.5703,-5.5703,-5.5703,-5.5703,-5.5703,-5.5703,-5.5703,-5.5703,-5.5703,-5.5703,-5.5703,-5.5703,-5.5703,-5.5703,-5.5703,-5.5703,-5.5703,-5.5703,-5.5318,-5.4434,-5.3645,-5.2779,-5.1837,-5.1087,-5.0702,-5.0702,-5.0702,-5.0702,-5.0702,-5.0702,-5.0702,-5.0702,-5.0702,-5.0702,0.0,-3.6699,0.0,0.0,-4.1739,-4.3758,-4.4816,-4.549,-4.5874,-4.5874,-4.6278,-4.6682,-4.6874,-4.6586,-4.6471,-4.6836,-4.7432,-4.7894,-4.8086,-4.7567,-4.7394,-4.8029,-4.7548,-4.7163,-4.7163,-4.7163,-4.6797,-4.5932,-4.5874,-4.5797,-4.5605,-4.5778,-4.5874,-4.5874,-4.6047,-4.6144,-4.6144,-4.6144,-4.6144,0.0,-4.6144,-4.6144,-4.6182,-4.7509,-4.8202,-4.8394,-4.8586,-4.9048,-4.9683,-4.9683,-5.0067,-5.0779,-5.1587,-5.1914,-5.201,-5.2876,-5.3203,-5.3203,-5.3203,-5.3318,-5.3587,-5.428,-5.4626,-5.4876,-5.5511,-5.5703,-5.5703,-5.5703,-5.5703,-5.5703,-5.5703,-5.5222,-5.4914,-5.5549,-5.5703,-5.5703,-5.5703,-5.5703,-5.5703,-5.5703,-5.5703,-5.5703,-5.5703,-5.5703,-5.5703,-5.5703,-5.5703,-5.5703,-5.5703,-5.5703,-5.5703,-5.5703,-5.5703,-5.5703,-5.5703,-5.5703,-5.5049,-5.3568,-5.3299,-5.2529,-5.101,-5.0779,-5.0702,-5.0702,-5.0702,-5.0702,-5.0702,-5.0702,-5.0702,-5.0702,-5.0702,-5.0702,0.0,0.0,0.0,0.0,0.0,0.0,-4.5297,-4.5586,-4.5586,-4.5586,-4.5951,-4.6278,-4.6278,-4.6278,-4.6278,-4.6278,-4.6624,-4.6894,-4.6894,-4.6547,-4.6432,-4.6855,-4.6528,-4.6278,-4.6278,-4.6278,-4.6086,-4.5624,-4.5586,-4.5586,-4.5586,-4.5586,-4.5586,-4.5586,-4.5586,-4.5586,-4.5586,-4.5586,-4.5586,-4.5586,-4.5586,-4.5586,-4.5624,-4.6932,-4.7528,-4.7548,-4.7932,-4.8355,-4.8779,-4.8779,-4.9048,-4.949,-4.9933,-5.0337,-5.076,-5.1202,-5.1645,-5.1991,-5.1991,-5.226,-5.2664,-5.3106,-5.3549,-5.3953,-5.4376,-5.4491,-5.4587,-5.5011,-5.5126,-5.5203,-5.5588,-5.5395,-5.5068,-5.5126,-5.5126,-5.5222,-5.5607,-5.5703,-5.5703,-5.5703,-5.5703,-5.5703,-5.5703,-5.5703,-5.5703,-5.5703,-5.5703,-5.5703,-5.5703,-5.5703,-5.5703,-5.5703,-5.5703,-5.5703,-5.5703,-5.5338,-5.4568,-5.328,-5.2818,-5.201,-5.0741,-5.0702,-5.0702,-5.0702,-5.0702,-5.0702,-5.0702,-5.0702,-5.0702,-5.0702,-5.0702,-5.0702,0.0,0.0,0.0,0.0,0.0,0.0,-4.5028,-4.5259,-4.524,-4.5528,-4.5586,-4.5586,-4.5586,-4.5586,-4.5586,-4.5586,-4.5586,-4.5586,-4.5586,-4.5586,-4.5586,-4.5586,-4.5586,-4.5586,-4.5586,-4.5586,-4.5586,-4.5586,-4.5586,-4.5586,-4.5586,-4.5586,-4.5586,-4.5586,-4.5586,-4.5586,-4.5586,-4.5586,-4.5586,-4.5586,-4.5586,-4.5586,-4.5605,-4.6355,-4.6682,-4.6721,-4.7375,-4.7759,-4.7894,-4.7894,-4.7971,-4.8105,-4.8105,-4.8548,-4.9183,-4.9183,-4.9721,-5.0471,-5.0471,-5.101,-5.1722,-5.1856,-5.2395,-5.301,-5.3145,-5.3203,-5.3376,-5.4241,-5.4491,-5.4684,-5.5491,-5.5588,-5.5357,-5.4818,-5.4491,-5.4491,-5.5318,-5.5588,-5.5703,-5.5703,-5.5703,-5.5703,-5.5703,-5.5703,-5.5703,-5.5703,-5.5703,-5.5703,-5.5703,-5.5703,-5.5703,-5.5703,-5.5703,-5.5703,-5.5703,-5.5088,-5.428,-5.326,-5.2529,-5.1702,-5.0741,-5.0702,-5.0702,-5.0702,-5.0702,-5.0702,-5.0702,-5.0702,-5.0702,-5.0702,-5.0702,-5.0702,0.0,0.0,0.0,0.0,0.0,-4.3335,0.0,0.0,-4.3855,0.0,-4.5586,-4.5586,-4.5586,-4.5586,-4.5586,-4.5586,-4.5586,-4.5586,-4.5586,-4.5586,-4.5586,-4.5586,-4.5586,-4.5586,-4.5586,-4.5586,-4.5586,-4.5586,-4.5586,-4.5586,-4.5586,-4.5586,-4.5586,-4.5586,-4.5586,-4.5586,-4.5586,-4.5586,-4.5586,-4.5586,-4.5586,-4.5586,-4.5586,-4.572,-4.5759,-4.5778,-4.5893,-4.6355,-4.7067,-4.7067,-4.7471,-4.8105,-4.8105,-4.8182,-4.8279,-4.8279,-4.8836,-4.9567,-4.9567,-5.0144,-5.0971,-5.1683,-5.1991,-5.2222,-5.2972,-5.3203,-5.3376,-5.4241,-5.4491,-5.4684,-5.5491,-5.5184,-5.4799,-5.5395,-5.4434,-5.3606,-5.4472,-5.5203,-5.5703,-5.5703,-5.5703,-5.5703,-5.5703,-5.5703,-5.5703,-5.5703,-5.5703,-5.5703,-5.5703,-5.5703,-5.5703,-5.5703,-5.5703,-5.5703,-5.5703,-5.5588,-5.4876,-5.3299,-5.3087,-5.2337,-5.076,-5.0702,-5.0702,-5.0702,-5.0702,-5.0702,-5.0702,-5.0702,-5.0702,-5.0702,-5.0702,-5.0702,-3.6488,0.0,0.0,0.0,0.0,0.0,-4.3431,0.0,-4.3316,-4.4047,-4.4201,-4.4489,-4.5432,-4.5586,-4.5586,-4.5586,-4.5586,-4.5586,-4.5586,-4.5586,-4.5586,-4.5586,-4.5586,-4.5586,-4.5586,-4.5586,-4.5513,-4.5342,-4.5322,-4.5322,-4.5322,-4.5322,-4.54,-4.5586,-4.5586,-4.5586,-4.5586,-4.5586,-4.5586,-4.5586,-4.5586,-4.5586,-4.5586,-4.5586,-4.5586,-4.5586,-4.5586,-4.5817,-4.6163,-4.6163,-4.6374,-4.6701,-4.6701,-4.7009,-4.7432,-4.7432,-4.7971,-4.874,-4.9221,-4.9644,-5.0106,-5.0952,-5.1221,-5.1298,-5.1683,-5.1798,-5.1972,-5.2818,-5.3049,-5.3241,-5.4087,-5.4049,-5.3741,-5.3606,-5.376,-5.378,-5.3164,-5.4087,-5.5164,-5.5607,-5.5703,-5.5703,-5.5703,-5.5703,-5.5703,-5.5703,-5.5703,-5.5703,-5.5703,-5.5703,-5.5703,-5.5703,-5.5703,-5.5703,-5.5703,-5.528,-5.4491,-5.328,-5.2741,-5.1933,-5.0741,-5.0702,-5.0702,-5.0702,-5.0702,-5.0702,-5.0702,-5.0702,-5.0702,-5.0702,-5.0702,-5.0702,0.0,0.0,0.0,0.0,0.0,0.0,0.0,0.0,-4.248,0.0,-4.2912,-4.3184,-4.4573,-4.507,-4.5259,-4.5259,-4.5451,-4.5586,-4.5586,-4.5586,-4.5586,-4.5586,-4.5586,-4.5586,-4.5586,-4.5586,-4.5457,-4.5137,-4.518,-4.514,-4.4966,-4.5052,-4.5222,-4.5476,-4.5457,-4.5513,-4.5586,-4.5586,-4.5586,-4.5586,-4.5586,-4.5586,-4.5586,-4.5586,-4.5586,-4.5586,-4.5586,-4.5586,-4.5586,-4.5586,-4.5586,-4.5586,-4.5586,-4.599,-4.6567,-4.6567,-4.7086,-4.7894,-4.8548,-4.8894,-4.9183,-4.9817,-5.0183,-5.0356,-5.0356,-5.051,-5.0856,-5.1683,-5.1914,-5.2106,-5.2972,-5.3203,-5.3049,-5.2395,-5.3049,-5.3664,-5.301,-5.3722,-5.4741,-5.553,-5.5703,-5.5703,-5.5703,-5.5703,-5.5703,-5.5703,-5.5703,-5.5703,-5.5703,-5.5703,-5.5703,-5.5703,-5.5703,-5.5703,-5.5703,-5.5145,-5.4357,-5.328,-5.2587,-5.1779,-5.0741,-5.0702,-5.0702,-5.0702,-5.0702,-5.0702,-5.0702,-5.0702,-5.0702,-5.0702,-5.0702,-5.0702,0.0,0.0,0.0,0.0,0.0,0.0,0.0,0.0,0.0,0.0,-4.245,-4.2057,-4.2661,-4.3636,-4.4374,-4.4374,-4.5047,-4.5586,-4.5586,-4.5586,-4.5586,-4.5586,-4.5586,-4.5586,-4.5586,-4.5586,-4.5457,-4.5137,-4.5381,-4.5302,-4.4657,-4.4919,-4.5096,-4.5137,-4.5137,-4.5282,-4.5586,-4.5586,-4.5586,-4.5586,-4.5586,-4.5586,-4.5586,-4.5586,-4.5586,-4.5586,-4.5586,-4.5586,-4.5586,-4.5586,-4.5586,-4.5586,-4.5586,-4.5624,-4.5663,-4.5663,-4.622,-4.6971,-4.7009,-4.7528,-4.8182,-4.8221,-4.8798,-4.9471,-4.9471,-5.0029,-5.0856,-5.1683,-5.1914,-5.2106,-5.2972,-5.3203,-5.3203,-5.3145,-5.2568,-5.2683,-5.4991,-5.4972,-5.4741,-5.553,-5.5703,-5.5703,-5.5703,-5.5703,-5.5703,-5.5703,-5.5703,-5.5703,-5.5703,-5.5703,-5.5703,-5.5703,-5.5703,-5.5703,-5.5703,-5.5665,-5.4934,-5.3299,-5.3164,-5.2395,-5.076,-5.0702,-5.0702,-5.0702,-5.0702,-5.0702,-5.0702,-5.0702,-5.0702,-5.0702,-5.0702,-5.0702,0.0,0.0,0.0,0.0,-3.7833,-3.8364,0.0,-3.9432,-3.9345,-4.0589,-4.061,-4.0435,-4.0634,-4.2044,-4.3197,-4.3197,-4.3465,-4.3752,-4.3972,-4.3989,-4.3918,-4.3695,-4.3676,-4.3788,-4.4075,-4.411,-4.418,-4.4371,-4.4516,-4.4463,-4.4233,-4.4346,-4.4508,-4.4757,-4.4776,-4.4943,-4.5282,-4.5495,-4.5586,-4.5586,-4.5586,-4.5586,-4.5586,-4.5586,-4.5586,-4.5586,-4.5586,-4.5586,-4.5586,-4.5586,-4.5586,-4.5586,-4.5586,-4.5586,-4.5586,-4.5586,-4.5797,-4.6144,-4.6721,-4.7086,-4.7413,-4.7932,-4.8317,-4.8663,-4.9221,-4.9625,-5.0029,-5.0894,-5.1125,-5.1202,-5.151,-5.1606,-5.1722,-5.2241,-5.1741,-5.1664,-5.3664,-5.4318,-5.4414,-5.4145,-5.4953,-5.553,-5.5011,-5.5357,-5.5703,-5.5703,-5.5703,-5.5703,-5.5703,-5.5703,-5.5491,-5.4972,-5.5395,-5.5491,-5.4972,-5.5395,-5.4972,-5.3318,-5.3203,-5.2452,-5.076,-5.0702,-5.0702,-5.0702,-5.0702,-5.0702,-5.0702,-5.0702,-5.0702,-5.0702,-5.0702,-5.0702,-3.5737,0.0,0.0,0.0,0.0,-3.7145,-3.806,0.0,-3.8409,-3.9071,-3.941,-3.9576,-3.9438,-4.0533,-4.1567,-4.1958,-4.2349,-4.2679,-4.2907,-4.2925,-4.2851,-4.262,-4.25,-4.2538,-4.2875,-4.2888,-4.298,-4.317,-4.3538,0.0,-4.3052,-4.3397,-4.3594,-4.3592,-4.3943,-4.4272,-4.4505,-4.5129,-4.5438,-4.5438,-4.555,-4.5586,-4.5586,-4.5586,-4.5586,-4.5586,-4.5586,-4.5586,-4.5586,-4.5586,-4.5586,-4.5586,-4.5586,-4.5586,-4.5586,-4.5586,-4.5586,-4.5682,-4.6259,-4.6471,-4.6547,-4.7086,-4.7471,-4.7817,-4.8394,-4.8952,-4.951,-5.0087,-5.0471,-5.0702,-5.0702,-5.0702,-5.0818,-5.1375,-5.1087,-5.101,-5.2125,-5.3029,-5.3549,-5.326,-5.4107,-5.478,-5.453,-5.4934,-5.5395,-5.5665,-5.5703,-5.5703,-5.5703,-5.5453,-5.5088,-5.4549,-5.4722,-5.4645,-5.4107,-5.4549,-5.426,-5.2856,-5.276,-5.2145,-5.076,-5.0702,-5.0702,-5.0702,-5.0702,-5.0702,-5.0702,-5.0702,-5.0702,-5.0702,-5.0702,-5.0702,0.0,0.0,0.0,0.0,0.0,0.0,-3.6898,0.0,-3.7935,-3.8305,-3.8991,-3.9443,-3.9133,-3.9099,-3.9466,-4.0626,-4.1781,-4.2484,-4.2504,-4.2504,-4.2524,-4.2484,-4.2208,-4.2019,-4.2038,-4.2057,-4.1907,-4.1633,-4.2626,-4.2604,-4.1181,-4.2149,-4.2377,-4.1595,-4.2671,-4.3265,-4.3265,-4.4467,-4.5058,-4.508,-4.54,-4.5547,-4.5547,-4.5528,-4.5528,-4.5528,-4.5547,-4.5547,-4.5547,-4.5586,-4.5586,-4.5586,-4.5586,-4.5586,-4.5586,-4.5586,-4.5586,-4.5586,-4.5586,-4.5586,-4.5586,-4.5586,-4.6163,-4.6874,-4.6894,-4.8048,-4.9336,-4.9356,-4.9971,-5.0625,-5.0644,-5.0664,-5.0702,-5.0702,-5.0702,-5.0702,-5.0702,-5.1318,-5.2125,-5.2972,-5.3164,-5.3472,-5.4318,-5.4472,-5.4761,-5.5568,-5.5703,-5.5703,-5.5703,-5.4991,-5.4491,-5.4453,-5.3703,-5.3203,-5.3164,-5.3203,-5.2837,-5.1972,-5.1914,-5.1548,-5.0721,-5.0702,-5.0702,-5.0702,-5.0702,-5.0702,-5.0702,-5.0702,-5.0702,-5.0702,-5.0702,-5.0702,-3.685,0.0,0.0,0.0,0.0,0.0,0.0,0.0,0.0,-3.7479,-3.7933,-3.821,-3.8722,-3.8833,-3.8918,-3.9256,-3.9738,-4.0164,-4.0394,-4.0416,-4.0348,-4.009,-3.9989,-4.0093,-4.0481,-4.0507,-4.0707,0.0,-4.1527,-4.1533,-4.113,-4.1392,-4.1488,-4.1267,-4.1771,-4.2179,-4.2429,-4.3634,-4.4325,-4.4517,-4.4608,-4.4662,-4.4643,-4.4066,-4.3797,-4.3816,-4.4412,-4.4662,-4.4701,-4.5336,-4.5586,-4.5586,-4.5586,-4.5586,-4.5586,-4.5586,-4.5586,-4.5586,-4.5586,-4.5586,-4.5586,-4.5586,-4.5759,-4.6086,-4.6721,-4.7221,-4.7721,-4.8298,-4.8625,-4.8952,-4.9606,-5.0221,-5.0702,-5.0702,-5.0702,-5.0702,-5.0702,-5.0856,-5.1106,-5.1337,-5.2375,-5.328,-5.353,-5.4087,-5.4761,-5.5568,-5.5703,-5.5703,-5.5703,-5.4991,-5.426,-5.3626,-5.3337,-5.2953,-5.2318,-5.2837,-5.2837,-5.1972,-5.1914,-5.1548,-5.0721,-5.0702,-5.0702,-5.0702,-5.0702,-5.0702,-5.0702,-5.0702,-5.0702,-5.0702,-5.0702,-5.0702,0.0,0.0,0.0,0.0,0.0,0.0,-3.4877,-3.4897,-3.5385,0.0,-3.7257,-3.7734,-3.856,-3.8707,-3.8707,-3.8707,-3.8844,-3.9027,-3.9358,-3.9389,-3.9314,-3.9107,-3.8999,-3.9069,-3.9381,-3.9405,-3.9588,-4.0065,-4.0414,-4.0598,-4.0598,-4.0286,-4.0102,-4.0102,-4.0609,-4.0977,-4.1176,-4.2484,-4.324,-4.3386,-4.3672,-4.3797,-4.3778,-4.3316,-4.3104,-4.3124,-4.3605,-4.3797,-4.3855,-4.4701,-4.5259,-4.5586,-4.5586,-4.5586,-4.5586,-4.5586,-4.5586,-4.5586,-4.5586,-4.5586,-4.5586,-4.5586,-4.5586,-4.5682,-4.6201,-4.6605,-4.7009,-4.7471,-4.8105,-4.8682,-4.8817,-4.976,-5.051,-4.9779,-4.9894,-5.0048,-4.9683,-4.9625,-4.9817,-5.0548,-5.1491,-5.226,-5.2606,-5.3087,-5.3818,-5.5011,-5.4895,-5.478,-5.5145,-5.4164,-5.3222,-5.2722,-5.2356,-5.1952,-5.1433,-5.1856,-5.1933,-5.1433,-5.1395,-5.1183,-5.0721,-5.0702,-5.0702,-5.0702,-5.0702,-5.0702,-5.0702,-5.0702,-5.0702,-5.0702,-5.0702,-5.0702,0.0,0.0,0.0,0.0,0.0,0.0,-3.4119,-3.4431,-3.5128,-3.5973,-3.6707,-3.7459,-3.8285,-3.8432,-3.8432,-3.8432,-3.8505,-3.8681,-3.9008,-3.9063,-3.9063,-3.9063,-3.8844,-3.8707,-3.8707,-3.8707,-3.8707,-3.8707,-3.935,-3.9772,-3.9772,-3.9093,-3.8707,-3.8707,-3.9386,-3.9816,-3.986,-4.1255,-4.1982,-4.2054,-4.268,-4.297,-4.2951,-4.2854,-4.2816,-4.2816,-4.2912,-4.297,-4.3028,-4.3835,-4.4682,-4.547,-4.5547,-4.5586,-4.5586,-4.5586,-4.5586,-4.5586,-4.5586,-4.5586,-4.5586,-4.5586,-4.5586,-4.5586,-4.5586,-4.6144,-4.6759,-4.6759,-4.7894,-4.8933,-4.8163,-4.9183,-5.001,-4.8471,-4.8682,-4.9048,-4.8279,-4.8105,-4.8567,-5.0106,-5.0491,-5.0837,-5.1741,-5.1914,-5.2472,-5.4107,-5.3703,-5.3491,-5.426,-5.2933,-5.1914,-5.1914,-5.1183,-5.0702,-5.0702,-5.0702,-5.0702,-5.0702,-5.0702,-5.0702,-5.0702,-5.0702,-5.0702,-5.0702,-5.0702,-5.0702,-5.0702,-5.0702,-5.0702,-5.0702,-5.0702,-5.0702,0.0,0.0,0.0,0.0,0.0,0.0,-3.4954,-3.4394,-3.4284,0.0,-3.5385,-3.5752,-3.6615,-3.6762,-3.6762,-3.6762,-3.7312,-3.7966,-3.87,-3.8792,-3.8792,-3.8792,-3.8719,-3.8707,-3.8707,-3.8707,-3.8707,-3.8707,-3.8854,-3.8927,-3.8927,-3.8799,-3.8707,-3.8707,-3.8854,-3.9153,-3.9652,-4.0626,-4.1383,-4.1872,-4.1978,-4.2047,-4.2027,-4.1335,-4.1008,-4.1046,-4.1758,-4.2047,-4.2124,-4.2989,-4.3816,-4.4624,-4.5316,-4.5586,-4.5586,-4.5586,-4.5586,-4.5586,-4.5586,-4.5586,-4.5586,-4.5586,-4.5586,-4.5586,-4.5586,-4.572,-4.5855,-4.5855,-4.6586,-4.7355,-4.7182,-4.7875,-4.8529,-4.8182,-4.824,-4.8317,-4.8144,-4.8105,-4.8202,-4.8548,-4.9163,-5.0125,-5.1645,-5.1914,-5.226,-5.3299,-5.3318,-5.326,-5.3433,-5.2549,-5.1914,-5.1914,-5.1183,-5.0702,-5.0702,-5.0702,-5.0702,-5.0702,-5.0702,-5.0702,-5.0702,-5.0702,-5.0702,-5.0702,-5.0702,-5.0702,-5.0702,-5.0702,-5.0702,-5.0702,-5.0702,-5.0702,0.0,0.0,0.0,-3.7679,0.0,0.0,0.0,-3.4679,-3.4523,-3.4917,-3.499,-3.5275,-3.6138,-3.6303,-3.6303,-3.6303,-3.6964,-3.7624,-3.8028,-3.845,-3.8707,-3.8707,-3.8707,-3.8707,-3.8707,-3.8707,-3.8707,-3.8707,-3.8707,-3.8707,-3.8707,-3.8815,-3.8894,-3.8894,-3.9045,-3.9275,-3.9599,-4.0192,-4.0651,-4.0955,-4.1094,-4.1143,-4.1143,-4.07,-4.0489,-4.0508,-4.095,-4.1143,-4.1219,-4.2085,-4.2701,-4.3181,-4.4451,-4.522,-4.5586,-4.5586,-4.5586,-4.5586,-4.5586,-4.5586,-4.5586,-4.5586,-4.5586,-4.5586,-4.5586,-4.5586,-4.5586,-4.5586,-4.622,-4.6797,-4.6355,-4.7163,-4.7894,-4.7048,-4.7182,-4.7375,-4.6951,-4.6855,-4.6971,-4.7432,-4.7855,-4.8682,-5.0356,-5.101,-5.1587,-5.2433,-5.2202,-5.2106,-5.251,-5.1818,-5.1298,-5.1298,-5.0933,-5.0702,-5.0702,-5.0702,-5.0702,-5.0702,-5.0702,-5.0702,-5.0702,-5.0702,-5.0702,-5.0702,-5.0702,-5.0702,-5.0702,-5.0702,-5.0702,-5.0702,-5.0702,-5.0702,0.0,0.0,0.0,0.0,0.0,-3.7147,0.0,0.0,0.0,0.0,0.0,0.0,0.0,0.0,0.0,0.0,0.0,0.0,0.0,-3.7624,0.0,-3.867,-3.856,-3.8524,-3.8689,-3.8707,-3.8707,-3.8707,-3.8707,-3.8707,-3.8707,-3.8894,-3.9063,-3.9099,-3.9364,-3.9576,-3.9709,-3.9963,-4.012,-4.0177,-4.0389,-4.0489,-4.0489,-4.0489,-4.0489,-4.0489,-4.0489,-4.0489,-4.0546,-4.1258,-4.1662,-4.197,-4.3643,-4.472,-4.5355,-4.5528,-4.5586,-4.5586,-4.5586,-4.5586,-4.5586,-4.5586,-4.5586,-4.5586,-4.5586,-4.5586,-4.5586,-4.5586,-4.6105,-4.649,-4.5778,-4.6605,-4.7278,-4.5913,-4.6144,-4.6471,-4.574,-4.5586,-4.5797,-4.6509,-4.6797,-4.7375,-4.8894,-4.9875,-5.0664,-5.1318,-5.101,-5.0933,-5.1587,-5.1106,-5.0702,-5.0702,-5.0702,-5.0702,-5.0702,-5.0702,-5.0702,-5.0702,-5.0702,-5.0702,-5.0702,-5.0702,-5.0702,-5.0702,-5.0702,-5.0702,-5.0702,-5.0702,-5.0702,-5.0702,-5.0702,-5.0702,0.0,0.0,0.0,0.0,-3.8028,0.0,0.0,0.0,-3.6156,-3.6156,0.0,0.0,0.0,0.0,0.0,0.0,0.0,0.0,-3.4321,-3.5569,-3.7092,-3.8542,-3.8065,-3.7918,-3.8634,-3.8707,-3.8707,-3.8707,-3.8707,-3.8707,-3.8707,-3.8719,-3.8855,-3.9099,-3.9152,-3.9438,-4.0022,-4.0081,-4.0213,-4.0457,-4.0489,-4.0489,-4.0489,-4.0489,-4.0489,-4.0489,-4.0489,-4.0489,-4.0508,-4.0604,-4.1104,-4.197,-4.3643,-4.4355,-4.4528,-4.5316,-4.5586,-4.5586,-4.5586,-4.5586,-4.5586,-4.5586,-4.5586,-4.5586,-4.5586,-4.5586,-4.5586,-4.5586,-4.5663,-4.572,-4.5624,-4.574,-4.5836,-4.5643,-4.5682,-4.572,-4.5605,-4.5586,-4.5624,-4.572,-4.6374,-4.7201,-4.8086,-4.8971,-4.9586,-4.9663,-5.026,-5.0721,-5.0818,-5.076,-5.0702,-5.0702,-5.0702,-5.0702,-5.0702,-5.0702,-5.0702,-5.0702,-5.0702,-5.0702,-5.0702,-5.0702,-5.0702,-5.0702,-5.0702,-5.0702,-5.0702,-5.0702,-5.0702,-5.0702,-5.0702,-5.0702,0.0,0.0,0.0,0.0,0.0,0.0,-3.7617,0.0,-3.6853,0.0,0.0,0.0,0.0,0.0,0.0,0.0,-3.455,0.0,0.0,0.0,-3.5991,0.0,0.0,0.0,-3.7918,0.0,0.0,-3.8707,-3.8707,-3.8707,-3.8707,-3.8844,-3.8971,-3.9099,-3.9289,-3.9622,-4.0101,-4.0101,-4.0232,-4.0489,-4.0489,-4.0489,-4.0489,-4.0489,-4.0489,-4.0489,-4.0489,-4.0489,-4.0489,-4.0489,-4.0719,-4.1162,-4.2374,-4.3431,-4.4335,-4.4701,-4.5163,-4.5586,-4.5586,-4.5586,-4.5586,-4.5586,-4.5586,-4.5586,-4.5586,-4.5586,-4.5586,-4.5586,-4.5586,-4.5586,-4.5586,-4.5586,-4.5586,-4.5586,-4.5586,-4.5586,-4.5586,-4.5586,-4.5586,-4.5586,-4.5893,-4.624,-4.6586,-4.7759,-4.8817,-4.9317,-4.9702,-5.0125,-5.0625,-5.0702,-5.0702,-5.0702,-5.0702,-5.0702,-5.0702,-5.0702,-5.0702,-5.0702,-5.0702,-5.0702,-5.0702,-5.0702,-5.0702,-5.0702,-5.0702,-5.0702,-5.0702,-5.0702,-5.0702,-5.0702,-5.0702,-5.0702,-3.8707,0.0,0.0,0.0,0.0,0.0,0.0,0.0,0.0,0.0,0.0,0.0,0.0,0.0,0.0,0.0,0.0,-3.4917,0.0,-3.4688,0.0,0.0,0.0,0.0,0.0,0.0,-3.8046,-3.8046,-3.8248,-3.8377,-3.8377,-3.8755,-3.9008,-3.9099,-3.9358,-3.9622,-3.9962,-4.0042,-4.0195,-4.0389,-4.0473,-4.0489,-4.0489,-4.0489,-4.0489,-4.0489,-4.0489,-4.0489,-4.0489,-4.0489,-4.0489,-4.0546,-4.12,-4.2335,-4.3662,-4.4124,-4.4701,-4.5278,-4.5509,-4.5586,-4.5586,-4.5586,-4.5586,-4.5586,-4.5586,-4.5586,-4.5586,-4.5586,-4.5586,-4.5586,-4.5586,-4.5586,-4.5586,-4.5586,-4.5586,-4.5586,-4.5586,-4.5586,-4.5586,-4.5586,-4.5586,-4.5586,-4.5586,-4.6817,-4.8067,-4.8913,-4.924,-4.9702,-5.0587,-5.0702,-5.0702,-5.0702,-5.0702,-5.0702,-5.0702,-5.0702,-5.0702,-5.0702,-5.0702,-5.0702,-5.0702,-5.0702,-5.0702,-5.0702,-5.0702,-5.0702,-5.0702,-5.0702,-5.0702,-5.0702,-5.0702,-5.0702,0.0,0.0,0.0,-3.8707,0.0,0.0,0.0,0.0,-3.8652,0.0,0.0,0.0,0.0,0.0,0.0,0.0,0.0,0.0,0.0,0.0,0.0,0.0,0.0,0.0,0.0,-3.6358,-3.6376,-3.6376,-3.7092,-3.7533,-3.7533,-3.8267,-3.8844,-3.9099,-3.9125,-3.9264,-3.9622,-3.9922,-4.0101,-4.012,-4.0372,-4.0489,-4.0489,-4.0489,-4.0489,-4.0489,-4.0489,-4.0489,-4.0489,-4.0489,-4.0489,-4.0489,-4.0527,-4.1085,-4.2085,-4.3701,-4.4316,-4.4451,-4.5297,-4.5586,-4.5586,-4.5586,-4.5586,-4.5586,-4.5586,-4.5586,-4.5586,-4.5586,-4.5586,-4.5586,-4.5586,-4.5586,-4.5586,-4.5586,-4.5586,-4.5586,-4.5586,-4.5586,-4.5586,-4.5586,-4.5586,-4.5586,-4.5586,-4.6336,-4.7221,-4.8029,-4.8856,-4.9702,-5.0587,-5.0702,-5.0702,-5.0702,-5.0702,-5.0702,-5.0702,-5.0702,-5.0702,-5.0702,-5.0702,-5.0702,-5.0702,-5.0702,-5.0702,-5.0702,-5.0702,-5.0702,-5.0702,-5.0702,-5.0702,-5.0702,-5.0702,-5.0702,0.0,0.0,-3.8707,-3.8707,0.0,0.0,0.0,0.0,0.0,0.0,0.0,0.0,0.0,0.0,0.0,0.0,0.0,0.0,0.0,0.0,0.0,0.0,0.0,0.0,0.0,0.0,0.0,-3.6303,-3.6541,-3.6927,-3.7489,-3.7753,-3.818,-3.8826,-3.8844,-3.8961,-3.9282,-3.9364,-3.9668,-4.0101,-4.0195,-4.0339,-4.0489,-4.0489,-4.0489,-4.0489,-4.0489,-4.0489,-4.0489,-4.0489,-4.0489,-4.0489,-4.0489,-4.1027,-4.1873,-4.245,-4.3355,-4.4412,-4.5297,-4.5586,-4.5586,-4.5586,-4.5586,-4.5586,-4.5586,-4.5586,-4.5586,-4.5586,-4.5586,-4.5586,-4.5586,-4.5586,-4.5586,-4.5586,-4.5586,-4.5586,-4.5586,-4.5586,-4.5586,-4.5586,-4.5586,-4.5586,-4.5586,-4.5836,-4.6509,-4.7894,-4.8836,-4.9702,-5.0587,-5.0702,-5.0702,-5.0702,-5.0702,-5.0702,-5.0702,-5.0702,-5.0702,-5.0702,-5.0702,-5.0702,-5.0702,-5.0702,-5.0702,-5.0702,-5.0702,-5.0702,-5.0702,-5.0702,-5.0702,-5.0702,-5.0702,-5.0702,-3.8707,-3.8707,0.0,-3.8707,-3.8707,0.0,-3.8707,0.0,-3.8707,0.0,0.0,0.0,0.0,0.0,0.0,0.0,0.0,0.0,0.0,-3.6193,0.0,0.0,0.0,0.0,0.0,-3.5587,-3.5404,-3.5404,-3.5679,-3.6193,0.0,0.0,-3.7863,-3.867,-3.8707,-3.8773,-3.8961,-3.9044,-3.9314,-3.9754,-3.9982,-4.0195,-4.0356,-4.0457,-4.0489,-4.0489,-4.0489,-4.0489,-4.0489,-4.0489,-4.0489,-4.0489,-4.0489,-4.1027,-4.1854,-4.2162,-4.3316,-4.4836,-4.5413,-4.5586,-4.5586,-4.5586,-4.5586,-4.5586,-4.5586,-4.5586,-4.5663,-4.597,-4.5836,-4.5663,-4.597,-4.5817,-4.5586,-4.5586,-4.5586,-4.5586,-4.5586,-4.5586,-4.5586,-4.5586,-4.5586,-4.5586,-4.5586,-4.5855,-4.6432,-4.7509,-4.8394,-4.924,-5.0125,-5.051,-5.0702,-5.0702,-5.0702,-5.0702,-5.0702,-5.0702,-5.0702,-5.0702,-5.0702,-5.0702,-5.0702,-5.0702,-5.0818,-5.1125,-5.0837,-5.0837,-5.1125,-5.0837,-5.0702,-5.0702,-5.0702,-5.0702]}]]